<?xml version="1.0" encoding="UTF-8" standalone="no" ?>
<gpx xmlns="http://www.topografix.com/GPX/1/1" xmlns:xsi="http://www.w3.org/2001/XMLSchema-instance" xsi:schemaLocation="http://www.topografix.com/GPX/1/1 http://www.topografix.com/GPX/1/1/gpx.xsd" version="1.1" creator="VisuGPX - https://www.visugpx.com">
  <metadata>
    <name>orvault vallée du sens</name>
    <desc><![CDATA[technique et ludique, un bon début]]></desc>
  </metadata>
  <trk>
    <name><![CDATA[2016-02-17-01]]></name>
    <trkseg>
      <trkpt lat="47.2697" lon="-1.62431">
        <ele>41.8</ele>
        <time>2016-02-17T12:20:17Z</time>
      </trkpt>
      <trkpt lat="47.2697" lon="-1.62431">
        <ele>41.8</ele>
        <time>2016-02-17T12:20:18Z</time>
      </trkpt>
      <trkpt lat="47.26977" lon="-1.6244">
        <ele>41.4</ele>
        <time>2016-02-17T12:21:46Z</time>
      </trkpt>
      <trkpt lat="47.26966" lon="-1.62432">
        <ele>43.3</ele>
        <time>2016-02-17T12:23:27Z</time>
      </trkpt>
      <trkpt lat="47.26954" lon="-1.62428">
        <ele>42.4</ele>
        <time>2016-02-17T12:23:29Z</time>
      </trkpt>
      <trkpt lat="47.26946" lon="-1.62435">
        <ele>41.1</ele>
        <time>2016-02-17T12:23:32Z</time>
      </trkpt>
      <trkpt lat="47.26943" lon="-1.62451">
        <ele>41.1</ele>
        <time>2016-02-17T12:23:35Z</time>
      </trkpt>
      <trkpt lat="47.26952" lon="-1.62457">
        <ele>41.5</ele>
        <time>2016-02-17T12:23:42Z</time>
      </trkpt>
      <trkpt lat="47.26956" lon="-1.62469">
        <ele>43.7</ele>
        <time>2016-02-17T12:23:49Z</time>
      </trkpt>
      <trkpt lat="47.2696" lon="-1.62483">
        <ele>45.1</ele>
        <time>2016-02-17T12:23:56Z</time>
      </trkpt>
      <trkpt lat="47.2697" lon="-1.62483">
        <ele>49.7</ele>
        <time>2016-02-17T12:24:23Z</time>
      </trkpt>
      <trkpt lat="47.26982" lon="-1.62483">
        <ele>50.3</ele>
        <time>2016-02-17T12:24:26Z</time>
      </trkpt>
      <trkpt lat="47.26993" lon="-1.62482">
        <ele>50.4</ele>
        <time>2016-02-17T12:24:29Z</time>
      </trkpt>
      <trkpt lat="47.27003" lon="-1.6248">
        <ele>50.7</ele>
        <time>2016-02-17T12:24:33Z</time>
      </trkpt>
      <trkpt lat="47.27012" lon="-1.62476">
        <ele>51.5</ele>
        <time>2016-02-17T12:24:37Z</time>
      </trkpt>
      <trkpt lat="47.27021" lon="-1.62481">
        <ele>53.2</ele>
        <time>2016-02-17T12:24:42Z</time>
      </trkpt>
      <trkpt lat="47.27019" lon="-1.62495">
        <ele>54.8</ele>
        <time>2016-02-17T12:24:48Z</time>
      </trkpt>
      <trkpt lat="47.27014" lon="-1.62507">
        <ele>56.3</ele>
        <time>2016-02-17T12:24:54Z</time>
      </trkpt>
      <trkpt lat="47.27013" lon="-1.62521">
        <ele>57.1</ele>
        <time>2016-02-17T12:24:59Z</time>
      </trkpt>
      <trkpt lat="47.2701" lon="-1.62534">
        <ele>58.5</ele>
        <time>2016-02-17T12:25:06Z</time>
      </trkpt>
      <trkpt lat="47.27012" lon="-1.62548">
        <ele>59.7</ele>
        <time>2016-02-17T12:25:13Z</time>
      </trkpt>
      <trkpt lat="47.27003" lon="-1.62552">
        <ele>55.5</ele>
        <time>2016-02-17T12:25:26Z</time>
      </trkpt>
      <trkpt lat="47.26987" lon="-1.62555">
        <ele>50.1</ele>
        <time>2016-02-17T12:25:32Z</time>
      </trkpt>
      <trkpt lat="47.26975" lon="-1.62552">
        <ele>49.4</ele>
        <time>2016-02-17T12:25:34Z</time>
      </trkpt>
      <trkpt lat="47.26969" lon="-1.62561">
        <ele>48.5</ele>
        <time>2016-02-17T12:25:38Z</time>
      </trkpt>
      <trkpt lat="47.26966" lon="-1.62575">
        <ele>48.4</ele>
        <time>2016-02-17T12:25:42Z</time>
      </trkpt>
      <trkpt lat="47.26965" lon="-1.62591">
        <ele>48.4</ele>
        <time>2016-02-17T12:25:46Z</time>
      </trkpt>
      <trkpt lat="47.26961" lon="-1.62606">
        <ele>49.1</ele>
        <time>2016-02-17T12:25:49Z</time>
      </trkpt>
      <trkpt lat="47.26954" lon="-1.62619">
        <ele>49.2</ele>
        <time>2016-02-17T12:25:52Z</time>
      </trkpt>
      <trkpt lat="47.26944" lon="-1.62634">
        <ele>48.8</ele>
        <time>2016-02-17T12:25:55Z</time>
      </trkpt>
      <trkpt lat="47.26939" lon="-1.62645">
        <ele>49.1</ele>
        <time>2016-02-17T12:25:57Z</time>
      </trkpt>
      <trkpt lat="47.26931" lon="-1.62658">
        <ele>49.2</ele>
        <time>2016-02-17T12:25:59Z</time>
      </trkpt>
      <trkpt lat="47.26923" lon="-1.6267">
        <ele>49.4</ele>
        <time>2016-02-17T12:26:02Z</time>
      </trkpt>
      <trkpt lat="47.26915" lon="-1.62679">
        <ele>49.5</ele>
        <time>2016-02-17T12:26:04Z</time>
      </trkpt>
      <trkpt lat="47.26906" lon="-1.62694">
        <ele>49.8</ele>
        <time>2016-02-17T12:26:07Z</time>
      </trkpt>
      <trkpt lat="47.26899" lon="-1.62706">
        <ele>50.4</ele>
        <time>2016-02-17T12:26:09Z</time>
      </trkpt>
      <trkpt lat="47.26894" lon="-1.62719">
        <ele>50.8</ele>
        <time>2016-02-17T12:26:11Z</time>
      </trkpt>
      <trkpt lat="47.26889" lon="-1.62737">
        <ele>51.1</ele>
        <time>2016-02-17T12:26:14Z</time>
      </trkpt>
      <trkpt lat="47.26885" lon="-1.62757">
        <ele>50.7</ele>
        <time>2016-02-17T12:26:17Z</time>
      </trkpt>
      <trkpt lat="47.26884" lon="-1.62774">
        <ele>49.9</ele>
        <time>2016-02-17T12:26:19Z</time>
      </trkpt>
      <trkpt lat="47.26882" lon="-1.62794">
        <ele>49.3</ele>
        <time>2016-02-17T12:26:21Z</time>
      </trkpt>
      <trkpt lat="47.26878" lon="-1.62816">
        <ele>48.9</ele>
        <time>2016-02-17T12:26:23Z</time>
      </trkpt>
      <trkpt lat="47.26874" lon="-1.62839">
        <ele>48.5</ele>
        <time>2016-02-17T12:26:25Z</time>
      </trkpt>
      <trkpt lat="47.26868" lon="-1.62862">
        <ele>47.2</ele>
        <time>2016-02-17T12:26:27Z</time>
      </trkpt>
      <trkpt lat="47.26866" lon="-1.62885">
        <ele>46</ele>
        <time>2016-02-17T12:26:29Z</time>
      </trkpt>
      <trkpt lat="47.26871" lon="-1.62908">
        <ele>44.3</ele>
        <time>2016-02-17T12:26:31Z</time>
      </trkpt>
      <trkpt lat="47.26872" lon="-1.62922">
        <ele>42.6</ele>
        <time>2016-02-17T12:26:33Z</time>
      </trkpt>
      <trkpt lat="47.2687" lon="-1.62894">
        <ele>42.3</ele>
        <time>2016-02-17T12:26:52Z</time>
      </trkpt>
      <trkpt lat="47.26869" lon="-1.62878">
        <ele>43.5</ele>
        <time>2016-02-17T12:26:56Z</time>
      </trkpt>
      <trkpt lat="47.26875" lon="-1.62868">
        <ele>44.7</ele>
        <time>2016-02-17T12:27:00Z</time>
      </trkpt>
      <trkpt lat="47.26885" lon="-1.62859">
        <ele>45.5</ele>
        <time>2016-02-17T12:27:05Z</time>
      </trkpt>
      <trkpt lat="47.26895" lon="-1.62855">
        <ele>46.4</ele>
        <time>2016-02-17T12:27:09Z</time>
      </trkpt>
      <trkpt lat="47.26904" lon="-1.62847">
        <ele>46.8</ele>
        <time>2016-02-17T12:27:13Z</time>
      </trkpt>
      <trkpt lat="47.26913" lon="-1.62841">
        <ele>47.5</ele>
        <time>2016-02-17T12:27:17Z</time>
      </trkpt>
      <trkpt lat="47.26921" lon="-1.62834">
        <ele>48.7</ele>
        <time>2016-02-17T12:27:21Z</time>
      </trkpt>
      <trkpt lat="47.26929" lon="-1.62827">
        <ele>50</ele>
        <time>2016-02-17T12:27:26Z</time>
      </trkpt>
      <trkpt lat="47.26939" lon="-1.62823">
        <ele>50.7</ele>
        <time>2016-02-17T12:27:31Z</time>
      </trkpt>
      <trkpt lat="47.26949" lon="-1.6282">
        <ele>51.4</ele>
        <time>2016-02-17T12:27:35Z</time>
      </trkpt>
      <trkpt lat="47.26967" lon="-1.62809">
        <ele>53.2</ele>
        <time>2016-02-17T12:27:46Z</time>
      </trkpt>
      <trkpt lat="47.26976" lon="-1.62804">
        <ele>55.2</ele>
        <time>2016-02-17T12:27:52Z</time>
      </trkpt>
      <trkpt lat="47.26981" lon="-1.62818">
        <ele>56.3</ele>
        <time>2016-02-17T12:27:59Z</time>
      </trkpt>
      <trkpt lat="47.26985" lon="-1.6283">
        <ele>56.9</ele>
        <time>2016-02-17T12:28:04Z</time>
      </trkpt>
      <trkpt lat="47.26983" lon="-1.62812">
        <ele>56.8</ele>
        <time>2016-02-17T12:28:14Z</time>
      </trkpt>
      <trkpt lat="47.26982" lon="-1.62796">
        <ele>57</ele>
        <time>2016-02-17T12:28:17Z</time>
      </trkpt>
      <trkpt lat="47.26981" lon="-1.62777">
        <ele>56.7</ele>
        <time>2016-02-17T12:28:20Z</time>
      </trkpt>
      <trkpt lat="47.26978" lon="-1.62761">
        <ele>56.4</ele>
        <time>2016-02-17T12:28:22Z</time>
      </trkpt>
      <trkpt lat="47.26975" lon="-1.62745">
        <ele>55.8</ele>
        <time>2016-02-17T12:28:24Z</time>
      </trkpt>
      <trkpt lat="47.26972" lon="-1.62728">
        <ele>55.6</ele>
        <time>2016-02-17T12:28:26Z</time>
      </trkpt>
      <trkpt lat="47.26971" lon="-1.62711">
        <ele>55.2</ele>
        <time>2016-02-17T12:28:28Z</time>
      </trkpt>
      <trkpt lat="47.2697" lon="-1.62692">
        <ele>55</ele>
        <time>2016-02-17T12:28:30Z</time>
      </trkpt>
      <trkpt lat="47.2697" lon="-1.62673">
        <ele>54.2</ele>
        <time>2016-02-17T12:28:32Z</time>
      </trkpt>
      <trkpt lat="47.26969" lon="-1.62654">
        <ele>54.2</ele>
        <time>2016-02-17T12:28:34Z</time>
      </trkpt>
      <trkpt lat="47.2697" lon="-1.62634">
        <ele>53.1</ele>
        <time>2016-02-17T12:28:36Z</time>
      </trkpt>
      <trkpt lat="47.26971" lon="-1.62596">
        <ele>51.7</ele>
        <time>2016-02-17T12:28:40Z</time>
      </trkpt>
      <trkpt lat="47.26971" lon="-1.62578">
        <ele>50.6</ele>
        <time>2016-02-17T12:28:42Z</time>
      </trkpt>
      <trkpt lat="47.26972" lon="-1.62564">
        <ele>49.3</ele>
        <time>2016-02-17T12:28:44Z</time>
      </trkpt>
      <trkpt lat="47.26973" lon="-1.6255">
        <ele>48.8</ele>
        <time>2016-02-17T12:28:47Z</time>
      </trkpt>
      <trkpt lat="47.26975" lon="-1.62535">
        <ele>48.7</ele>
        <time>2016-02-17T12:28:51Z</time>
      </trkpt>
      <trkpt lat="47.26979" lon="-1.62522">
        <ele>49.2</ele>
        <time>2016-02-17T12:28:54Z</time>
      </trkpt>
      <trkpt lat="47.26985" lon="-1.62508">
        <ele>49.6</ele>
        <time>2016-02-17T12:28:58Z</time>
      </trkpt>
      <trkpt lat="47.26993" lon="-1.62497">
        <ele>50.2</ele>
        <time>2016-02-17T12:29:02Z</time>
      </trkpt>
      <trkpt lat="47.27002" lon="-1.62488">
        <ele>50.6</ele>
        <time>2016-02-17T12:29:06Z</time>
      </trkpt>
      <trkpt lat="47.27011" lon="-1.62479">
        <ele>51.5</ele>
        <time>2016-02-17T12:29:36Z</time>
      </trkpt>
      <trkpt lat="47.27021" lon="-1.62478">
        <ele>53.3</ele>
        <time>2016-02-17T12:29:40Z</time>
      </trkpt>
      <trkpt lat="47.27018" lon="-1.62508">
        <ele>56.3</ele>
        <time>2016-02-17T12:29:49Z</time>
      </trkpt>
      <trkpt lat="47.27013" lon="-1.62521">
        <ele>57.9</ele>
        <time>2016-02-17T12:29:53Z</time>
      </trkpt>
      <trkpt lat="47.27013" lon="-1.62536">
        <ele>59.6</ele>
        <time>2016-02-17T12:29:58Z</time>
      </trkpt>
      <trkpt lat="47.27016" lon="-1.6255">
        <ele>60.4</ele>
        <time>2016-02-17T12:30:03Z</time>
      </trkpt>
      <trkpt lat="47.2702" lon="-1.62564">
        <ele>61.3</ele>
        <time>2016-02-17T12:30:08Z</time>
      </trkpt>
      <trkpt lat="47.27025" lon="-1.62578">
        <ele>61.7</ele>
        <time>2016-02-17T12:30:13Z</time>
      </trkpt>
      <trkpt lat="47.27027" lon="-1.62593">
        <ele>62</ele>
        <time>2016-02-17T12:30:17Z</time>
      </trkpt>
      <trkpt lat="47.27028" lon="-1.62611">
        <ele>62</ele>
        <time>2016-02-17T12:30:20Z</time>
      </trkpt>
      <trkpt lat="47.27027" lon="-1.62625">
        <ele>61.9</ele>
        <time>2016-02-17T12:30:22Z</time>
      </trkpt>
      <trkpt lat="47.27026" lon="-1.62639">
        <ele>61.8</ele>
        <time>2016-02-17T12:30:24Z</time>
      </trkpt>
      <trkpt lat="47.27024" lon="-1.62653">
        <ele>62.1</ele>
        <time>2016-02-17T12:30:26Z</time>
      </trkpt>
      <trkpt lat="47.27023" lon="-1.62671">
        <ele>62</ele>
        <time>2016-02-17T12:30:29Z</time>
      </trkpt>
      <trkpt lat="47.27026" lon="-1.62689">
        <ele>62</ele>
        <time>2016-02-17T12:30:32Z</time>
      </trkpt>
      <trkpt lat="47.2703" lon="-1.62707">
        <ele>62.3</ele>
        <time>2016-02-17T12:30:35Z</time>
      </trkpt>
      <trkpt lat="47.27031" lon="-1.62723">
        <ele>62.3</ele>
        <time>2016-02-17T12:30:38Z</time>
      </trkpt>
      <trkpt lat="47.27033" lon="-1.62738">
        <ele>63.1</ele>
        <time>2016-02-17T12:30:41Z</time>
      </trkpt>
      <trkpt lat="47.27039" lon="-1.62766">
        <ele>64.4</ele>
        <time>2016-02-17T12:30:48Z</time>
      </trkpt>
      <trkpt lat="47.27044" lon="-1.6278">
        <ele>64.4</ele>
        <time>2016-02-17T12:30:51Z</time>
      </trkpt>
      <trkpt lat="47.27046" lon="-1.62794">
        <ele>65.1</ele>
        <time>2016-02-17T12:30:54Z</time>
      </trkpt>
      <trkpt lat="47.27049" lon="-1.62807">
        <ele>65.9</ele>
        <time>2016-02-17T12:30:57Z</time>
      </trkpt>
      <trkpt lat="47.27051" lon="-1.62821">
        <ele>66.5</ele>
        <time>2016-02-17T12:31:00Z</time>
      </trkpt>
      <trkpt lat="47.27055" lon="-1.62835">
        <ele>67</ele>
        <time>2016-02-17T12:31:03Z</time>
      </trkpt>
      <trkpt lat="47.27058" lon="-1.6285">
        <ele>67.2</ele>
        <time>2016-02-17T12:31:06Z</time>
      </trkpt>
      <trkpt lat="47.27062" lon="-1.62865">
        <ele>67.7</ele>
        <time>2016-02-17T12:31:09Z</time>
      </trkpt>
      <trkpt lat="47.27066" lon="-1.62879">
        <ele>67.7</ele>
        <time>2016-02-17T12:31:11Z</time>
      </trkpt>
      <trkpt lat="47.27071" lon="-1.62893">
        <ele>67.7</ele>
        <time>2016-02-17T12:31:14Z</time>
      </trkpt>
      <trkpt lat="47.27076" lon="-1.62907">
        <ele>67.9</ele>
        <time>2016-02-17T12:31:32Z</time>
      </trkpt>
      <trkpt lat="47.27079" lon="-1.62922">
        <ele>67.9</ele>
        <time>2016-02-17T12:31:35Z</time>
      </trkpt>
      <trkpt lat="47.27083" lon="-1.62939">
        <ele>67.4</ele>
        <time>2016-02-17T12:31:38Z</time>
      </trkpt>
      <trkpt lat="47.27085" lon="-1.62959">
        <ele>67.6</ele>
        <time>2016-02-17T12:31:41Z</time>
      </trkpt>
      <trkpt lat="47.27087" lon="-1.62974">
        <ele>67</ele>
        <time>2016-02-17T12:31:43Z</time>
      </trkpt>
      <trkpt lat="47.2709" lon="-1.63014">
        <ele>64</ele>
        <time>2016-02-17T12:31:47Z</time>
      </trkpt>
      <trkpt lat="47.2709" lon="-1.63037">
        <ele>59.4</ele>
        <time>2016-02-17T12:31:49Z</time>
      </trkpt>
      <trkpt lat="47.27088" lon="-1.6306">
        <ele>58.4</ele>
        <time>2016-02-17T12:31:51Z</time>
      </trkpt>
      <trkpt lat="47.27085" lon="-1.63075">
        <ele>57.2</ele>
        <time>2016-02-17T12:31:52Z</time>
      </trkpt>
      <trkpt lat="47.27082" lon="-1.6309">
        <ele>56.4</ele>
        <time>2016-02-17T12:31:53Z</time>
      </trkpt>
      <trkpt lat="47.27078" lon="-1.63106">
        <ele>55.4</ele>
        <time>2016-02-17T12:31:54Z</time>
      </trkpt>
      <trkpt lat="47.27075" lon="-1.63121">
        <ele>54.4</ele>
        <time>2016-02-17T12:31:55Z</time>
      </trkpt>
      <trkpt lat="47.27072" lon="-1.63137">
        <ele>54.1</ele>
        <time>2016-02-17T12:31:56Z</time>
      </trkpt>
      <trkpt lat="47.27069" lon="-1.63153">
        <ele>53.4</ele>
        <time>2016-02-17T12:31:57Z</time>
      </trkpt>
      <trkpt lat="47.27066" lon="-1.63167">
        <ele>52.9</ele>
        <time>2016-02-17T12:31:58Z</time>
      </trkpt>
      <trkpt lat="47.27062" lon="-1.6318">
        <ele>52.7</ele>
        <time>2016-02-17T12:31:59Z</time>
      </trkpt>
      <trkpt lat="47.27056" lon="-1.63204">
        <ele>52.3</ele>
        <time>2016-02-17T12:32:01Z</time>
      </trkpt>
      <trkpt lat="47.2705" lon="-1.63225">
        <ele>51.8</ele>
        <time>2016-02-17T12:32:03Z</time>
      </trkpt>
      <trkpt lat="47.27043" lon="-1.63246">
        <ele>51.7</ele>
        <time>2016-02-17T12:32:05Z</time>
      </trkpt>
      <trkpt lat="47.27037" lon="-1.63267">
        <ele>51.8</ele>
        <time>2016-02-17T12:32:07Z</time>
      </trkpt>
      <trkpt lat="47.27034" lon="-1.63281">
        <ele>51.2</ele>
        <time>2016-02-17T12:32:09Z</time>
      </trkpt>
      <trkpt lat="47.27021" lon="-1.63285">
        <ele>49.7</ele>
        <time>2016-02-17T12:32:13Z</time>
      </trkpt>
      <trkpt lat="47.2701" lon="-1.63284">
        <ele>49</ele>
        <time>2016-02-17T12:32:15Z</time>
      </trkpt>
      <trkpt lat="47.26994" lon="-1.63283">
        <ele>47.1</ele>
        <time>2016-02-17T12:32:17Z</time>
      </trkpt>
      <trkpt lat="47.26976" lon="-1.63278">
        <ele>44.5</ele>
        <time>2016-02-17T12:32:19Z</time>
      </trkpt>
      <trkpt lat="47.2696" lon="-1.63273">
        <ele>42.4</ele>
        <time>2016-02-17T12:32:21Z</time>
      </trkpt>
      <trkpt lat="47.26947" lon="-1.63268">
        <ele>40</ele>
        <time>2016-02-17T12:32:23Z</time>
      </trkpt>
      <trkpt lat="47.26933" lon="-1.6326">
        <ele>37</ele>
        <time>2016-02-17T12:32:25Z</time>
      </trkpt>
      <trkpt lat="47.26918" lon="-1.63248">
        <ele>34</ele>
        <time>2016-02-17T12:32:27Z</time>
      </trkpt>
      <trkpt lat="47.26908" lon="-1.6324">
        <ele>30.8</ele>
        <time>2016-02-17T12:32:29Z</time>
      </trkpt>
      <trkpt lat="47.26897" lon="-1.63238">
        <ele>28</ele>
        <time>2016-02-17T12:32:32Z</time>
      </trkpt>
      <trkpt lat="47.26897" lon="-1.63251">
        <ele>27.7</ele>
        <time>2016-02-17T12:32:38Z</time>
      </trkpt>
      <trkpt lat="47.26895" lon="-1.63268">
        <ele>27.9</ele>
        <time>2016-02-17T12:32:42Z</time>
      </trkpt>
      <trkpt lat="47.26892" lon="-1.63282">
        <ele>28.1</ele>
        <time>2016-02-17T12:32:45Z</time>
      </trkpt>
      <trkpt lat="47.26889" lon="-1.63312">
        <ele>29.3</ele>
        <time>2016-02-17T12:32:53Z</time>
      </trkpt>
      <trkpt lat="47.26888" lon="-1.63327">
        <ele>30.1</ele>
        <time>2016-02-17T12:32:57Z</time>
      </trkpt>
      <trkpt lat="47.26889" lon="-1.63341">
        <ele>31.1</ele>
        <time>2016-02-17T12:33:01Z</time>
      </trkpt>
      <trkpt lat="47.26884" lon="-1.63353">
        <ele>31.5</ele>
        <time>2016-02-17T12:33:21Z</time>
      </trkpt>
      <trkpt lat="47.26875" lon="-1.63368">
        <ele>30.9</ele>
        <time>2016-02-17T12:33:23Z</time>
      </trkpt>
      <trkpt lat="47.26875" lon="-1.63382">
        <ele>31.3</ele>
        <time>2016-02-17T12:33:25Z</time>
      </trkpt>
      <trkpt lat="47.26874" lon="-1.63399">
        <ele>31.3</ele>
        <time>2016-02-17T12:33:28Z</time>
      </trkpt>
      <trkpt lat="47.26871" lon="-1.63416">
        <ele>31.6</ele>
        <time>2016-02-17T12:33:31Z</time>
      </trkpt>
      <trkpt lat="47.26868" lon="-1.63434">
        <ele>32.1</ele>
        <time>2016-02-17T12:33:34Z</time>
      </trkpt>
      <trkpt lat="47.26865" lon="-1.63448">
        <ele>32.8</ele>
        <time>2016-02-17T12:33:37Z</time>
      </trkpt>
      <trkpt lat="47.26861" lon="-1.63462">
        <ele>33.3</ele>
        <time>2016-02-17T12:33:40Z</time>
      </trkpt>
      <trkpt lat="47.26857" lon="-1.63477">
        <ele>33.6</ele>
        <time>2016-02-17T12:33:43Z</time>
      </trkpt>
      <trkpt lat="47.26851" lon="-1.63489">
        <ele>33.5</ele>
        <time>2016-02-17T12:33:46Z</time>
      </trkpt>
      <trkpt lat="47.26842" lon="-1.63517">
        <ele>35.3</ele>
        <time>2016-02-17T12:33:52Z</time>
      </trkpt>
      <trkpt lat="47.26836" lon="-1.6353">
        <ele>34.9</ele>
        <time>2016-02-17T12:33:55Z</time>
      </trkpt>
      <trkpt lat="47.2683" lon="-1.63543">
        <ele>34.6</ele>
        <time>2016-02-17T12:33:58Z</time>
      </trkpt>
      <trkpt lat="47.26823" lon="-1.63557">
        <ele>34.4</ele>
        <time>2016-02-17T12:34:01Z</time>
      </trkpt>
      <trkpt lat="47.26818" lon="-1.6357">
        <ele>34.2</ele>
        <time>2016-02-17T12:34:04Z</time>
      </trkpt>
      <trkpt lat="47.26812" lon="-1.63584">
        <ele>33.9</ele>
        <time>2016-02-17T12:34:07Z</time>
      </trkpt>
      <trkpt lat="47.26805" lon="-1.63596">
        <ele>34.1</ele>
        <time>2016-02-17T12:34:10Z</time>
      </trkpt>
      <trkpt lat="47.26798" lon="-1.63604">
        <ele>34.2</ele>
        <time>2016-02-17T12:34:12Z</time>
      </trkpt>
      <trkpt lat="47.26789" lon="-1.6361">
        <ele>33.9</ele>
        <time>2016-02-17T12:34:14Z</time>
      </trkpt>
      <trkpt lat="47.26779" lon="-1.6362">
        <ele>34.1</ele>
        <time>2016-02-17T12:34:17Z</time>
      </trkpt>
      <trkpt lat="47.26771" lon="-1.63631">
        <ele>34.1</ele>
        <time>2016-02-17T12:34:20Z</time>
      </trkpt>
      <trkpt lat="47.26766" lon="-1.63646">
        <ele>33.4</ele>
        <time>2016-02-17T12:34:24Z</time>
      </trkpt>
      <trkpt lat="47.26763" lon="-1.63664">
        <ele>32.1</ele>
        <time>2016-02-17T12:34:27Z</time>
      </trkpt>
      <trkpt lat="47.26758" lon="-1.63676">
        <ele>32</ele>
        <time>2016-02-17T12:34:29Z</time>
      </trkpt>
      <trkpt lat="47.2675" lon="-1.63694">
        <ele>30.8</ele>
        <time>2016-02-17T12:34:31Z</time>
      </trkpt>
      <trkpt lat="47.26743" lon="-1.63714">
        <ele>30.4</ele>
        <time>2016-02-17T12:34:33Z</time>
      </trkpt>
      <trkpt lat="47.26737" lon="-1.63734">
        <ele>30.6</ele>
        <time>2016-02-17T12:34:35Z</time>
      </trkpt>
      <trkpt lat="47.26733" lon="-1.63753">
        <ele>30</ele>
        <time>2016-02-17T12:34:37Z</time>
      </trkpt>
      <trkpt lat="47.26731" lon="-1.63772">
        <ele>29.7</ele>
        <time>2016-02-17T12:34:39Z</time>
      </trkpt>
      <trkpt lat="47.26729" lon="-1.63788">
        <ele>29.7</ele>
        <time>2016-02-17T12:34:41Z</time>
      </trkpt>
      <trkpt lat="47.26727" lon="-1.63803">
        <ele>30</ele>
        <time>2016-02-17T12:34:43Z</time>
      </trkpt>
      <trkpt lat="47.26726" lon="-1.63818">
        <ele>30.1</ele>
        <time>2016-02-17T12:34:45Z</time>
      </trkpt>
      <trkpt lat="47.26727" lon="-1.63831">
        <ele>29.9</ele>
        <time>2016-02-17T12:34:47Z</time>
      </trkpt>
      <trkpt lat="47.26721" lon="-1.63863">
        <ele>29.9</ele>
        <time>2016-02-17T12:34:52Z</time>
      </trkpt>
      <trkpt lat="47.26719" lon="-1.63876">
        <ele>29.8</ele>
        <time>2016-02-17T12:34:54Z</time>
      </trkpt>
      <trkpt lat="47.26719" lon="-1.63892">
        <ele>29.1</ele>
        <time>2016-02-17T12:34:57Z</time>
      </trkpt>
      <trkpt lat="47.26723" lon="-1.63907">
        <ele>30.7</ele>
        <time>2016-02-17T12:35:22Z</time>
      </trkpt>
      <trkpt lat="47.26731" lon="-1.63916">
        <ele>32.8</ele>
        <time>2016-02-17T12:35:29Z</time>
      </trkpt>
      <trkpt lat="47.26738" lon="-1.63927">
        <ele>34.1</ele>
        <time>2016-02-17T12:35:35Z</time>
      </trkpt>
      <trkpt lat="47.26745" lon="-1.63937">
        <ele>36.1</ele>
        <time>2016-02-17T12:35:41Z</time>
      </trkpt>
      <trkpt lat="47.26754" lon="-1.63943">
        <ele>37.5</ele>
        <time>2016-02-17T12:35:48Z</time>
      </trkpt>
      <trkpt lat="47.26774" lon="-1.63936">
        <ele>39.9</ele>
        <time>2016-02-17T12:36:01Z</time>
      </trkpt>
      <trkpt lat="47.26783" lon="-1.63929">
        <ele>41.2</ele>
        <time>2016-02-17T12:36:06Z</time>
      </trkpt>
      <trkpt lat="47.26792" lon="-1.63926">
        <ele>41.7</ele>
        <time>2016-02-17T12:36:30Z</time>
      </trkpt>
      <trkpt lat="47.26797" lon="-1.63913">
        <ele>43.6</ele>
        <time>2016-02-17T12:36:37Z</time>
      </trkpt>
      <trkpt lat="47.26804" lon="-1.63904">
        <ele>44.7</ele>
        <time>2016-02-17T12:36:42Z</time>
      </trkpt>
      <trkpt lat="47.26813" lon="-1.63897">
        <ele>46.5</ele>
        <time>2016-02-17T12:36:48Z</time>
      </trkpt>
      <trkpt lat="47.26819" lon="-1.63886">
        <ele>47.6</ele>
        <time>2016-02-17T12:36:55Z</time>
      </trkpt>
      <trkpt lat="47.26834" lon="-1.63866">
        <ele>48.6</ele>
        <time>2016-02-17T12:37:07Z</time>
      </trkpt>
      <trkpt lat="47.26842" lon="-1.63856">
        <ele>49.5</ele>
        <time>2016-02-17T12:37:13Z</time>
      </trkpt>
      <trkpt lat="47.26849" lon="-1.63848">
        <ele>50.1</ele>
        <time>2016-02-17T12:37:17Z</time>
      </trkpt>
      <trkpt lat="47.26858" lon="-1.63842">
        <ele>50.9</ele>
        <time>2016-02-17T12:37:21Z</time>
      </trkpt>
      <trkpt lat="47.26867" lon="-1.63839">
        <ele>51</ele>
        <time>2016-02-17T12:37:24Z</time>
      </trkpt>
      <trkpt lat="47.26875" lon="-1.63846">
        <ele>51.2</ele>
        <time>2016-02-17T12:37:28Z</time>
      </trkpt>
      <trkpt lat="47.26882" lon="-1.63854">
        <ele>51.5</ele>
        <time>2016-02-17T12:37:32Z</time>
      </trkpt>
      <trkpt lat="47.26892" lon="-1.63857">
        <ele>51.6</ele>
        <time>2016-02-17T12:37:36Z</time>
      </trkpt>
      <trkpt lat="47.26897" lon="-1.63868">
        <ele>51.1</ele>
        <time>2016-02-17T12:37:42Z</time>
      </trkpt>
      <trkpt lat="47.26895" lon="-1.63882">
        <ele>51.4</ele>
        <time>2016-02-17T12:38:15Z</time>
      </trkpt>
      <trkpt lat="47.26893" lon="-1.63909">
        <ele>45.8</ele>
        <time>2016-02-17T12:39:04Z</time>
      </trkpt>
      <trkpt lat="47.26894" lon="-1.63923">
        <ele>42.7</ele>
        <time>2016-02-17T12:39:09Z</time>
      </trkpt>
      <trkpt lat="47.26897" lon="-1.63937">
        <ele>40.9</ele>
        <time>2016-02-17T12:39:13Z</time>
      </trkpt>
      <trkpt lat="47.26902" lon="-1.63955">
        <ele>39.6</ele>
        <time>2016-02-17T12:39:16Z</time>
      </trkpt>
      <trkpt lat="47.26914" lon="-1.63979">
        <ele>37.1</ele>
        <time>2016-02-17T12:39:23Z</time>
      </trkpt>
      <trkpt lat="47.2692" lon="-1.63992">
        <ele>37.2</ele>
        <time>2016-02-17T12:39:29Z</time>
      </trkpt>
      <trkpt lat="47.26923" lon="-1.64007">
        <ele>36.4</ele>
        <time>2016-02-17T12:39:34Z</time>
      </trkpt>
      <trkpt lat="47.26928" lon="-1.64018">
        <ele>37.1</ele>
        <time>2016-02-17T12:39:37Z</time>
      </trkpt>
      <trkpt lat="47.26935" lon="-1.6403">
        <ele>38.1</ele>
        <time>2016-02-17T12:39:43Z</time>
      </trkpt>
      <trkpt lat="47.26943" lon="-1.64037">
        <ele>37.3</ele>
        <time>2016-02-17T12:39:52Z</time>
      </trkpt>
      <trkpt lat="47.26945" lon="-1.64051">
        <ele>38.5</ele>
        <time>2016-02-17T12:39:57Z</time>
      </trkpt>
      <trkpt lat="47.26949" lon="-1.64065">
        <ele>41.2</ele>
        <time>2016-02-17T12:40:03Z</time>
      </trkpt>
      <trkpt lat="47.26954" lon="-1.64078">
        <ele>42.3</ele>
        <time>2016-02-17T12:40:09Z</time>
      </trkpt>
      <trkpt lat="47.26961" lon="-1.64088">
        <ele>44.6</ele>
        <time>2016-02-17T12:40:17Z</time>
      </trkpt>
      <trkpt lat="47.26978" lon="-1.64097">
        <ele>47.2</ele>
        <time>2016-02-17T12:40:31Z</time>
      </trkpt>
      <trkpt lat="47.26987" lon="-1.64105">
        <ele>48</ele>
        <time>2016-02-17T12:40:35Z</time>
      </trkpt>
      <trkpt lat="47.26995" lon="-1.64115">
        <ele>48.9</ele>
        <time>2016-02-17T12:40:39Z</time>
      </trkpt>
      <trkpt lat="47.27" lon="-1.64126">
        <ele>49.4</ele>
        <time>2016-02-17T12:40:44Z</time>
      </trkpt>
      <trkpt lat="47.27007" lon="-1.64136">
        <ele>49.8</ele>
        <time>2016-02-17T12:40:49Z</time>
      </trkpt>
      <trkpt lat="47.27015" lon="-1.64144">
        <ele>50.5</ele>
        <time>2016-02-17T12:40:54Z</time>
      </trkpt>
      <trkpt lat="47.27021" lon="-1.64155">
        <ele>51.9</ele>
        <time>2016-02-17T12:41:02Z</time>
      </trkpt>
      <trkpt lat="47.27028" lon="-1.64166">
        <ele>52.5</ele>
        <time>2016-02-17T12:41:08Z</time>
      </trkpt>
      <trkpt lat="47.27036" lon="-1.64177">
        <ele>53.3</ele>
        <time>2016-02-17T12:41:13Z</time>
      </trkpt>
      <trkpt lat="47.27043" lon="-1.64188">
        <ele>54.2</ele>
        <time>2016-02-17T12:41:16Z</time>
      </trkpt>
      <trkpt lat="47.27047" lon="-1.64202">
        <ele>54.9</ele>
        <time>2016-02-17T12:41:20Z</time>
      </trkpt>
      <trkpt lat="47.2706" lon="-1.64224">
        <ele>55.8</ele>
        <time>2016-02-17T12:41:31Z</time>
      </trkpt>
      <trkpt lat="47.27068" lon="-1.64235">
        <ele>56.1</ele>
        <time>2016-02-17T12:41:36Z</time>
      </trkpt>
      <trkpt lat="47.27074" lon="-1.64247">
        <ele>56.6</ele>
        <time>2016-02-17T12:41:40Z</time>
      </trkpt>
      <trkpt lat="47.27077" lon="-1.6426">
        <ele>56.5</ele>
        <time>2016-02-17T12:41:42Z</time>
      </trkpt>
      <trkpt lat="47.2708" lon="-1.64273">
        <ele>56.3</ele>
        <time>2016-02-17T12:41:44Z</time>
      </trkpt>
      <trkpt lat="47.27083" lon="-1.64285">
        <ele>55.9</ele>
        <time>2016-02-17T12:41:46Z</time>
      </trkpt>
      <trkpt lat="47.27082" lon="-1.643">
        <ele>51.8</ele>
        <time>2016-02-17T12:41:51Z</time>
      </trkpt>
      <trkpt lat="47.27087" lon="-1.64314">
        <ele>48.5</ele>
        <time>2016-02-17T12:41:58Z</time>
      </trkpt>
      <trkpt lat="47.2709" lon="-1.64328">
        <ele>47</ele>
        <time>2016-02-17T12:42:03Z</time>
      </trkpt>
      <trkpt lat="47.27096" lon="-1.64344">
        <ele>48.3</ele>
        <time>2016-02-17T12:42:11Z</time>
      </trkpt>
      <trkpt lat="47.27103" lon="-1.64356">
        <ele>48.5</ele>
        <time>2016-02-17T12:42:14Z</time>
      </trkpt>
      <trkpt lat="47.27109" lon="-1.64367">
        <ele>49.5</ele>
        <time>2016-02-17T12:42:25Z</time>
      </trkpt>
      <trkpt lat="47.2711" lon="-1.64397">
        <ele>51.9</ele>
        <time>2016-02-17T12:42:44Z</time>
      </trkpt>
      <trkpt lat="47.27107" lon="-1.6441">
        <ele>52.5</ele>
        <time>2016-02-17T12:42:48Z</time>
      </trkpt>
      <trkpt lat="47.27102" lon="-1.64425">
        <ele>51.1</ele>
        <time>2016-02-17T12:42:53Z</time>
      </trkpt>
      <trkpt lat="47.27102" lon="-1.64439">
        <ele>50.5</ele>
        <time>2016-02-17T12:42:57Z</time>
      </trkpt>
      <trkpt lat="47.27101" lon="-1.64454">
        <ele>49.7</ele>
        <time>2016-02-17T12:43:01Z</time>
      </trkpt>
      <trkpt lat="47.27092" lon="-1.64461">
        <ele>48.1</ele>
        <time>2016-02-17T12:43:24Z</time>
      </trkpt>
      <trkpt lat="47.27083" lon="-1.64466">
        <ele>44.1</ele>
        <time>2016-02-17T12:43:29Z</time>
      </trkpt>
      <trkpt lat="47.27066" lon="-1.64477">
        <ele>38.7</ele>
        <time>2016-02-17T12:43:36Z</time>
      </trkpt>
      <trkpt lat="47.27057" lon="-1.64468">
        <ele>36.1</ele>
        <time>2016-02-17T12:43:41Z</time>
      </trkpt>
      <trkpt lat="47.2705" lon="-1.64453">
        <ele>34.1</ele>
        <time>2016-02-17T12:43:44Z</time>
      </trkpt>
      <trkpt lat="47.2704" lon="-1.64448">
        <ele>32.6</ele>
        <time>2016-02-17T12:43:47Z</time>
      </trkpt>
      <trkpt lat="47.27031" lon="-1.64455">
        <ele>32.8</ele>
        <time>2016-02-17T12:43:51Z</time>
      </trkpt>
      <trkpt lat="47.27023" lon="-1.64461">
        <ele>32.5</ele>
        <time>2016-02-17T12:43:55Z</time>
      </trkpt>
      <trkpt lat="47.27013" lon="-1.64458">
        <ele>33.2</ele>
        <time>2016-02-17T12:44:00Z</time>
      </trkpt>
      <trkpt lat="47.27006" lon="-1.64447">
        <ele>34.5</ele>
        <time>2016-02-17T12:44:05Z</time>
      </trkpt>
      <trkpt lat="47.26996" lon="-1.64448">
        <ele>37.3</ele>
        <time>2016-02-17T12:44:16Z</time>
      </trkpt>
      <trkpt lat="47.26986" lon="-1.64444">
        <ele>39.5</ele>
        <time>2016-02-17T12:44:21Z</time>
      </trkpt>
      <trkpt lat="47.26979" lon="-1.64434">
        <ele>43.3</ele>
        <time>2016-02-17T12:44:28Z</time>
      </trkpt>
      <trkpt lat="47.26973" lon="-1.64421">
        <ele>45.1</ele>
        <time>2016-02-17T12:44:35Z</time>
      </trkpt>
      <trkpt lat="47.26957" lon="-1.64414">
        <ele>48.8</ele>
        <time>2016-02-17T12:45:31Z</time>
      </trkpt>
      <trkpt lat="47.26948" lon="-1.64414">
        <ele>51.8</ele>
        <time>2016-02-17T12:45:38Z</time>
      </trkpt>
      <trkpt lat="47.26938" lon="-1.644">
        <ele>53.5</ele>
        <time>2016-02-17T12:46:14Z</time>
      </trkpt>
      <trkpt lat="47.26929" lon="-1.64389">
        <ele>54.2</ele>
        <time>2016-02-17T12:46:21Z</time>
      </trkpt>
      <trkpt lat="47.2692" lon="-1.64392">
        <ele>56.3</ele>
        <time>2016-02-17T12:46:29Z</time>
      </trkpt>
      <trkpt lat="47.26912" lon="-1.64396">
        <ele>56.6</ele>
        <time>2016-02-17T12:46:37Z</time>
      </trkpt>
      <trkpt lat="47.26903" lon="-1.64404">
        <ele>57.6</ele>
        <time>2016-02-17T12:46:57Z</time>
      </trkpt>
      <trkpt lat="47.26885" lon="-1.64414">
        <ele>59.4</ele>
        <time>2016-02-17T12:47:16Z</time>
      </trkpt>
      <trkpt lat="47.26884" lon="-1.64427">
        <ele>59.3</ele>
        <time>2016-02-17T12:47:35Z</time>
      </trkpt>
      <trkpt lat="47.26883" lon="-1.64442">
        <ele>59.8</ele>
        <time>2016-02-17T12:47:44Z</time>
      </trkpt>
      <trkpt lat="47.26882" lon="-1.64458">
        <ele>60.4</ele>
        <time>2016-02-17T12:47:49Z</time>
      </trkpt>
      <trkpt lat="47.26889" lon="-1.64465">
        <ele>60.1</ele>
        <time>2016-02-17T12:47:54Z</time>
      </trkpt>
      <trkpt lat="47.26898" lon="-1.64466">
        <ele>59.6</ele>
        <time>2016-02-17T12:47:57Z</time>
      </trkpt>
      <trkpt lat="47.26909" lon="-1.64468">
        <ele>57.9</ele>
        <time>2016-02-17T12:48:00Z</time>
      </trkpt>
      <trkpt lat="47.26918" lon="-1.64492">
        <ele>55.3</ele>
        <time>2016-02-17T12:48:08Z</time>
      </trkpt>
      <trkpt lat="47.26918" lon="-1.64507">
        <ele>54.8</ele>
        <time>2016-02-17T12:48:12Z</time>
      </trkpt>
      <trkpt lat="47.26917" lon="-1.64524">
        <ele>55.1</ele>
        <time>2016-02-17T12:48:16Z</time>
      </trkpt>
      <trkpt lat="47.26918" lon="-1.6454">
        <ele>54.8</ele>
        <time>2016-02-17T12:48:18Z</time>
      </trkpt>
      <trkpt lat="47.26918" lon="-1.64556">
        <ele>54.9</ele>
        <time>2016-02-17T12:48:21Z</time>
      </trkpt>
      <trkpt lat="47.26914" lon="-1.64571">
        <ele>55.2</ele>
        <time>2016-02-17T12:48:25Z</time>
      </trkpt>
      <trkpt lat="47.26913" lon="-1.64587">
        <ele>55.3</ele>
        <time>2016-02-17T12:48:29Z</time>
      </trkpt>
      <trkpt lat="47.26912" lon="-1.64601">
        <ele>55.7</ele>
        <time>2016-02-17T12:48:32Z</time>
      </trkpt>
      <trkpt lat="47.26909" lon="-1.64619">
        <ele>56.3</ele>
        <time>2016-02-17T12:48:36Z</time>
      </trkpt>
      <trkpt lat="47.26909" lon="-1.64634">
        <ele>55.5</ele>
        <time>2016-02-17T12:48:39Z</time>
      </trkpt>
      <trkpt lat="47.26905" lon="-1.64651">
        <ele>56</ele>
        <time>2016-02-17T12:48:42Z</time>
      </trkpt>
      <trkpt lat="47.26898" lon="-1.64667">
        <ele>56.1</ele>
        <time>2016-02-17T12:48:45Z</time>
      </trkpt>
      <trkpt lat="47.26891" lon="-1.64679">
        <ele>56.3</ele>
        <time>2016-02-17T12:48:47Z</time>
      </trkpt>
      <trkpt lat="47.26886" lon="-1.64695">
        <ele>56.6</ele>
        <time>2016-02-17T12:48:49Z</time>
      </trkpt>
      <trkpt lat="47.26883" lon="-1.64714">
        <ele>56.5</ele>
        <time>2016-02-17T12:48:52Z</time>
      </trkpt>
      <trkpt lat="47.26878" lon="-1.64733">
        <ele>57.1</ele>
        <time>2016-02-17T12:48:55Z</time>
      </trkpt>
      <trkpt lat="47.26874" lon="-1.64745">
        <ele>57.4</ele>
        <time>2016-02-17T12:48:57Z</time>
      </trkpt>
      <trkpt lat="47.26867" lon="-1.64761">
        <ele>57.8</ele>
        <time>2016-02-17T12:49:00Z</time>
      </trkpt>
      <trkpt lat="47.26865" lon="-1.64777">
        <ele>57.3</ele>
        <time>2016-02-17T12:49:04Z</time>
      </trkpt>
      <trkpt lat="47.26858" lon="-1.64804">
        <ele>57.6</ele>
        <time>2016-02-17T12:49:09Z</time>
      </trkpt>
      <trkpt lat="47.26854" lon="-1.64818">
        <ele>57.1</ele>
        <time>2016-02-17T12:49:11Z</time>
      </trkpt>
      <trkpt lat="47.26849" lon="-1.6483">
        <ele>56.7</ele>
        <time>2016-02-17T12:49:13Z</time>
      </trkpt>
      <trkpt lat="47.26844" lon="-1.64843">
        <ele>56</ele>
        <time>2016-02-17T12:49:15Z</time>
      </trkpt>
      <trkpt lat="47.26845" lon="-1.64862">
        <ele>55.4</ele>
        <time>2016-02-17T12:49:18Z</time>
      </trkpt>
      <trkpt lat="47.26847" lon="-1.64876">
        <ele>54.6</ele>
        <time>2016-02-17T12:49:20Z</time>
      </trkpt>
      <trkpt lat="47.26839" lon="-1.64891">
        <ele>54</ele>
        <time>2016-02-17T12:49:23Z</time>
      </trkpt>
      <trkpt lat="47.26831" lon="-1.64897">
        <ele>53.3</ele>
        <time>2016-02-17T12:49:28Z</time>
      </trkpt>
      <trkpt lat="47.26832" lon="-1.64913">
        <ele>50.5</ele>
        <time>2016-02-17T12:50:09Z</time>
      </trkpt>
      <trkpt lat="47.26851" lon="-1.64904">
        <ele>48.6</ele>
        <time>2016-02-17T12:50:25Z</time>
      </trkpt>
      <trkpt lat="47.26857" lon="-1.64894">
        <ele>47.3</ele>
        <time>2016-02-17T12:50:30Z</time>
      </trkpt>
      <trkpt lat="47.26865" lon="-1.64886">
        <ele>44.7</ele>
        <time>2016-02-17T12:50:36Z</time>
      </trkpt>
      <trkpt lat="47.26874" lon="-1.64883">
        <ele>40.1</ele>
        <time>2016-02-17T12:50:59Z</time>
      </trkpt>
      <trkpt lat="47.26884" lon="-1.64887">
        <ele>37.4</ele>
        <time>2016-02-17T12:51:10Z</time>
      </trkpt>
      <trkpt lat="47.26875" lon="-1.64915">
        <ele>36.6</ele>
        <time>2016-02-17T12:51:21Z</time>
      </trkpt>
      <trkpt lat="47.26872" lon="-1.6493">
        <ele>36.6</ele>
        <time>2016-02-17T12:51:26Z</time>
      </trkpt>
      <trkpt lat="47.26865" lon="-1.64942">
        <ele>37.5</ele>
        <time>2016-02-17T12:51:30Z</time>
      </trkpt>
      <trkpt lat="47.26856" lon="-1.64946">
        <ele>38.8</ele>
        <time>2016-02-17T12:51:36Z</time>
      </trkpt>
      <trkpt lat="47.26847" lon="-1.64953">
        <ele>39.6</ele>
        <time>2016-02-17T12:51:42Z</time>
      </trkpt>
      <trkpt lat="47.26841" lon="-1.64963">
        <ele>41</ele>
        <time>2016-02-17T12:51:46Z</time>
      </trkpt>
      <trkpt lat="47.26835" lon="-1.64976">
        <ele>39.5</ele>
        <time>2016-02-17T12:51:52Z</time>
      </trkpt>
      <trkpt lat="47.26829" lon="-1.64986">
        <ele>38.9</ele>
        <time>2016-02-17T12:51:57Z</time>
      </trkpt>
      <trkpt lat="47.2683" lon="-1.64999">
        <ele>41.4</ele>
        <time>2016-02-17T12:52:12Z</time>
      </trkpt>
      <trkpt lat="47.26832" lon="-1.6503">
        <ele>41.7</ele>
        <time>2016-02-17T12:52:40Z</time>
      </trkpt>
      <trkpt lat="47.26833" lon="-1.65043">
        <ele>40.4</ele>
        <time>2016-02-17T12:52:43Z</time>
      </trkpt>
      <trkpt lat="47.26834" lon="-1.65058">
        <ele>39.4</ele>
        <time>2016-02-17T12:52:46Z</time>
      </trkpt>
      <trkpt lat="47.26832" lon="-1.65077">
        <ele>38.6</ele>
        <time>2016-02-17T12:52:49Z</time>
      </trkpt>
      <trkpt lat="47.2683" lon="-1.65093">
        <ele>37.8</ele>
        <time>2016-02-17T12:52:52Z</time>
      </trkpt>
      <trkpt lat="47.26827" lon="-1.65107">
        <ele>38</ele>
        <time>2016-02-17T12:52:55Z</time>
      </trkpt>
      <trkpt lat="47.26821" lon="-1.65121">
        <ele>37.6</ele>
        <time>2016-02-17T12:52:58Z</time>
      </trkpt>
      <trkpt lat="47.26812" lon="-1.65136">
        <ele>37</ele>
        <time>2016-02-17T12:53:01Z</time>
      </trkpt>
      <trkpt lat="47.26805" lon="-1.65144">
        <ele>36.8</ele>
        <time>2016-02-17T12:53:03Z</time>
      </trkpt>
      <trkpt lat="47.26798" lon="-1.65154">
        <ele>37.2</ele>
        <time>2016-02-17T12:53:05Z</time>
      </trkpt>
      <trkpt lat="47.26791" lon="-1.65164">
        <ele>37.4</ele>
        <time>2016-02-17T12:53:07Z</time>
      </trkpt>
      <trkpt lat="47.26782" lon="-1.65173">
        <ele>38.5</ele>
        <time>2016-02-17T12:53:09Z</time>
      </trkpt>
      <trkpt lat="47.26773" lon="-1.65183">
        <ele>39.2</ele>
        <time>2016-02-17T12:53:12Z</time>
      </trkpt>
      <trkpt lat="47.26772" lon="-1.65197">
        <ele>37.5</ele>
        <time>2016-02-17T12:53:16Z</time>
      </trkpt>
      <trkpt lat="47.26777" lon="-1.65228">
        <ele>36.2</ele>
        <time>2016-02-17T12:53:24Z</time>
      </trkpt>
      <trkpt lat="47.26772" lon="-1.65244">
        <ele>36.5</ele>
        <time>2016-02-17T12:53:28Z</time>
      </trkpt>
      <trkpt lat="47.26767" lon="-1.65254">
        <ele>36.8</ele>
        <time>2016-02-17T12:53:31Z</time>
      </trkpt>
      <trkpt lat="47.26762" lon="-1.65266">
        <ele>37.5</ele>
        <time>2016-02-17T12:53:35Z</time>
      </trkpt>
      <trkpt lat="47.26761" lon="-1.6528">
        <ele>38.1</ele>
        <time>2016-02-17T12:53:39Z</time>
      </trkpt>
      <trkpt lat="47.2676" lon="-1.65295">
        <ele>38.9</ele>
        <time>2016-02-17T12:53:44Z</time>
      </trkpt>
      <trkpt lat="47.2676" lon="-1.6531">
        <ele>39.5</ele>
        <time>2016-02-17T12:53:50Z</time>
      </trkpt>
      <trkpt lat="47.26757" lon="-1.65324">
        <ele>41.2</ele>
        <time>2016-02-17T12:53:56Z</time>
      </trkpt>
      <trkpt lat="47.26752" lon="-1.65336">
        <ele>43</ele>
        <time>2016-02-17T12:54:03Z</time>
      </trkpt>
      <trkpt lat="47.26746" lon="-1.65348">
        <ele>44.5</ele>
        <time>2016-02-17T12:54:09Z</time>
      </trkpt>
      <trkpt lat="47.2675" lon="-1.65362">
        <ele>44.7</ele>
        <time>2016-02-17T12:54:15Z</time>
      </trkpt>
      <trkpt lat="47.26754" lon="-1.65379">
        <ele>43.8</ele>
        <time>2016-02-17T12:54:19Z</time>
      </trkpt>
      <trkpt lat="47.26757" lon="-1.65407">
        <ele>42.5</ele>
        <time>2016-02-17T12:54:25Z</time>
      </trkpt>
      <trkpt lat="47.26756" lon="-1.65423">
        <ele>42.7</ele>
        <time>2016-02-17T12:54:28Z</time>
      </trkpt>
      <trkpt lat="47.26757" lon="-1.65437">
        <ele>43</ele>
        <time>2016-02-17T12:54:32Z</time>
      </trkpt>
      <trkpt lat="47.26759" lon="-1.65451">
        <ele>42.9</ele>
        <time>2016-02-17T12:54:36Z</time>
      </trkpt>
      <trkpt lat="47.26764" lon="-1.65466">
        <ele>42.8</ele>
        <time>2016-02-17T12:54:40Z</time>
      </trkpt>
      <trkpt lat="47.26768" lon="-1.65482">
        <ele>43</ele>
        <time>2016-02-17T12:54:43Z</time>
      </trkpt>
      <trkpt lat="47.26769" lon="-1.65498">
        <ele>43.3</ele>
        <time>2016-02-17T12:54:46Z</time>
      </trkpt>
      <trkpt lat="47.2677" lon="-1.65515">
        <ele>43</ele>
        <time>2016-02-17T12:54:50Z</time>
      </trkpt>
      <trkpt lat="47.26777" lon="-1.65525">
        <ele>43</ele>
        <time>2016-02-17T12:54:55Z</time>
      </trkpt>
      <trkpt lat="47.26789" lon="-1.65527">
        <ele>41.7</ele>
        <time>2016-02-17T12:54:58Z</time>
      </trkpt>
      <trkpt lat="47.268" lon="-1.65527">
        <ele>41.3</ele>
        <time>2016-02-17T12:55:02Z</time>
      </trkpt>
      <trkpt lat="47.2681" lon="-1.65528">
        <ele>39.9</ele>
        <time>2016-02-17T12:55:05Z</time>
      </trkpt>
      <trkpt lat="47.26821" lon="-1.65528">
        <ele>39.1</ele>
        <time>2016-02-17T12:55:07Z</time>
      </trkpt>
      <trkpt lat="47.26832" lon="-1.6553">
        <ele>39.1</ele>
        <time>2016-02-17T12:55:10Z</time>
      </trkpt>
      <trkpt lat="47.26842" lon="-1.65529">
        <ele>38</ele>
        <time>2016-02-17T12:55:15Z</time>
      </trkpt>
      <trkpt lat="47.26847" lon="-1.65542">
        <ele>37.6</ele>
        <time>2016-02-17T12:55:24Z</time>
      </trkpt>
      <trkpt lat="47.26859" lon="-1.65566">
        <ele>38.2</ele>
        <time>2016-02-17T12:55:39Z</time>
      </trkpt>
      <trkpt lat="47.26868" lon="-1.65575">
        <ele>38.6</ele>
        <time>2016-02-17T12:55:42Z</time>
      </trkpt>
      <trkpt lat="47.26874" lon="-1.65585">
        <ele>39.2</ele>
        <time>2016-02-17T12:55:46Z</time>
      </trkpt>
      <trkpt lat="47.26882" lon="-1.6559">
        <ele>40.1</ele>
        <time>2016-02-17T12:55:51Z</time>
      </trkpt>
      <trkpt lat="47.26891" lon="-1.65598">
        <ele>41.2</ele>
        <time>2016-02-17T12:55:58Z</time>
      </trkpt>
      <trkpt lat="47.26897" lon="-1.65608">
        <ele>41.9</ele>
        <time>2016-02-17T12:56:07Z</time>
      </trkpt>
      <trkpt lat="47.26907" lon="-1.65615">
        <ele>43.7</ele>
        <time>2016-02-17T12:56:12Z</time>
      </trkpt>
      <trkpt lat="47.26917" lon="-1.65618">
        <ele>45.4</ele>
        <time>2016-02-17T12:56:15Z</time>
      </trkpt>
      <trkpt lat="47.26926" lon="-1.65616">
        <ele>47.1</ele>
        <time>2016-02-17T12:56:26Z</time>
      </trkpt>
      <trkpt lat="47.26946" lon="-1.65622">
        <ele>49.3</ele>
        <time>2016-02-17T12:57:01Z</time>
      </trkpt>
      <trkpt lat="47.26954" lon="-1.65629">
        <ele>51.5</ele>
        <time>2016-02-17T12:57:08Z</time>
      </trkpt>
      <trkpt lat="47.26964" lon="-1.65634">
        <ele>52.7</ele>
        <time>2016-02-17T12:57:13Z</time>
      </trkpt>
      <trkpt lat="47.26974" lon="-1.65636">
        <ele>53.3</ele>
        <time>2016-02-17T12:57:17Z</time>
      </trkpt>
      <trkpt lat="47.26984" lon="-1.6564">
        <ele>54</ele>
        <time>2016-02-17T12:57:23Z</time>
      </trkpt>
      <trkpt lat="47.26993" lon="-1.65642">
        <ele>54.7</ele>
        <time>2016-02-17T12:57:28Z</time>
      </trkpt>
      <trkpt lat="47.27014" lon="-1.65642">
        <ele>56.7</ele>
        <time>2016-02-17T12:57:39Z</time>
      </trkpt>
      <trkpt lat="47.27024" lon="-1.65642">
        <ele>57.5</ele>
        <time>2016-02-17T12:57:45Z</time>
      </trkpt>
      <trkpt lat="47.27032" lon="-1.65649">
        <ele>57.4</ele>
        <time>2016-02-17T12:57:50Z</time>
      </trkpt>
      <trkpt lat="47.27036" lon="-1.65662">
        <ele>57.7</ele>
        <time>2016-02-17T12:57:54Z</time>
      </trkpt>
      <trkpt lat="47.2704" lon="-1.65676">
        <ele>55.8</ele>
        <time>2016-02-17T12:57:57Z</time>
      </trkpt>
      <trkpt lat="47.27043" lon="-1.65692">
        <ele>54.1</ele>
        <time>2016-02-17T12:58:00Z</time>
      </trkpt>
      <trkpt lat="47.27045" lon="-1.65708">
        <ele>53</ele>
        <time>2016-02-17T12:58:03Z</time>
      </trkpt>
      <trkpt lat="47.27044" lon="-1.65721">
        <ele>42.1</ele>
        <time>2016-02-17T12:58:07Z</time>
      </trkpt>
      <trkpt lat="47.27049" lon="-1.6571">
        <ele>52.4</ele>
        <time>2016-02-17T12:58:47Z</time>
      </trkpt>
      <trkpt lat="47.27038" lon="-1.65736">
        <ele>53.1</ele>
        <time>2016-02-17T12:59:12Z</time>
      </trkpt>
      <trkpt lat="47.2703" lon="-1.65741">
        <ele>53.2</ele>
        <time>2016-02-17T12:59:15Z</time>
      </trkpt>
      <trkpt lat="47.27019" lon="-1.65743">
        <ele>52.7</ele>
        <time>2016-02-17T12:59:19Z</time>
      </trkpt>
      <trkpt lat="47.27008" lon="-1.65742">
        <ele>53.3</ele>
        <time>2016-02-17T12:59:25Z</time>
      </trkpt>
      <trkpt lat="47.26998" lon="-1.65739">
        <ele>53.5</ele>
        <time>2016-02-17T12:59:31Z</time>
      </trkpt>
      <trkpt lat="47.26989" lon="-1.65735">
        <ele>53.6</ele>
        <time>2016-02-17T12:59:36Z</time>
      </trkpt>
      <trkpt lat="47.2698" lon="-1.65729">
        <ele>53.9</ele>
        <time>2016-02-17T12:59:40Z</time>
      </trkpt>
      <trkpt lat="47.26971" lon="-1.65719">
        <ele>53.4</ele>
        <time>2016-02-17T12:59:42Z</time>
      </trkpt>
      <trkpt lat="47.26961" lon="-1.65713">
        <ele>53.2</ele>
        <time>2016-02-17T12:59:45Z</time>
      </trkpt>
      <trkpt lat="47.2695" lon="-1.65712">
        <ele>52.9</ele>
        <time>2016-02-17T12:59:49Z</time>
      </trkpt>
      <trkpt lat="47.26933" lon="-1.65717">
        <ele>53.6</ele>
        <time>2016-02-17T12:59:59Z</time>
      </trkpt>
      <trkpt lat="47.26924" lon="-1.65718">
        <ele>53.1</ele>
        <time>2016-02-17T13:00:03Z</time>
      </trkpt>
      <trkpt lat="47.26915" lon="-1.65717">
        <ele>52.3</ele>
        <time>2016-02-17T13:00:06Z</time>
      </trkpt>
      <trkpt lat="47.26906" lon="-1.65702">
        <ele>51</ele>
        <time>2016-02-17T13:00:10Z</time>
      </trkpt>
      <trkpt lat="47.26901" lon="-1.65691">
        <ele>50</ele>
        <time>2016-02-17T13:00:13Z</time>
      </trkpt>
      <trkpt lat="47.26898" lon="-1.65677">
        <ele>47.7</ele>
        <time>2016-02-17T13:00:18Z</time>
      </trkpt>
      <trkpt lat="47.26889" lon="-1.6568">
        <ele>43.7</ele>
        <time>2016-02-17T13:00:31Z</time>
      </trkpt>
      <trkpt lat="47.26883" lon="-1.65691">
        <ele>46.2</ele>
        <time>2016-02-17T13:00:37Z</time>
      </trkpt>
      <trkpt lat="47.26878" lon="-1.65704">
        <ele>46.8</ele>
        <time>2016-02-17T13:00:44Z</time>
      </trkpt>
      <trkpt lat="47.26875" lon="-1.65717">
        <ele>46.9</ele>
        <time>2016-02-17T13:00:49Z</time>
      </trkpt>
      <trkpt lat="47.26878" lon="-1.65731">
        <ele>48.4</ele>
        <time>2016-02-17T13:00:56Z</time>
      </trkpt>
      <trkpt lat="47.26886" lon="-1.65756">
        <ele>51.1</ele>
        <time>2016-02-17T13:01:12Z</time>
      </trkpt>
      <trkpt lat="47.2689" lon="-1.6577">
        <ele>51.4</ele>
        <time>2016-02-17T13:01:17Z</time>
      </trkpt>
      <trkpt lat="47.26893" lon="-1.65784">
        <ele>51.6</ele>
        <time>2016-02-17T13:01:23Z</time>
      </trkpt>
      <trkpt lat="47.26895" lon="-1.65798">
        <ele>52.2</ele>
        <time>2016-02-17T13:01:29Z</time>
      </trkpt>
      <trkpt lat="47.26896" lon="-1.65813">
        <ele>53.2</ele>
        <time>2016-02-17T13:01:36Z</time>
      </trkpt>
      <trkpt lat="47.26897" lon="-1.65828">
        <ele>53.6</ele>
        <time>2016-02-17T13:01:41Z</time>
      </trkpt>
      <trkpt lat="47.26899" lon="-1.65844">
        <ele>53.9</ele>
        <time>2016-02-17T13:01:44Z</time>
      </trkpt>
      <trkpt lat="47.26892" lon="-1.65858">
        <ele>53.7</ele>
        <time>2016-02-17T13:01:48Z</time>
      </trkpt>
      <trkpt lat="47.26884" lon="-1.65866">
        <ele>53.3</ele>
        <time>2016-02-17T13:01:51Z</time>
      </trkpt>
      <trkpt lat="47.26874" lon="-1.65875">
        <ele>53</ele>
        <time>2016-02-17T13:01:54Z</time>
      </trkpt>
      <trkpt lat="47.26864" lon="-1.65881">
        <ele>53</ele>
        <time>2016-02-17T13:01:57Z</time>
      </trkpt>
      <trkpt lat="47.26845" lon="-1.65891">
        <ele>54.4</ele>
        <time>2016-02-17T13:02:06Z</time>
      </trkpt>
      <trkpt lat="47.26836" lon="-1.65894">
        <ele>55</ele>
        <time>2016-02-17T13:02:11Z</time>
      </trkpt>
      <trkpt lat="47.26825" lon="-1.65895">
        <ele>55.9</ele>
        <time>2016-02-17T13:02:15Z</time>
      </trkpt>
      <trkpt lat="47.26816" lon="-1.65898">
        <ele>57</ele>
        <time>2016-02-17T13:02:19Z</time>
      </trkpt>
      <trkpt lat="47.26807" lon="-1.65903">
        <ele>58.1</ele>
        <time>2016-02-17T13:02:25Z</time>
      </trkpt>
      <trkpt lat="47.26798" lon="-1.65904">
        <ele>58.6</ele>
        <time>2016-02-17T13:02:29Z</time>
      </trkpt>
      <trkpt lat="47.26787" lon="-1.65906">
        <ele>58.9</ele>
        <time>2016-02-17T13:02:35Z</time>
      </trkpt>
      <trkpt lat="47.26777" lon="-1.65909">
        <ele>59.6</ele>
        <time>2016-02-17T13:02:40Z</time>
      </trkpt>
      <trkpt lat="47.26767" lon="-1.6591">
        <ele>59.5</ele>
        <time>2016-02-17T13:02:44Z</time>
      </trkpt>
      <trkpt lat="47.26754" lon="-1.6591">
        <ele>59.4</ele>
        <time>2016-02-17T13:02:47Z</time>
      </trkpt>
      <trkpt lat="47.26744" lon="-1.65908">
        <ele>58.5</ele>
        <time>2016-02-17T13:02:51Z</time>
      </trkpt>
      <trkpt lat="47.26734" lon="-1.65905">
        <ele>58.9</ele>
        <time>2016-02-17T13:02:54Z</time>
      </trkpt>
      <trkpt lat="47.26721" lon="-1.65903">
        <ele>58.5</ele>
        <time>2016-02-17T13:02:57Z</time>
      </trkpt>
      <trkpt lat="47.26709" lon="-1.65904">
        <ele>58.3</ele>
        <time>2016-02-17T13:03:00Z</time>
      </trkpt>
      <trkpt lat="47.2669" lon="-1.65911">
        <ele>57.9</ele>
        <time>2016-02-17T13:03:04Z</time>
      </trkpt>
      <trkpt lat="47.26681" lon="-1.65915">
        <ele>57.5</ele>
        <time>2016-02-17T13:03:06Z</time>
      </trkpt>
      <trkpt lat="47.26671" lon="-1.65921">
        <ele>57.3</ele>
        <time>2016-02-17T13:03:08Z</time>
      </trkpt>
      <trkpt lat="47.26662" lon="-1.65925">
        <ele>56.7</ele>
        <time>2016-02-17T13:03:10Z</time>
      </trkpt>
      <trkpt lat="47.26653" lon="-1.65927">
        <ele>55.9</ele>
        <time>2016-02-17T13:03:12Z</time>
      </trkpt>
      <trkpt lat="47.26643" lon="-1.6593">
        <ele>55.5</ele>
        <time>2016-02-17T13:03:14Z</time>
      </trkpt>
      <trkpt lat="47.26632" lon="-1.65934">
        <ele>54.9</ele>
        <time>2016-02-17T13:03:16Z</time>
      </trkpt>
      <trkpt lat="47.26619" lon="-1.65935">
        <ele>53.5</ele>
        <time>2016-02-17T13:03:18Z</time>
      </trkpt>
      <trkpt lat="47.26607" lon="-1.65939">
        <ele>52.2</ele>
        <time>2016-02-17T13:03:20Z</time>
      </trkpt>
      <trkpt lat="47.26595" lon="-1.65944">
        <ele>51.5</ele>
        <time>2016-02-17T13:03:22Z</time>
      </trkpt>
      <trkpt lat="47.26584" lon="-1.65949">
        <ele>50.2</ele>
        <time>2016-02-17T13:03:24Z</time>
      </trkpt>
      <trkpt lat="47.2657" lon="-1.65954">
        <ele>47.6</ele>
        <time>2016-02-17T13:03:27Z</time>
      </trkpt>
      <trkpt lat="47.26559" lon="-1.65957">
        <ele>45.7</ele>
        <time>2016-02-17T13:03:29Z</time>
      </trkpt>
      <trkpt lat="47.26549" lon="-1.6596">
        <ele>43.8</ele>
        <time>2016-02-17T13:03:31Z</time>
      </trkpt>
      <trkpt lat="47.26541" lon="-1.65967">
        <ele>42.8</ele>
        <time>2016-02-17T13:03:33Z</time>
      </trkpt>
      <trkpt lat="47.26536" lon="-1.65982">
        <ele>42.6</ele>
        <time>2016-02-17T13:03:37Z</time>
      </trkpt>
      <trkpt lat="47.26534" lon="-1.65999">
        <ele>42.7</ele>
        <time>2016-02-17T13:03:41Z</time>
      </trkpt>
      <trkpt lat="47.26535" lon="-1.66013">
        <ele>42.9</ele>
        <time>2016-02-17T13:03:45Z</time>
      </trkpt>
      <trkpt lat="47.26538" lon="-1.66027">
        <ele>42.7</ele>
        <time>2016-02-17T13:03:49Z</time>
      </trkpt>
      <trkpt lat="47.26548" lon="-1.66035">
        <ele>41.9</ele>
        <time>2016-02-17T13:03:53Z</time>
      </trkpt>
      <trkpt lat="47.26559" lon="-1.66038">
        <ele>41.6</ele>
        <time>2016-02-17T13:03:56Z</time>
      </trkpt>
      <trkpt lat="47.26568" lon="-1.66039">
        <ele>41.4</ele>
        <time>2016-02-17T13:03:59Z</time>
      </trkpt>
      <trkpt lat="47.26577" lon="-1.66044">
        <ele>42.1</ele>
        <time>2016-02-17T13:04:02Z</time>
      </trkpt>
      <trkpt lat="47.26599" lon="-1.66055">
        <ele>42.2</ele>
        <time>2016-02-17T13:04:09Z</time>
      </trkpt>
      <trkpt lat="47.2661" lon="-1.6606">
        <ele>42.6</ele>
        <time>2016-02-17T13:04:13Z</time>
      </trkpt>
      <trkpt lat="47.26619" lon="-1.66069">
        <ele>42.7</ele>
        <time>2016-02-17T13:04:17Z</time>
      </trkpt>
      <trkpt lat="47.26628" lon="-1.66081">
        <ele>42.8</ele>
        <time>2016-02-17T13:04:19Z</time>
      </trkpt>
      <trkpt lat="47.26634" lon="-1.66093">
        <ele>42.5</ele>
        <time>2016-02-17T13:04:22Z</time>
      </trkpt>
      <trkpt lat="47.26641" lon="-1.66105">
        <ele>42.7</ele>
        <time>2016-02-17T13:04:26Z</time>
      </trkpt>
      <trkpt lat="47.26644" lon="-1.66118">
        <ele>42.9</ele>
        <time>2016-02-17T13:04:29Z</time>
      </trkpt>
      <trkpt lat="47.26647" lon="-1.66133">
        <ele>43.2</ele>
        <time>2016-02-17T13:04:33Z</time>
      </trkpt>
      <trkpt lat="47.26654" lon="-1.66142">
        <ele>43.3</ele>
        <time>2016-02-17T13:04:39Z</time>
      </trkpt>
      <trkpt lat="47.26661" lon="-1.66151">
        <ele>46.9</ele>
        <time>2016-02-17T13:04:47Z</time>
      </trkpt>
      <trkpt lat="47.26666" lon="-1.66167">
        <ele>48.6</ele>
        <time>2016-02-17T13:04:53Z</time>
      </trkpt>
      <trkpt lat="47.26671" lon="-1.66182">
        <ele>49.6</ele>
        <time>2016-02-17T13:04:57Z</time>
      </trkpt>
      <trkpt lat="47.26674" lon="-1.66196">
        <ele>50.4</ele>
        <time>2016-02-17T13:05:03Z</time>
      </trkpt>
      <trkpt lat="47.26679" lon="-1.66223">
        <ele>51</ele>
        <time>2016-02-17T13:05:15Z</time>
      </trkpt>
      <trkpt lat="47.26682" lon="-1.66236">
        <ele>51.7</ele>
        <time>2016-02-17T13:05:21Z</time>
      </trkpt>
      <trkpt lat="47.26684" lon="-1.6625">
        <ele>52.9</ele>
        <time>2016-02-17T13:05:26Z</time>
      </trkpt>
      <trkpt lat="47.26694" lon="-1.66255">
        <ele>54.6</ele>
        <time>2016-02-17T13:05:33Z</time>
      </trkpt>
      <trkpt lat="47.26703" lon="-1.66259">
        <ele>56</ele>
        <time>2016-02-17T13:05:41Z</time>
      </trkpt>
      <trkpt lat="47.26712" lon="-1.66263">
        <ele>57.2</ele>
        <time>2016-02-17T13:05:48Z</time>
      </trkpt>
      <trkpt lat="47.26721" lon="-1.66266">
        <ele>58.2</ele>
        <time>2016-02-17T13:05:55Z</time>
      </trkpt>
      <trkpt lat="47.26729" lon="-1.66272">
        <ele>59.2</ele>
        <time>2016-02-17T13:06:00Z</time>
      </trkpt>
      <trkpt lat="47.26736" lon="-1.66283">
        <ele>60.1</ele>
        <time>2016-02-17T13:06:04Z</time>
      </trkpt>
      <trkpt lat="47.26745" lon="-1.6631">
        <ele>61.1</ele>
        <time>2016-02-17T13:06:16Z</time>
      </trkpt>
      <trkpt lat="47.26753" lon="-1.66315">
        <ele>61.7</ele>
        <time>2016-02-17T13:06:24Z</time>
      </trkpt>
      <trkpt lat="47.26762" lon="-1.6632">
        <ele>62.1</ele>
        <time>2016-02-17T13:06:29Z</time>
      </trkpt>
      <trkpt lat="47.26771" lon="-1.66325">
        <ele>62.4</ele>
        <time>2016-02-17T13:06:35Z</time>
      </trkpt>
      <trkpt lat="47.2678" lon="-1.66326">
        <ele>63.3</ele>
        <time>2016-02-17T13:06:41Z</time>
      </trkpt>
      <trkpt lat="47.26789" lon="-1.66333">
        <ele>64.2</ele>
        <time>2016-02-17T13:06:47Z</time>
      </trkpt>
      <trkpt lat="47.26798" lon="-1.66336">
        <ele>65.3</ele>
        <time>2016-02-17T13:06:53Z</time>
      </trkpt>
      <trkpt lat="47.26808" lon="-1.6634">
        <ele>66</ele>
        <time>2016-02-17T13:06:57Z</time>
      </trkpt>
      <trkpt lat="47.26818" lon="-1.66345">
        <ele>66.4</ele>
        <time>2016-02-17T13:07:01Z</time>
      </trkpt>
      <trkpt lat="47.26827" lon="-1.66349">
        <ele>67.1</ele>
        <time>2016-02-17T13:07:05Z</time>
      </trkpt>
      <trkpt lat="47.26848" lon="-1.66356">
        <ele>68.2</ele>
        <time>2016-02-17T13:07:16Z</time>
      </trkpt>
      <trkpt lat="47.26858" lon="-1.66359">
        <ele>68.4</ele>
        <time>2016-02-17T13:07:21Z</time>
      </trkpt>
      <trkpt lat="47.26867" lon="-1.66364">
        <ele>69</ele>
        <time>2016-02-17T13:07:26Z</time>
      </trkpt>
      <trkpt lat="47.26875" lon="-1.66376">
        <ele>69.3</ele>
        <time>2016-02-17T13:07:30Z</time>
      </trkpt>
      <trkpt lat="47.26884" lon="-1.66387">
        <ele>69.1</ele>
        <time>2016-02-17T13:07:33Z</time>
      </trkpt>
      <trkpt lat="47.26892" lon="-1.66398">
        <ele>69.4</ele>
        <time>2016-02-17T13:07:36Z</time>
      </trkpt>
      <trkpt lat="47.26898" lon="-1.66415">
        <ele>69.3</ele>
        <time>2016-02-17T13:07:39Z</time>
      </trkpt>
      <trkpt lat="47.26902" lon="-1.66432">
        <ele>69.4</ele>
        <time>2016-02-17T13:07:42Z</time>
      </trkpt>
      <trkpt lat="47.26904" lon="-1.66448">
        <ele>69.2</ele>
        <time>2016-02-17T13:07:45Z</time>
      </trkpt>
      <trkpt lat="47.26905" lon="-1.66466">
        <ele>69.3</ele>
        <time>2016-02-17T13:07:48Z</time>
      </trkpt>
      <trkpt lat="47.26907" lon="-1.66482">
        <ele>68.9</ele>
        <time>2016-02-17T13:07:51Z</time>
      </trkpt>
      <trkpt lat="47.26912" lon="-1.66495">
        <ele>68.5</ele>
        <time>2016-02-17T13:07:54Z</time>
      </trkpt>
      <trkpt lat="47.26919" lon="-1.66505">
        <ele>68.4</ele>
        <time>2016-02-17T13:07:57Z</time>
      </trkpt>
      <trkpt lat="47.26931" lon="-1.66507">
        <ele>68.5</ele>
        <time>2016-02-17T13:08:01Z</time>
      </trkpt>
      <trkpt lat="47.26942" lon="-1.66507">
        <ele>68.4</ele>
        <time>2016-02-17T13:08:04Z</time>
      </trkpt>
      <trkpt lat="47.26953" lon="-1.66507">
        <ele>68.6</ele>
        <time>2016-02-17T13:08:07Z</time>
      </trkpt>
      <trkpt lat="47.26976" lon="-1.66505">
        <ele>68.5</ele>
        <time>2016-02-17T13:08:13Z</time>
      </trkpt>
      <trkpt lat="47.26988" lon="-1.66504">
        <ele>68.7</ele>
        <time>2016-02-17T13:08:16Z</time>
      </trkpt>
      <trkpt lat="47.26999" lon="-1.66503">
        <ele>68.7</ele>
        <time>2016-02-17T13:08:19Z</time>
      </trkpt>
      <trkpt lat="47.27011" lon="-1.66503">
        <ele>69.1</ele>
        <time>2016-02-17T13:08:22Z</time>
      </trkpt>
      <trkpt lat="47.27021" lon="-1.66503">
        <ele>69.4</ele>
        <time>2016-02-17T13:08:25Z</time>
      </trkpt>
      <trkpt lat="47.27032" lon="-1.66504">
        <ele>70.3</ele>
        <time>2016-02-17T13:08:28Z</time>
      </trkpt>
      <trkpt lat="47.27042" lon="-1.6651">
        <ele>70.6</ele>
        <time>2016-02-17T13:08:31Z</time>
      </trkpt>
      <trkpt lat="47.27051" lon="-1.66516">
        <ele>71</ele>
        <time>2016-02-17T13:08:34Z</time>
      </trkpt>
      <trkpt lat="47.27062" lon="-1.66522">
        <ele>70.7</ele>
        <time>2016-02-17T13:08:37Z</time>
      </trkpt>
      <trkpt lat="47.27073" lon="-1.66529">
        <ele>71</ele>
        <time>2016-02-17T13:08:40Z</time>
      </trkpt>
      <trkpt lat="47.27085" lon="-1.66535">
        <ele>71.1</ele>
        <time>2016-02-17T13:08:43Z</time>
      </trkpt>
      <trkpt lat="47.27098" lon="-1.66542">
        <ele>71.2</ele>
        <time>2016-02-17T13:08:46Z</time>
      </trkpt>
      <trkpt lat="47.2711" lon="-1.66549">
        <ele>70.8</ele>
        <time>2016-02-17T13:08:49Z</time>
      </trkpt>
      <trkpt lat="47.27122" lon="-1.66558">
        <ele>71.1</ele>
        <time>2016-02-17T13:08:52Z</time>
      </trkpt>
      <trkpt lat="47.27133" lon="-1.6657">
        <ele>71.9</ele>
        <time>2016-02-17T13:08:55Z</time>
      </trkpt>
      <trkpt lat="47.27143" lon="-1.6658">
        <ele>72.4</ele>
        <time>2016-02-17T13:08:58Z</time>
      </trkpt>
      <trkpt lat="47.27154" lon="-1.66587">
        <ele>72.7</ele>
        <time>2016-02-17T13:09:01Z</time>
      </trkpt>
      <trkpt lat="47.27165" lon="-1.66592">
        <ele>73.2</ele>
        <time>2016-02-17T13:09:04Z</time>
      </trkpt>
      <trkpt lat="47.27176" lon="-1.66599">
        <ele>73.8</ele>
        <time>2016-02-17T13:09:07Z</time>
      </trkpt>
      <trkpt lat="47.27187" lon="-1.66605">
        <ele>73.8</ele>
        <time>2016-02-17T13:09:10Z</time>
      </trkpt>
      <trkpt lat="47.27208" lon="-1.66613">
        <ele>74.9</ele>
        <time>2016-02-17T13:09:16Z</time>
      </trkpt>
      <trkpt lat="47.27219" lon="-1.66615">
        <ele>75.1</ele>
        <time>2016-02-17T13:09:19Z</time>
      </trkpt>
      <trkpt lat="47.2723" lon="-1.66618">
        <ele>75.7</ele>
        <time>2016-02-17T13:09:22Z</time>
      </trkpt>
      <trkpt lat="47.27241" lon="-1.6662">
        <ele>76</ele>
        <time>2016-02-17T13:09:25Z</time>
      </trkpt>
      <trkpt lat="47.27251" lon="-1.66623">
        <ele>76.1</ele>
        <time>2016-02-17T13:09:28Z</time>
      </trkpt>
      <trkpt lat="47.27262" lon="-1.66627">
        <ele>76.4</ele>
        <time>2016-02-17T13:09:31Z</time>
      </trkpt>
      <trkpt lat="47.27272" lon="-1.66631">
        <ele>76.5</ele>
        <time>2016-02-17T13:09:33Z</time>
      </trkpt>
      <trkpt lat="47.27284" lon="-1.66634">
        <ele>77</ele>
        <time>2016-02-17T13:09:36Z</time>
      </trkpt>
      <trkpt lat="47.27296" lon="-1.66636">
        <ele>77.2</ele>
        <time>2016-02-17T13:09:39Z</time>
      </trkpt>
      <trkpt lat="47.27306" lon="-1.66638">
        <ele>77</ele>
        <time>2016-02-17T13:09:42Z</time>
      </trkpt>
      <trkpt lat="47.27315" lon="-1.66646">
        <ele>77.7</ele>
        <time>2016-02-17T13:09:45Z</time>
      </trkpt>
      <trkpt lat="47.27323" lon="-1.66661">
        <ele>77.2</ele>
        <time>2016-02-17T13:09:48Z</time>
      </trkpt>
      <trkpt lat="47.27329" lon="-1.66672">
        <ele>77.3</ele>
        <time>2016-02-17T13:09:50Z</time>
      </trkpt>
      <trkpt lat="47.27335" lon="-1.66682">
        <ele>77.1</ele>
        <time>2016-02-17T13:09:52Z</time>
      </trkpt>
      <trkpt lat="47.27342" lon="-1.66692">
        <ele>77.2</ele>
        <time>2016-02-17T13:09:54Z</time>
      </trkpt>
      <trkpt lat="47.27349" lon="-1.66702">
        <ele>77.3</ele>
        <time>2016-02-17T13:09:56Z</time>
      </trkpt>
      <trkpt lat="47.27357" lon="-1.66711">
        <ele>77.2</ele>
        <time>2016-02-17T13:09:58Z</time>
      </trkpt>
      <trkpt lat="47.27364" lon="-1.6672">
        <ele>77</ele>
        <time>2016-02-17T13:10:00Z</time>
      </trkpt>
      <trkpt lat="47.27372" lon="-1.66731">
        <ele>76.9</ele>
        <time>2016-02-17T13:10:02Z</time>
      </trkpt>
      <trkpt lat="47.2738" lon="-1.66741">
        <ele>76.7</ele>
        <time>2016-02-17T13:10:04Z</time>
      </trkpt>
      <trkpt lat="47.2739" lon="-1.66754">
        <ele>76.4</ele>
        <time>2016-02-17T13:10:07Z</time>
      </trkpt>
      <trkpt lat="47.27399" lon="-1.66765">
        <ele>76.3</ele>
        <time>2016-02-17T13:10:10Z</time>
      </trkpt>
      <trkpt lat="47.27405" lon="-1.66775">
        <ele>76.2</ele>
        <time>2016-02-17T13:10:12Z</time>
      </trkpt>
      <trkpt lat="47.27417" lon="-1.66795">
        <ele>76.4</ele>
        <time>2016-02-17T13:10:16Z</time>
      </trkpt>
      <trkpt lat="47.27424" lon="-1.66811">
        <ele>76.4</ele>
        <time>2016-02-17T13:10:19Z</time>
      </trkpt>
      <trkpt lat="47.27431" lon="-1.66824">
        <ele>76.4</ele>
        <time>2016-02-17T13:10:21Z</time>
      </trkpt>
      <trkpt lat="47.27438" lon="-1.66836">
        <ele>76.5</ele>
        <time>2016-02-17T13:10:23Z</time>
      </trkpt>
      <trkpt lat="47.27445" lon="-1.6685">
        <ele>76.8</ele>
        <time>2016-02-17T13:10:25Z</time>
      </trkpt>
      <trkpt lat="47.2745" lon="-1.66862">
        <ele>76.6</ele>
        <time>2016-02-17T13:10:27Z</time>
      </trkpt>
      <trkpt lat="47.27455" lon="-1.66874">
        <ele>76.6</ele>
        <time>2016-02-17T13:10:29Z</time>
      </trkpt>
      <trkpt lat="47.27461" lon="-1.66886">
        <ele>76.6</ele>
        <time>2016-02-17T13:10:31Z</time>
      </trkpt>
      <trkpt lat="47.27466" lon="-1.66899">
        <ele>76.7</ele>
        <time>2016-02-17T13:10:33Z</time>
      </trkpt>
      <trkpt lat="47.27472" lon="-1.66914">
        <ele>76.6</ele>
        <time>2016-02-17T13:10:35Z</time>
      </trkpt>
      <trkpt lat="47.27477" lon="-1.66928">
        <ele>76.7</ele>
        <time>2016-02-17T13:10:37Z</time>
      </trkpt>
      <trkpt lat="47.27481" lon="-1.66941">
        <ele>76.8</ele>
        <time>2016-02-17T13:10:39Z</time>
      </trkpt>
      <trkpt lat="47.27487" lon="-1.66954">
        <ele>76.7</ele>
        <time>2016-02-17T13:10:41Z</time>
      </trkpt>
      <trkpt lat="47.27492" lon="-1.66967">
        <ele>77</ele>
        <time>2016-02-17T13:10:43Z</time>
      </trkpt>
      <trkpt lat="47.27497" lon="-1.66979">
        <ele>77.1</ele>
        <time>2016-02-17T13:10:45Z</time>
      </trkpt>
      <trkpt lat="47.27501" lon="-1.66992">
        <ele>77</ele>
        <time>2016-02-17T13:10:47Z</time>
      </trkpt>
      <trkpt lat="47.27505" lon="-1.67005">
        <ele>77</ele>
        <time>2016-02-17T13:10:49Z</time>
      </trkpt>
      <trkpt lat="47.27509" lon="-1.67017">
        <ele>77.2</ele>
        <time>2016-02-17T13:10:51Z</time>
      </trkpt>
      <trkpt lat="47.27514" lon="-1.67034">
        <ele>77.4</ele>
        <time>2016-02-17T13:10:54Z</time>
      </trkpt>
      <trkpt lat="47.27519" lon="-1.67048">
        <ele>77.6</ele>
        <time>2016-02-17T13:10:57Z</time>
      </trkpt>
      <trkpt lat="47.27524" lon="-1.67062">
        <ele>78</ele>
        <time>2016-02-17T13:11:00Z</time>
      </trkpt>
      <trkpt lat="47.27528" lon="-1.67078">
        <ele>78.2</ele>
        <time>2016-02-17T13:11:05Z</time>
      </trkpt>
      <trkpt lat="47.27531" lon="-1.67091">
        <ele>78.5</ele>
        <time>2016-02-17T13:11:08Z</time>
      </trkpt>
      <trkpt lat="47.27534" lon="-1.67108">
        <ele>79</ele>
        <time>2016-02-17T13:11:11Z</time>
      </trkpt>
      <trkpt lat="47.27537" lon="-1.67123">
        <ele>79.3</ele>
        <time>2016-02-17T13:11:14Z</time>
      </trkpt>
      <trkpt lat="47.27542" lon="-1.67151">
        <ele>79.9</ele>
        <time>2016-02-17T13:11:20Z</time>
      </trkpt>
      <trkpt lat="47.27544" lon="-1.67166">
        <ele>80.1</ele>
        <time>2016-02-17T13:11:23Z</time>
      </trkpt>
      <trkpt lat="47.27547" lon="-1.67182">
        <ele>80.5</ele>
        <time>2016-02-17T13:11:26Z</time>
      </trkpt>
      <trkpt lat="47.2755" lon="-1.67197">
        <ele>80.6</ele>
        <time>2016-02-17T13:11:29Z</time>
      </trkpt>
      <trkpt lat="47.27553" lon="-1.67213">
        <ele>80.6</ele>
        <time>2016-02-17T13:11:32Z</time>
      </trkpt>
      <trkpt lat="47.27555" lon="-1.67229">
        <ele>80.8</ele>
        <time>2016-02-17T13:11:35Z</time>
      </trkpt>
      <trkpt lat="47.27558" lon="-1.67242">
        <ele>81</ele>
        <time>2016-02-17T13:11:38Z</time>
      </trkpt>
      <trkpt lat="47.27561" lon="-1.67257">
        <ele>81.5</ele>
        <time>2016-02-17T13:11:41Z</time>
      </trkpt>
      <trkpt lat="47.27564" lon="-1.67271">
        <ele>81.6</ele>
        <time>2016-02-17T13:11:44Z</time>
      </trkpt>
      <trkpt lat="47.27568" lon="-1.67286">
        <ele>81.5</ele>
        <time>2016-02-17T13:11:47Z</time>
      </trkpt>
      <trkpt lat="47.27574" lon="-1.67299">
        <ele>81.9</ele>
        <time>2016-02-17T13:11:50Z</time>
      </trkpt>
      <trkpt lat="47.27581" lon="-1.6731">
        <ele>82.3</ele>
        <time>2016-02-17T13:11:53Z</time>
      </trkpt>
      <trkpt lat="47.27589" lon="-1.67321">
        <ele>81.9</ele>
        <time>2016-02-17T13:11:56Z</time>
      </trkpt>
      <trkpt lat="47.27597" lon="-1.67332">
        <ele>82.1</ele>
        <time>2016-02-17T13:11:59Z</time>
      </trkpt>
      <trkpt lat="47.27604" lon="-1.67343">
        <ele>82.4</ele>
        <time>2016-02-17T13:12:02Z</time>
      </trkpt>
      <trkpt lat="47.27612" lon="-1.67354">
        <ele>82.4</ele>
        <time>2016-02-17T13:12:05Z</time>
      </trkpt>
      <trkpt lat="47.27619" lon="-1.67366">
        <ele>82.8</ele>
        <time>2016-02-17T13:12:08Z</time>
      </trkpt>
      <trkpt lat="47.27624" lon="-1.67383">
        <ele>82.4</ele>
        <time>2016-02-17T13:12:11Z</time>
      </trkpt>
      <trkpt lat="47.27617" lon="-1.67395">
        <ele>82.4</ele>
        <time>2016-02-17T13:12:14Z</time>
      </trkpt>
      <trkpt lat="47.27607" lon="-1.67402">
        <ele>82.4</ele>
        <time>2016-02-17T13:12:17Z</time>
      </trkpt>
      <trkpt lat="47.27588" lon="-1.67416">
        <ele>82.4</ele>
        <time>2016-02-17T13:12:25Z</time>
      </trkpt>
      <trkpt lat="47.27578" lon="-1.67423">
        <ele>81.9</ele>
        <time>2016-02-17T13:12:30Z</time>
      </trkpt>
      <trkpt lat="47.27569" lon="-1.6743">
        <ele>81.8</ele>
        <time>2016-02-17T13:12:37Z</time>
      </trkpt>
      <trkpt lat="47.2756" lon="-1.6744">
        <ele>82.1</ele>
        <time>2016-02-17T13:12:41Z</time>
      </trkpt>
      <trkpt lat="47.27552" lon="-1.67447">
        <ele>82.2</ele>
        <time>2016-02-17T13:12:43Z</time>
      </trkpt>
      <trkpt lat="47.27544" lon="-1.67455">
        <ele>82.3</ele>
        <time>2016-02-17T13:12:45Z</time>
      </trkpt>
      <trkpt lat="47.27536" lon="-1.67462">
        <ele>81.9</ele>
        <time>2016-02-17T13:12:47Z</time>
      </trkpt>
      <trkpt lat="47.27527" lon="-1.67469">
        <ele>81.9</ele>
        <time>2016-02-17T13:12:49Z</time>
      </trkpt>
      <trkpt lat="47.27519" lon="-1.67477">
        <ele>81.5</ele>
        <time>2016-02-17T13:12:51Z</time>
      </trkpt>
      <trkpt lat="47.2751" lon="-1.67485">
        <ele>81.2</ele>
        <time>2016-02-17T13:12:53Z</time>
      </trkpt>
      <trkpt lat="47.27502" lon="-1.67493">
        <ele>81.1</ele>
        <time>2016-02-17T13:12:55Z</time>
      </trkpt>
      <trkpt lat="47.27493" lon="-1.675">
        <ele>80.8</ele>
        <time>2016-02-17T13:12:57Z</time>
      </trkpt>
      <trkpt lat="47.27485" lon="-1.67509">
        <ele>80.7</ele>
        <time>2016-02-17T13:12:59Z</time>
      </trkpt>
      <trkpt lat="47.27477" lon="-1.67519">
        <ele>80.7</ele>
        <time>2016-02-17T13:13:01Z</time>
      </trkpt>
      <trkpt lat="47.2747" lon="-1.67529">
        <ele>80.4</ele>
        <time>2016-02-17T13:13:03Z</time>
      </trkpt>
      <trkpt lat="47.27463" lon="-1.67538">
        <ele>80.2</ele>
        <time>2016-02-17T13:13:05Z</time>
      </trkpt>
      <trkpt lat="47.27455" lon="-1.67548">
        <ele>80.2</ele>
        <time>2016-02-17T13:13:07Z</time>
      </trkpt>
      <trkpt lat="47.27447" lon="-1.67557">
        <ele>80</ele>
        <time>2016-02-17T13:13:09Z</time>
      </trkpt>
      <trkpt lat="47.2744" lon="-1.67566">
        <ele>79.5</ele>
        <time>2016-02-17T13:13:11Z</time>
      </trkpt>
      <trkpt lat="47.27433" lon="-1.67574">
        <ele>79.2</ele>
        <time>2016-02-17T13:13:13Z</time>
      </trkpt>
      <trkpt lat="47.27425" lon="-1.67589">
        <ele>78.9</ele>
        <time>2016-02-17T13:13:16Z</time>
      </trkpt>
      <trkpt lat="47.27425" lon="-1.67602">
        <ele>78.7</ele>
        <time>2016-02-17T13:13:18Z</time>
      </trkpt>
      <trkpt lat="47.27435" lon="-1.67629">
        <ele>78.7</ele>
        <time>2016-02-17T13:13:22Z</time>
      </trkpt>
      <trkpt lat="47.27438" lon="-1.67641">
        <ele>78.8</ele>
        <time>2016-02-17T13:13:24Z</time>
      </trkpt>
      <trkpt lat="47.27441" lon="-1.67655">
        <ele>78.7</ele>
        <time>2016-02-17T13:13:26Z</time>
      </trkpt>
      <trkpt lat="47.27442" lon="-1.6767">
        <ele>78.7</ele>
        <time>2016-02-17T13:13:28Z</time>
      </trkpt>
      <trkpt lat="47.27441" lon="-1.67685">
        <ele>79</ele>
        <time>2016-02-17T13:13:30Z</time>
      </trkpt>
      <trkpt lat="47.27442" lon="-1.67699">
        <ele>78.8</ele>
        <time>2016-02-17T13:13:32Z</time>
      </trkpt>
      <trkpt lat="47.27444" lon="-1.67711">
        <ele>79.2</ele>
        <time>2016-02-17T13:13:34Z</time>
      </trkpt>
      <trkpt lat="47.27451" lon="-1.67729">
        <ele>79.6</ele>
        <time>2016-02-17T13:13:37Z</time>
      </trkpt>
      <trkpt lat="47.2746" lon="-1.6774">
        <ele>80.2</ele>
        <time>2016-02-17T13:13:40Z</time>
      </trkpt>
      <trkpt lat="47.27471" lon="-1.67752">
        <ele>80.2</ele>
        <time>2016-02-17T13:13:43Z</time>
      </trkpt>
      <trkpt lat="47.27481" lon="-1.67764">
        <ele>80.2</ele>
        <time>2016-02-17T13:13:46Z</time>
      </trkpt>
      <trkpt lat="47.27489" lon="-1.67782">
        <ele>80.3</ele>
        <time>2016-02-17T13:13:49Z</time>
      </trkpt>
      <trkpt lat="47.27493" lon="-1.67797">
        <ele>80.7</ele>
        <time>2016-02-17T13:13:51Z</time>
      </trkpt>
      <trkpt lat="47.27495" lon="-1.67812">
        <ele>80.7</ele>
        <time>2016-02-17T13:13:53Z</time>
      </trkpt>
      <trkpt lat="47.27497" lon="-1.67827">
        <ele>80.8</ele>
        <time>2016-02-17T13:13:55Z</time>
      </trkpt>
      <trkpt lat="47.27499" lon="-1.67841">
        <ele>80.7</ele>
        <time>2016-02-17T13:13:57Z</time>
      </trkpt>
      <trkpt lat="47.275" lon="-1.67855">
        <ele>80.6</ele>
        <time>2016-02-17T13:13:59Z</time>
      </trkpt>
      <trkpt lat="47.27502" lon="-1.6787">
        <ele>80.5</ele>
        <time>2016-02-17T13:14:01Z</time>
      </trkpt>
      <trkpt lat="47.27503" lon="-1.67886">
        <ele>80.5</ele>
        <time>2016-02-17T13:14:03Z</time>
      </trkpt>
      <trkpt lat="47.27505" lon="-1.67903">
        <ele>80.4</ele>
        <time>2016-02-17T13:14:05Z</time>
      </trkpt>
      <trkpt lat="47.27509" lon="-1.67919">
        <ele>80.3</ele>
        <time>2016-02-17T13:14:07Z</time>
      </trkpt>
      <trkpt lat="47.27516" lon="-1.67934">
        <ele>80.2</ele>
        <time>2016-02-17T13:14:09Z</time>
      </trkpt>
      <trkpt lat="47.27523" lon="-1.67948">
        <ele>79.7</ele>
        <time>2016-02-17T13:14:11Z</time>
      </trkpt>
      <trkpt lat="47.2753" lon="-1.67964">
        <ele>79.2</ele>
        <time>2016-02-17T13:14:13Z</time>
      </trkpt>
      <trkpt lat="47.27538" lon="-1.67978">
        <ele>79.2</ele>
        <time>2016-02-17T13:14:15Z</time>
      </trkpt>
      <trkpt lat="47.27544" lon="-1.67992">
        <ele>78.9</ele>
        <time>2016-02-17T13:14:17Z</time>
      </trkpt>
      <trkpt lat="47.27549" lon="-1.68006">
        <ele>78.8</ele>
        <time>2016-02-17T13:14:19Z</time>
      </trkpt>
      <trkpt lat="47.27555" lon="-1.68038">
        <ele>78.6</ele>
        <time>2016-02-17T13:14:24Z</time>
      </trkpt>
      <trkpt lat="47.27553" lon="-1.68053">
        <ele>78.2</ele>
        <time>2016-02-17T13:14:27Z</time>
      </trkpt>
      <trkpt lat="47.27544" lon="-1.68061">
        <ele>78.3</ele>
        <time>2016-02-17T13:14:30Z</time>
      </trkpt>
      <trkpt lat="47.27533" lon="-1.68064">
        <ele>78.1</ele>
        <time>2016-02-17T13:14:33Z</time>
      </trkpt>
      <trkpt lat="47.27527" lon="-1.68079">
        <ele>77.9</ele>
        <time>2016-02-17T13:14:37Z</time>
      </trkpt>
      <trkpt lat="47.27528" lon="-1.68095">
        <ele>77.5</ele>
        <time>2016-02-17T13:14:40Z</time>
      </trkpt>
      <trkpt lat="47.27526" lon="-1.68114">
        <ele>77.5</ele>
        <time>2016-02-17T13:14:43Z</time>
      </trkpt>
      <trkpt lat="47.27524" lon="-1.68129">
        <ele>77.2</ele>
        <time>2016-02-17T13:14:45Z</time>
      </trkpt>
      <trkpt lat="47.27522" lon="-1.68143">
        <ele>76.6</ele>
        <time>2016-02-17T13:14:47Z</time>
      </trkpt>
      <trkpt lat="47.2752" lon="-1.68156">
        <ele>76.4</ele>
        <time>2016-02-17T13:14:49Z</time>
      </trkpt>
      <trkpt lat="47.27517" lon="-1.68171">
        <ele>76.7</ele>
        <time>2016-02-17T13:14:51Z</time>
      </trkpt>
      <trkpt lat="47.27514" lon="-1.68186">
        <ele>76.8</ele>
        <time>2016-02-17T13:14:53Z</time>
      </trkpt>
      <trkpt lat="47.27512" lon="-1.682">
        <ele>76.6</ele>
        <time>2016-02-17T13:14:55Z</time>
      </trkpt>
      <trkpt lat="47.27512" lon="-1.68215">
        <ele>76</ele>
        <time>2016-02-17T13:14:57Z</time>
      </trkpt>
      <trkpt lat="47.27511" lon="-1.68229">
        <ele>75.8</ele>
        <time>2016-02-17T13:14:59Z</time>
      </trkpt>
      <trkpt lat="47.2751" lon="-1.68243">
        <ele>76</ele>
        <time>2016-02-17T13:15:01Z</time>
      </trkpt>
      <trkpt lat="47.27508" lon="-1.68258">
        <ele>75.8</ele>
        <time>2016-02-17T13:15:03Z</time>
      </trkpt>
      <trkpt lat="47.27508" lon="-1.68272">
        <ele>75.8</ele>
        <time>2016-02-17T13:15:05Z</time>
      </trkpt>
      <trkpt lat="47.27509" lon="-1.68291">
        <ele>76.1</ele>
        <time>2016-02-17T13:15:08Z</time>
      </trkpt>
      <trkpt lat="47.27509" lon="-1.68305">
        <ele>76</ele>
        <time>2016-02-17T13:15:10Z</time>
      </trkpt>
      <trkpt lat="47.27509" lon="-1.6832">
        <ele>75.6</ele>
        <time>2016-02-17T13:15:12Z</time>
      </trkpt>
      <trkpt lat="47.27508" lon="-1.68336">
        <ele>75.5</ele>
        <time>2016-02-17T13:15:14Z</time>
      </trkpt>
      <trkpt lat="47.27507" lon="-1.68351">
        <ele>75</ele>
        <time>2016-02-17T13:15:16Z</time>
      </trkpt>
      <trkpt lat="47.27504" lon="-1.68363">
        <ele>74.6</ele>
        <time>2016-02-17T13:15:18Z</time>
      </trkpt>
      <trkpt lat="47.27496" lon="-1.68374">
        <ele>73.1</ele>
        <time>2016-02-17T13:15:21Z</time>
      </trkpt>
      <trkpt lat="47.27482" lon="-1.68395">
        <ele>63.6</ele>
        <time>2016-02-17T13:15:32Z</time>
      </trkpt>
      <trkpt lat="47.27471" lon="-1.68402">
        <ele>62.2</ele>
        <time>2016-02-17T13:15:40Z</time>
      </trkpt>
      <trkpt lat="47.27463" lon="-1.68408">
        <ele>61.7</ele>
        <time>2016-02-17T13:15:43Z</time>
      </trkpt>
      <trkpt lat="47.27465" lon="-1.68423">
        <ele>59.6</ele>
        <time>2016-02-17T13:15:52Z</time>
      </trkpt>
      <trkpt lat="47.27471" lon="-1.68435">
        <ele>58.8</ele>
        <time>2016-02-17T13:15:57Z</time>
      </trkpt>
      <trkpt lat="47.27473" lon="-1.68449">
        <ele>57.1</ele>
        <time>2016-02-17T13:16:04Z</time>
      </trkpt>
      <trkpt lat="47.27474" lon="-1.68464">
        <ele>55.7</ele>
        <time>2016-02-17T13:16:08Z</time>
      </trkpt>
      <trkpt lat="47.27476" lon="-1.6848">
        <ele>54.3</ele>
        <time>2016-02-17T13:16:12Z</time>
      </trkpt>
      <trkpt lat="47.27476" lon="-1.68494">
        <ele>53.1</ele>
        <time>2016-02-17T13:16:19Z</time>
      </trkpt>
      <trkpt lat="47.27484" lon="-1.68505">
        <ele>53</ele>
        <time>2016-02-17T13:16:25Z</time>
      </trkpt>
      <trkpt lat="47.27501" lon="-1.68528">
        <ele>53</ele>
        <time>2016-02-17T13:16:34Z</time>
      </trkpt>
      <trkpt lat="47.27511" lon="-1.68536">
        <ele>54</ele>
        <time>2016-02-17T13:16:38Z</time>
      </trkpt>
      <trkpt lat="47.27519" lon="-1.68545">
        <ele>53.6</ele>
        <time>2016-02-17T13:16:42Z</time>
      </trkpt>
      <trkpt lat="47.27528" lon="-1.68553">
        <ele>53.9</ele>
        <time>2016-02-17T13:16:45Z</time>
      </trkpt>
      <trkpt lat="47.27537" lon="-1.68559">
        <ele>53.7</ele>
        <time>2016-02-17T13:16:48Z</time>
      </trkpt>
      <trkpt lat="47.27547" lon="-1.68567">
        <ele>53.7</ele>
        <time>2016-02-17T13:16:52Z</time>
      </trkpt>
      <trkpt lat="47.27557" lon="-1.68579">
        <ele>53.4</ele>
        <time>2016-02-17T13:16:55Z</time>
      </trkpt>
      <trkpt lat="47.27565" lon="-1.6859">
        <ele>53.5</ele>
        <time>2016-02-17T13:16:57Z</time>
      </trkpt>
      <trkpt lat="47.27573" lon="-1.68604">
        <ele>53.7</ele>
        <time>2016-02-17T13:17:00Z</time>
      </trkpt>
      <trkpt lat="47.27578" lon="-1.68618">
        <ele>54.2</ele>
        <time>2016-02-17T13:17:03Z</time>
      </trkpt>
      <trkpt lat="47.27584" lon="-1.68631">
        <ele>53.7</ele>
        <time>2016-02-17T13:17:06Z</time>
      </trkpt>
      <trkpt lat="47.2759" lon="-1.68644">
        <ele>53.3</ele>
        <time>2016-02-17T13:17:11Z</time>
      </trkpt>
      <trkpt lat="47.27596" lon="-1.68655">
        <ele>53.5</ele>
        <time>2016-02-17T13:17:15Z</time>
      </trkpt>
      <trkpt lat="47.27604" lon="-1.68663">
        <ele>53.8</ele>
        <time>2016-02-17T13:17:19Z</time>
      </trkpt>
      <trkpt lat="47.27615" lon="-1.68668">
        <ele>54.9</ele>
        <time>2016-02-17T13:17:24Z</time>
      </trkpt>
      <trkpt lat="47.27624" lon="-1.68674">
        <ele>55.4</ele>
        <time>2016-02-17T13:17:41Z</time>
      </trkpt>
      <trkpt lat="47.27641" lon="-1.6867">
        <ele>54.6</ele>
        <time>2016-02-17T13:17:56Z</time>
      </trkpt>
      <trkpt lat="47.2765" lon="-1.68664">
        <ele>55.1</ele>
        <time>2016-02-17T13:18:00Z</time>
      </trkpt>
      <trkpt lat="47.27658" lon="-1.68657">
        <ele>55.4</ele>
        <time>2016-02-17T13:18:05Z</time>
      </trkpt>
      <trkpt lat="47.27667" lon="-1.6865">
        <ele>55.1</ele>
        <time>2016-02-17T13:18:09Z</time>
      </trkpt>
      <trkpt lat="47.27677" lon="-1.68653">
        <ele>54.8</ele>
        <time>2016-02-17T13:18:13Z</time>
      </trkpt>
      <trkpt lat="47.2768" lon="-1.68668">
        <ele>54.8</ele>
        <time>2016-02-17T13:18:20Z</time>
      </trkpt>
      <trkpt lat="47.27684" lon="-1.68682">
        <ele>55.3</ele>
        <time>2016-02-17T13:18:24Z</time>
      </trkpt>
      <trkpt lat="47.27688" lon="-1.68696">
        <ele>55.4</ele>
        <time>2016-02-17T13:18:28Z</time>
      </trkpt>
      <trkpt lat="47.27688" lon="-1.68711">
        <ele>55.4</ele>
        <time>2016-02-17T13:18:32Z</time>
      </trkpt>
      <trkpt lat="47.27698" lon="-1.68711">
        <ele>59.1</ele>
        <time>2016-02-17T13:18:44Z</time>
      </trkpt>
      <trkpt lat="47.27698" lon="-1.68739">
        <ele>64.5</ele>
        <time>2016-02-17T13:19:28Z</time>
      </trkpt>
      <trkpt lat="47.27708" lon="-1.68745">
        <ele>66</ele>
        <time>2016-02-17T13:19:37Z</time>
      </trkpt>
      <trkpt lat="47.27717" lon="-1.68747">
        <ele>66.6</ele>
        <time>2016-02-17T13:19:45Z</time>
      </trkpt>
      <trkpt lat="47.27697" lon="-1.68738">
        <ele>62.1</ele>
        <time>2016-02-17T13:20:01Z</time>
      </trkpt>
      <trkpt lat="47.27688" lon="-1.68737">
        <ele>60.7</ele>
        <time>2016-02-17T13:20:03Z</time>
      </trkpt>
      <trkpt lat="47.27677" lon="-1.68737">
        <ele>60.5</ele>
        <time>2016-02-17T13:20:06Z</time>
      </trkpt>
      <trkpt lat="47.27679" lon="-1.6875">
        <ele>63.6</ele>
        <time>2016-02-17T13:20:19Z</time>
      </trkpt>
      <trkpt lat="47.27688" lon="-1.68747">
        <ele>64.2</ele>
        <time>2016-02-17T13:20:26Z</time>
      </trkpt>
      <trkpt lat="47.27698" lon="-1.68747">
        <ele>65.2</ele>
        <time>2016-02-17T13:20:31Z</time>
      </trkpt>
      <trkpt lat="47.27708" lon="-1.68747">
        <ele>66</ele>
        <time>2016-02-17T13:20:36Z</time>
      </trkpt>
      <trkpt lat="47.27718" lon="-1.68746">
        <ele>66.6</ele>
        <time>2016-02-17T13:20:41Z</time>
      </trkpt>
      <trkpt lat="47.27729" lon="-1.68748">
        <ele>66.6</ele>
        <time>2016-02-17T13:20:46Z</time>
      </trkpt>
      <trkpt lat="47.27745" lon="-1.68765">
        <ele>66.6</ele>
        <time>2016-02-17T13:20:55Z</time>
      </trkpt>
      <trkpt lat="47.27753" lon="-1.68773">
        <ele>66.4</ele>
        <time>2016-02-17T13:20:58Z</time>
      </trkpt>
      <trkpt lat="47.27763" lon="-1.6878">
        <ele>66.5</ele>
        <time>2016-02-17T13:21:01Z</time>
      </trkpt>
      <trkpt lat="47.27772" lon="-1.68783">
        <ele>66.1</ele>
        <time>2016-02-17T13:21:04Z</time>
      </trkpt>
      <trkpt lat="47.27783" lon="-1.68782">
        <ele>65</ele>
        <time>2016-02-17T13:21:08Z</time>
      </trkpt>
      <trkpt lat="47.2778" lon="-1.68768">
        <ele>64.1</ele>
        <time>2016-02-17T13:21:11Z</time>
      </trkpt>
      <trkpt lat="47.27774" lon="-1.68752">
        <ele>62.9</ele>
        <time>2016-02-17T13:21:14Z</time>
      </trkpt>
      <trkpt lat="47.2777" lon="-1.68737">
        <ele>61.3</ele>
        <time>2016-02-17T13:21:17Z</time>
      </trkpt>
      <trkpt lat="47.27767" lon="-1.68724">
        <ele>58.9</ele>
        <time>2016-02-17T13:21:20Z</time>
      </trkpt>
      <trkpt lat="47.27757" lon="-1.68717">
        <ele>56.9</ele>
        <time>2016-02-17T13:21:23Z</time>
      </trkpt>
      <trkpt lat="47.27749" lon="-1.68711">
        <ele>56.3</ele>
        <time>2016-02-17T13:21:27Z</time>
      </trkpt>
      <trkpt lat="47.2774" lon="-1.68703">
        <ele>55.7</ele>
        <time>2016-02-17T13:21:30Z</time>
      </trkpt>
      <trkpt lat="47.27729" lon="-1.68699">
        <ele>55.7</ele>
        <time>2016-02-17T13:21:33Z</time>
      </trkpt>
      <trkpt lat="47.27719" lon="-1.68697">
        <ele>55.9</ele>
        <time>2016-02-17T13:21:37Z</time>
      </trkpt>
      <trkpt lat="47.27709" lon="-1.68694">
        <ele>55.3</ele>
        <time>2016-02-17T13:21:42Z</time>
      </trkpt>
      <trkpt lat="47.27699" lon="-1.68696">
        <ele>55.2</ele>
        <time>2016-02-17T13:21:48Z</time>
      </trkpt>
      <trkpt lat="47.27679" lon="-1.68711">
        <ele>55.1</ele>
        <time>2016-02-17T13:21:59Z</time>
      </trkpt>
      <trkpt lat="47.27669" lon="-1.68714">
        <ele>54.9</ele>
        <time>2016-02-17T13:22:02Z</time>
      </trkpt>
      <trkpt lat="47.27661" lon="-1.68718">
        <ele>54.6</ele>
        <time>2016-02-17T13:22:07Z</time>
      </trkpt>
      <trkpt lat="47.27652" lon="-1.68721">
        <ele>54.9</ele>
        <time>2016-02-17T13:22:11Z</time>
      </trkpt>
      <trkpt lat="47.27643" lon="-1.68727">
        <ele>55.3</ele>
        <time>2016-02-17T13:22:16Z</time>
      </trkpt>
      <trkpt lat="47.27637" lon="-1.68737">
        <ele>55.6</ele>
        <time>2016-02-17T13:22:22Z</time>
      </trkpt>
      <trkpt lat="47.27636" lon="-1.68752">
        <ele>57.7</ele>
        <time>2016-02-17T13:22:31Z</time>
      </trkpt>
      <trkpt lat="47.27634" lon="-1.68766">
        <ele>60.2</ele>
        <time>2016-02-17T13:22:43Z</time>
      </trkpt>
      <trkpt lat="47.27629" lon="-1.68779">
        <ele>65</ele>
        <time>2016-02-17T13:23:14Z</time>
      </trkpt>
      <trkpt lat="47.27618" lon="-1.68795">
        <ele>69.1</ele>
        <time>2016-02-17T13:23:56Z</time>
      </trkpt>
      <trkpt lat="47.27609" lon="-1.68793">
        <ele>69.5</ele>
        <time>2016-02-17T13:24:00Z</time>
      </trkpt>
      <trkpt lat="47.276" lon="-1.68792">
        <ele>70.7</ele>
        <time>2016-02-17T13:24:06Z</time>
      </trkpt>
      <trkpt lat="47.27589" lon="-1.68793">
        <ele>71.8</ele>
        <time>2016-02-17T13:24:12Z</time>
      </trkpt>
      <trkpt lat="47.2758" lon="-1.68789">
        <ele>72.1</ele>
        <time>2016-02-17T13:24:18Z</time>
      </trkpt>
      <trkpt lat="47.27567" lon="-1.68769">
        <ele>70.6</ele>
        <time>2016-02-17T13:24:27Z</time>
      </trkpt>
      <trkpt lat="47.27559" lon="-1.68762">
        <ele>70.9</ele>
        <time>2016-02-17T13:24:32Z</time>
      </trkpt>
      <trkpt lat="47.27553" lon="-1.68748">
        <ele>70.5</ele>
        <time>2016-02-17T13:24:37Z</time>
      </trkpt>
      <trkpt lat="47.2755" lon="-1.68733">
        <ele>70</ele>
        <time>2016-02-17T13:24:41Z</time>
      </trkpt>
      <trkpt lat="47.27552" lon="-1.68719">
        <ele>65.5</ele>
        <time>2016-02-17T13:24:47Z</time>
      </trkpt>
      <trkpt lat="47.27552" lon="-1.68705">
        <ele>62.9</ele>
        <time>2016-02-17T13:24:52Z</time>
      </trkpt>
      <trkpt lat="47.27548" lon="-1.6869">
        <ele>62.4</ele>
        <time>2016-02-17T13:24:56Z</time>
      </trkpt>
      <trkpt lat="47.27544" lon="-1.68677">
        <ele>62.7</ele>
        <time>2016-02-17T13:25:00Z</time>
      </trkpt>
      <trkpt lat="47.27537" lon="-1.68668">
        <ele>66.1</ele>
        <time>2016-02-17T13:25:10Z</time>
      </trkpt>
      <trkpt lat="47.27527" lon="-1.68665">
        <ele>67.9</ele>
        <time>2016-02-17T13:25:15Z</time>
      </trkpt>
      <trkpt lat="47.27517" lon="-1.68661">
        <ele>69</ele>
        <time>2016-02-17T13:25:21Z</time>
      </trkpt>
      <trkpt lat="47.27501" lon="-1.68645">
        <ele>68.9</ele>
        <time>2016-02-17T13:25:30Z</time>
      </trkpt>
      <trkpt lat="47.27493" lon="-1.68639">
        <ele>68.7</ele>
        <time>2016-02-17T13:25:33Z</time>
      </trkpt>
      <trkpt lat="47.27486" lon="-1.68632">
        <ele>68.7</ele>
        <time>2016-02-17T13:25:36Z</time>
      </trkpt>
      <trkpt lat="47.27477" lon="-1.68623">
        <ele>68.7</ele>
        <time>2016-02-17T13:25:40Z</time>
      </trkpt>
      <trkpt lat="47.27469" lon="-1.68613">
        <ele>67.5</ele>
        <time>2016-02-17T13:25:46Z</time>
      </trkpt>
      <trkpt lat="47.27464" lon="-1.686">
        <ele>65</ele>
        <time>2016-02-17T13:25:51Z</time>
      </trkpt>
      <trkpt lat="47.27465" lon="-1.68587">
        <ele>59.4</ele>
        <time>2016-02-17T13:25:56Z</time>
      </trkpt>
      <trkpt lat="47.2746" lon="-1.68573">
        <ele>56.5</ele>
        <time>2016-02-17T13:25:59Z</time>
      </trkpt>
      <trkpt lat="47.27469" lon="-1.68576">
        <ele>55.1</ele>
        <time>2016-02-17T13:26:12Z</time>
      </trkpt>
      <trkpt lat="47.27478" lon="-1.68583">
        <ele>55.8</ele>
        <time>2016-02-17T13:26:18Z</time>
      </trkpt>
      <trkpt lat="47.27488" lon="-1.68585">
        <ele>55.2</ele>
        <time>2016-02-17T13:26:21Z</time>
      </trkpt>
      <trkpt lat="47.27497" lon="-1.68591">
        <ele>54.6</ele>
        <time>2016-02-17T13:26:24Z</time>
      </trkpt>
      <trkpt lat="47.27514" lon="-1.68605">
        <ele>55.3</ele>
        <time>2016-02-17T13:26:32Z</time>
      </trkpt>
      <trkpt lat="47.27522" lon="-1.68613">
        <ele>55.5</ele>
        <time>2016-02-17T13:26:37Z</time>
      </trkpt>
      <trkpt lat="47.2753" lon="-1.68622">
        <ele>55.3</ele>
        <time>2016-02-17T13:26:43Z</time>
      </trkpt>
      <trkpt lat="47.27536" lon="-1.68631">
        <ele>56.1</ele>
        <time>2016-02-17T13:26:50Z</time>
      </trkpt>
      <trkpt lat="47.27541" lon="-1.68644">
        <ele>55.9</ele>
        <time>2016-02-17T13:27:01Z</time>
      </trkpt>
      <trkpt lat="47.27547" lon="-1.68654">
        <ele>55.6</ele>
        <time>2016-02-17T13:27:05Z</time>
      </trkpt>
      <trkpt lat="47.27553" lon="-1.68666">
        <ele>55.3</ele>
        <time>2016-02-17T13:27:09Z</time>
      </trkpt>
      <trkpt lat="47.27557" lon="-1.68679">
        <ele>55.6</ele>
        <time>2016-02-17T13:27:14Z</time>
      </trkpt>
      <trkpt lat="47.27561" lon="-1.68692">
        <ele>55.9</ele>
        <time>2016-02-17T13:27:20Z</time>
      </trkpt>
      <trkpt lat="47.27566" lon="-1.68705">
        <ele>57</ele>
        <time>2016-02-17T13:27:26Z</time>
      </trkpt>
      <trkpt lat="47.27586" lon="-1.68723">
        <ele>56.5</ele>
        <time>2016-02-17T13:27:34Z</time>
      </trkpt>
      <trkpt lat="47.27595" lon="-1.68728">
        <ele>56.5</ele>
        <time>2016-02-17T13:27:36Z</time>
      </trkpt>
      <trkpt lat="47.27605" lon="-1.68734">
        <ele>56.3</ele>
        <time>2016-02-17T13:27:39Z</time>
      </trkpt>
      <trkpt lat="47.27614" lon="-1.68736">
        <ele>57.2</ele>
        <time>2016-02-17T13:27:42Z</time>
      </trkpt>
      <trkpt lat="47.27625" lon="-1.68735">
        <ele>57.4</ele>
        <time>2016-02-17T13:27:46Z</time>
      </trkpt>
      <trkpt lat="47.27634" lon="-1.68733">
        <ele>57</ele>
        <time>2016-02-17T13:27:49Z</time>
      </trkpt>
      <trkpt lat="47.27644" lon="-1.6873">
        <ele>56.3</ele>
        <time>2016-02-17T13:27:52Z</time>
      </trkpt>
      <trkpt lat="47.27653" lon="-1.68725">
        <ele>56.2</ele>
        <time>2016-02-17T13:27:55Z</time>
      </trkpt>
      <trkpt lat="47.27662" lon="-1.68721">
        <ele>56.2</ele>
        <time>2016-02-17T13:27:59Z</time>
      </trkpt>
      <trkpt lat="47.27672" lon="-1.68714">
        <ele>56.5</ele>
        <time>2016-02-17T13:28:03Z</time>
      </trkpt>
      <trkpt lat="47.2768" lon="-1.68705">
        <ele>56.8</ele>
        <time>2016-02-17T13:28:06Z</time>
      </trkpt>
      <trkpt lat="47.27685" lon="-1.68693">
        <ele>57.4</ele>
        <time>2016-02-17T13:28:14Z</time>
      </trkpt>
      <trkpt lat="47.27687" lon="-1.68679">
        <ele>56.9</ele>
        <time>2016-02-17T13:28:19Z</time>
      </trkpt>
      <trkpt lat="47.27683" lon="-1.68665">
        <ele>56.4</ele>
        <time>2016-02-17T13:28:23Z</time>
      </trkpt>
      <trkpt lat="47.27675" lon="-1.68657">
        <ele>57</ele>
        <time>2016-02-17T13:28:29Z</time>
      </trkpt>
      <trkpt lat="47.27655" lon="-1.68665">
        <ele>57.6</ele>
        <time>2016-02-17T13:28:42Z</time>
      </trkpt>
      <trkpt lat="47.27644" lon="-1.68669">
        <ele>56.6</ele>
        <time>2016-02-17T13:28:48Z</time>
      </trkpt>
      <trkpt lat="47.27632" lon="-1.68674">
        <ele>56.7</ele>
        <time>2016-02-17T13:28:53Z</time>
      </trkpt>
      <trkpt lat="47.27621" lon="-1.68675">
        <ele>56.7</ele>
        <time>2016-02-17T13:28:56Z</time>
      </trkpt>
      <trkpt lat="47.27612" lon="-1.6867">
        <ele>56.6</ele>
        <time>2016-02-17T13:28:59Z</time>
      </trkpt>
      <trkpt lat="47.27605" lon="-1.68659">
        <ele>55.7</ele>
        <time>2016-02-17T13:29:04Z</time>
      </trkpt>
      <trkpt lat="47.27597" lon="-1.68647">
        <ele>55.6</ele>
        <time>2016-02-17T13:29:08Z</time>
      </trkpt>
      <trkpt lat="47.27592" lon="-1.68634">
        <ele>55.9</ele>
        <time>2016-02-17T13:29:13Z</time>
      </trkpt>
      <trkpt lat="47.27585" lon="-1.68624">
        <ele>55.5</ele>
        <time>2016-02-17T13:29:17Z</time>
      </trkpt>
      <trkpt lat="47.27578" lon="-1.68616">
        <ele>55</ele>
        <time>2016-02-17T13:29:21Z</time>
      </trkpt>
      <trkpt lat="47.27571" lon="-1.68607">
        <ele>54.9</ele>
        <time>2016-02-17T13:29:25Z</time>
      </trkpt>
      <trkpt lat="47.27563" lon="-1.68597">
        <ele>55</ele>
        <time>2016-02-17T13:29:29Z</time>
      </trkpt>
      <trkpt lat="47.27552" lon="-1.68587">
        <ele>55.1</ele>
        <time>2016-02-17T13:29:33Z</time>
      </trkpt>
      <trkpt lat="47.27535" lon="-1.68569">
        <ele>56.4</ele>
        <time>2016-02-17T13:29:40Z</time>
      </trkpt>
      <trkpt lat="47.27528" lon="-1.68561">
        <ele>56.4</ele>
        <time>2016-02-17T13:29:42Z</time>
      </trkpt>
      <trkpt lat="47.27519" lon="-1.68551">
        <ele>56.2</ele>
        <time>2016-02-17T13:29:46Z</time>
      </trkpt>
      <trkpt lat="47.27511" lon="-1.68542">
        <ele>55.6</ele>
        <time>2016-02-17T13:29:49Z</time>
      </trkpt>
      <trkpt lat="47.27502" lon="-1.68534">
        <ele>55.2</ele>
        <time>2016-02-17T13:29:53Z</time>
      </trkpt>
      <trkpt lat="47.27496" lon="-1.68523">
        <ele>55</ele>
        <time>2016-02-17T13:29:58Z</time>
      </trkpt>
      <trkpt lat="47.27486" lon="-1.68514">
        <ele>54.7</ele>
        <time>2016-02-17T13:30:01Z</time>
      </trkpt>
      <trkpt lat="47.27478" lon="-1.68506">
        <ele>54.9</ele>
        <time>2016-02-17T13:30:06Z</time>
      </trkpt>
      <trkpt lat="47.27469" lon="-1.68505">
        <ele>54.8</ele>
        <time>2016-02-17T13:30:09Z</time>
      </trkpt>
      <trkpt lat="47.2746" lon="-1.68505">
        <ele>54.9</ele>
        <time>2016-02-17T13:30:15Z</time>
      </trkpt>
      <trkpt lat="47.27452" lon="-1.68513">
        <ele>54.6</ele>
        <time>2016-02-17T13:30:27Z</time>
      </trkpt>
      <trkpt lat="47.27445" lon="-1.68522">
        <ele>54.5</ele>
        <time>2016-02-17T13:30:32Z</time>
      </trkpt>
      <trkpt lat="47.27441" lon="-1.68535">
        <ele>55.1</ele>
        <time>2016-02-17T13:30:46Z</time>
      </trkpt>
      <trkpt lat="47.27429" lon="-1.68559">
        <ele>57</ele>
        <time>2016-02-17T13:31:26Z</time>
      </trkpt>
      <trkpt lat="47.27423" lon="-1.68569">
        <ele>59</ele>
        <time>2016-02-17T13:31:34Z</time>
      </trkpt>
      <trkpt lat="47.27413" lon="-1.68574">
        <ele>61.3</ele>
        <time>2016-02-17T13:31:42Z</time>
      </trkpt>
      <trkpt lat="47.27405" lon="-1.68578">
        <ele>62.6</ele>
        <time>2016-02-17T13:31:48Z</time>
      </trkpt>
      <trkpt lat="47.27392" lon="-1.686">
        <ele>66.7</ele>
        <time>2016-02-17T13:32:06Z</time>
      </trkpt>
      <trkpt lat="47.27385" lon="-1.6861">
        <ele>68.8</ele>
        <time>2016-02-17T13:32:14Z</time>
      </trkpt>
      <trkpt lat="47.27378" lon="-1.68623">
        <ele>69.8</ele>
        <time>2016-02-17T13:32:22Z</time>
      </trkpt>
      <trkpt lat="47.27371" lon="-1.68631">
        <ele>70.5</ele>
        <time>2016-02-17T13:32:27Z</time>
      </trkpt>
      <trkpt lat="47.27362" lon="-1.68641">
        <ele>71.3</ele>
        <time>2016-02-17T13:32:32Z</time>
      </trkpt>
      <trkpt lat="47.27356" lon="-1.68651">
        <ele>72.8</ele>
        <time>2016-02-17T13:32:39Z</time>
      </trkpt>
      <trkpt lat="47.2735" lon="-1.68664">
        <ele>73.1</ele>
        <time>2016-02-17T13:32:45Z</time>
      </trkpt>
      <trkpt lat="47.27342" lon="-1.68675">
        <ele>73.3</ele>
        <time>2016-02-17T13:32:50Z</time>
      </trkpt>
      <trkpt lat="47.27327" lon="-1.68693">
        <ele>74.7</ele>
        <time>2016-02-17T13:32:58Z</time>
      </trkpt>
      <trkpt lat="47.27318" lon="-1.68703">
        <ele>75.1</ele>
        <time>2016-02-17T13:33:02Z</time>
      </trkpt>
      <trkpt lat="47.27309" lon="-1.68707">
        <ele>75</ele>
        <time>2016-02-17T13:33:06Z</time>
      </trkpt>
      <trkpt lat="47.27299" lon="-1.68711">
        <ele>75.5</ele>
        <time>2016-02-17T13:33:10Z</time>
      </trkpt>
      <trkpt lat="47.2729" lon="-1.68717">
        <ele>75.8</ele>
        <time>2016-02-17T13:33:14Z</time>
      </trkpt>
      <trkpt lat="47.27281" lon="-1.68725">
        <ele>76.4</ele>
        <time>2016-02-17T13:33:18Z</time>
      </trkpt>
      <trkpt lat="47.27272" lon="-1.68732">
        <ele>77.5</ele>
        <time>2016-02-17T13:33:22Z</time>
      </trkpt>
      <trkpt lat="47.27262" lon="-1.6874">
        <ele>78.2</ele>
        <time>2016-02-17T13:33:27Z</time>
      </trkpt>
      <trkpt lat="47.27253" lon="-1.68747">
        <ele>78.8</ele>
        <time>2016-02-17T13:33:31Z</time>
      </trkpt>
      <trkpt lat="47.27245" lon="-1.68758">
        <ele>79.8</ele>
        <time>2016-02-17T13:33:37Z</time>
      </trkpt>
      <trkpt lat="47.27239" lon="-1.68769">
        <ele>80</ele>
        <time>2016-02-17T13:33:41Z</time>
      </trkpt>
      <trkpt lat="47.27232" lon="-1.6878">
        <ele>80.7</ele>
        <time>2016-02-17T13:33:45Z</time>
      </trkpt>
      <trkpt lat="47.27224" lon="-1.6879">
        <ele>81.4</ele>
        <time>2016-02-17T13:33:49Z</time>
      </trkpt>
      <trkpt lat="47.27216" lon="-1.68801">
        <ele>81.9</ele>
        <time>2016-02-17T13:33:53Z</time>
      </trkpt>
      <trkpt lat="47.27202" lon="-1.68823">
        <ele>83.2</ele>
        <time>2016-02-17T13:34:01Z</time>
      </trkpt>
      <trkpt lat="47.27195" lon="-1.68832">
        <ele>83.8</ele>
        <time>2016-02-17T13:34:04Z</time>
      </trkpt>
      <trkpt lat="47.2719" lon="-1.68846">
        <ele>84.4</ele>
        <time>2016-02-17T13:34:08Z</time>
      </trkpt>
      <trkpt lat="47.27185" lon="-1.68858">
        <ele>84.4</ele>
        <time>2016-02-17T13:34:12Z</time>
      </trkpt>
      <trkpt lat="47.27178" lon="-1.68868">
        <ele>85.1</ele>
        <time>2016-02-17T13:34:16Z</time>
      </trkpt>
      <trkpt lat="47.27168" lon="-1.68867">
        <ele>85.3</ele>
        <time>2016-02-17T13:34:19Z</time>
      </trkpt>
      <trkpt lat="47.27157" lon="-1.68859">
        <ele>85.2</ele>
        <time>2016-02-17T13:34:22Z</time>
      </trkpt>
      <trkpt lat="47.27146" lon="-1.68849">
        <ele>85.4</ele>
        <time>2016-02-17T13:34:25Z</time>
      </trkpt>
      <trkpt lat="47.27136" lon="-1.6884">
        <ele>85.5</ele>
        <time>2016-02-17T13:34:28Z</time>
      </trkpt>
      <trkpt lat="47.27128" lon="-1.68831">
        <ele>85.6</ele>
        <time>2016-02-17T13:34:31Z</time>
      </trkpt>
      <trkpt lat="47.2712" lon="-1.68824">
        <ele>85.7</ele>
        <time>2016-02-17T13:34:33Z</time>
      </trkpt>
      <trkpt lat="47.27112" lon="-1.68814">
        <ele>85.7</ele>
        <time>2016-02-17T13:34:36Z</time>
      </trkpt>
      <trkpt lat="47.27104" lon="-1.68806">
        <ele>85.9</ele>
        <time>2016-02-17T13:34:39Z</time>
      </trkpt>
      <trkpt lat="47.27096" lon="-1.68798">
        <ele>86.1</ele>
        <time>2016-02-17T13:34:42Z</time>
      </trkpt>
      <trkpt lat="47.27088" lon="-1.68789">
        <ele>86.2</ele>
        <time>2016-02-17T13:34:45Z</time>
      </trkpt>
      <trkpt lat="47.2708" lon="-1.68779">
        <ele>85.9</ele>
        <time>2016-02-17T13:34:48Z</time>
      </trkpt>
      <trkpt lat="47.27083" lon="-1.68766">
        <ele>85.6</ele>
        <time>2016-02-17T13:34:51Z</time>
      </trkpt>
      <trkpt lat="47.2709" lon="-1.6875">
        <ele>85.8</ele>
        <time>2016-02-17T13:34:54Z</time>
      </trkpt>
      <trkpt lat="47.27104" lon="-1.68726">
        <ele>85</ele>
        <time>2016-02-17T13:34:59Z</time>
      </trkpt>
      <trkpt lat="47.27108" lon="-1.6871">
        <ele>85.1</ele>
        <time>2016-02-17T13:35:02Z</time>
      </trkpt>
      <trkpt lat="47.27104" lon="-1.68694">
        <ele>84.6</ele>
        <time>2016-02-17T13:35:06Z</time>
      </trkpt>
      <trkpt lat="47.27099" lon="-1.68678">
        <ele>84.3</ele>
        <time>2016-02-17T13:35:10Z</time>
      </trkpt>
      <trkpt lat="47.27092" lon="-1.68665">
        <ele>83.7</ele>
        <time>2016-02-17T13:35:13Z</time>
      </trkpt>
      <trkpt lat="47.27084" lon="-1.68649">
        <ele>83</ele>
        <time>2016-02-17T13:35:16Z</time>
      </trkpt>
      <trkpt lat="47.27081" lon="-1.68632">
        <ele>82.3</ele>
        <time>2016-02-17T13:35:18Z</time>
      </trkpt>
      <trkpt lat="47.27082" lon="-1.68614">
        <ele>81.7</ele>
        <time>2016-02-17T13:35:20Z</time>
      </trkpt>
      <trkpt lat="47.27086" lon="-1.68596">
        <ele>81.4</ele>
        <time>2016-02-17T13:35:22Z</time>
      </trkpt>
      <trkpt lat="47.27091" lon="-1.68579">
        <ele>80.9</ele>
        <time>2016-02-17T13:35:24Z</time>
      </trkpt>
      <trkpt lat="47.27094" lon="-1.68563">
        <ele>80.4</ele>
        <time>2016-02-17T13:35:26Z</time>
      </trkpt>
      <trkpt lat="47.27094" lon="-1.68544">
        <ele>79.9</ele>
        <time>2016-02-17T13:35:28Z</time>
      </trkpt>
      <trkpt lat="47.27101" lon="-1.68527">
        <ele>79.2</ele>
        <time>2016-02-17T13:35:30Z</time>
      </trkpt>
      <trkpt lat="47.27112" lon="-1.68521">
        <ele>78.8</ele>
        <time>2016-02-17T13:35:32Z</time>
      </trkpt>
      <trkpt lat="47.27123" lon="-1.68514">
        <ele>78.4</ele>
        <time>2016-02-17T13:35:34Z</time>
      </trkpt>
      <trkpt lat="47.27135" lon="-1.68509">
        <ele>78</ele>
        <time>2016-02-17T13:35:36Z</time>
      </trkpt>
      <trkpt lat="47.27149" lon="-1.68506">
        <ele>77.5</ele>
        <time>2016-02-17T13:35:38Z</time>
      </trkpt>
      <trkpt lat="47.27161" lon="-1.68499">
        <ele>76.8</ele>
        <time>2016-02-17T13:35:40Z</time>
      </trkpt>
      <trkpt lat="47.27173" lon="-1.68488">
        <ele>75.2</ele>
        <time>2016-02-17T13:35:42Z</time>
      </trkpt>
      <trkpt lat="47.27181" lon="-1.6847">
        <ele>74.6</ele>
        <time>2016-02-17T13:35:44Z</time>
      </trkpt>
      <trkpt lat="47.27187" lon="-1.68457">
        <ele>73.7</ele>
        <time>2016-02-17T13:35:46Z</time>
      </trkpt>
      <trkpt lat="47.27196" lon="-1.68454">
        <ele>72.5</ele>
        <time>2016-02-17T13:35:52Z</time>
      </trkpt>
      <trkpt lat="47.27206" lon="-1.68448">
        <ele>72.1</ele>
        <time>2016-02-17T13:35:58Z</time>
      </trkpt>
      <trkpt lat="47.2722" lon="-1.68421">
        <ele>70</ele>
        <time>2016-02-17T13:36:04Z</time>
      </trkpt>
      <trkpt lat="47.27221" lon="-1.68407">
        <ele>68.9</ele>
        <time>2016-02-17T13:36:06Z</time>
      </trkpt>
      <trkpt lat="47.27214" lon="-1.68392">
        <ele>68.5</ele>
        <time>2016-02-17T13:36:08Z</time>
      </trkpt>
      <trkpt lat="47.27208" lon="-1.68375">
        <ele>67.9</ele>
        <time>2016-02-17T13:36:11Z</time>
      </trkpt>
      <trkpt lat="47.27201" lon="-1.68363">
        <ele>67.1</ele>
        <time>2016-02-17T13:36:13Z</time>
      </trkpt>
      <trkpt lat="47.27192" lon="-1.68351">
        <ele>66.3</ele>
        <time>2016-02-17T13:36:15Z</time>
      </trkpt>
      <trkpt lat="47.27184" lon="-1.68339">
        <ele>65.5</ele>
        <time>2016-02-17T13:36:17Z</time>
      </trkpt>
      <trkpt lat="47.27178" lon="-1.68326">
        <ele>64.7</ele>
        <time>2016-02-17T13:36:19Z</time>
      </trkpt>
      <trkpt lat="47.27174" lon="-1.68313">
        <ele>64.4</ele>
        <time>2016-02-17T13:36:21Z</time>
      </trkpt>
      <trkpt lat="47.27169" lon="-1.68301">
        <ele>64.3</ele>
        <time>2016-02-17T13:36:23Z</time>
      </trkpt>
      <trkpt lat="47.27164" lon="-1.68289">
        <ele>64.4</ele>
        <time>2016-02-17T13:36:25Z</time>
      </trkpt>
      <trkpt lat="47.27157" lon="-1.68277">
        <ele>64.2</ele>
        <time>2016-02-17T13:36:27Z</time>
      </trkpt>
      <trkpt lat="47.27149" lon="-1.68264">
        <ele>63.9</ele>
        <time>2016-02-17T13:36:29Z</time>
      </trkpt>
      <trkpt lat="47.27143" lon="-1.68252">
        <ele>63.2</ele>
        <time>2016-02-17T13:36:31Z</time>
      </trkpt>
      <trkpt lat="47.27138" lon="-1.68239">
        <ele>62.6</ele>
        <time>2016-02-17T13:36:33Z</time>
      </trkpt>
      <trkpt lat="47.2713" lon="-1.68222">
        <ele>62.3</ele>
        <time>2016-02-17T13:36:35Z</time>
      </trkpt>
      <trkpt lat="47.27121" lon="-1.68201">
        <ele>61.2</ele>
        <time>2016-02-17T13:36:37Z</time>
      </trkpt>
      <trkpt lat="47.27112" lon="-1.68192">
        <ele>60.4</ele>
        <time>2016-02-17T13:36:39Z</time>
      </trkpt>
      <trkpt lat="47.271" lon="-1.68194">
        <ele>59.6</ele>
        <time>2016-02-17T13:36:42Z</time>
      </trkpt>
      <trkpt lat="47.27088" lon="-1.68195">
        <ele>58.7</ele>
        <time>2016-02-17T13:36:45Z</time>
      </trkpt>
      <trkpt lat="47.27081" lon="-1.68186">
        <ele>58.6</ele>
        <time>2016-02-17T13:36:48Z</time>
      </trkpt>
      <trkpt lat="47.27075" lon="-1.68174">
        <ele>59.4</ele>
        <time>2016-02-17T13:36:56Z</time>
      </trkpt>
      <trkpt lat="47.27072" lon="-1.68157">
        <ele>61.9</ele>
        <time>2016-02-17T13:37:24Z</time>
      </trkpt>
      <trkpt lat="47.27056" lon="-1.68144">
        <ele>64.7</ele>
        <time>2016-02-17T13:37:38Z</time>
      </trkpt>
      <trkpt lat="47.27047" lon="-1.68136">
        <ele>65.7</ele>
        <time>2016-02-17T13:37:44Z</time>
      </trkpt>
      <trkpt lat="47.27039" lon="-1.68125">
        <ele>66.8</ele>
        <time>2016-02-17T13:37:51Z</time>
      </trkpt>
      <trkpt lat="47.27035" lon="-1.68113">
        <ele>67.6</ele>
        <time>2016-02-17T13:37:56Z</time>
      </trkpt>
      <trkpt lat="47.27032" lon="-1.68098">
        <ele>67.6</ele>
        <time>2016-02-17T13:38:00Z</time>
      </trkpt>
      <trkpt lat="47.27029" lon="-1.68084">
        <ele>67.9</ele>
        <time>2016-02-17T13:38:06Z</time>
      </trkpt>
      <trkpt lat="47.27026" lon="-1.6807">
        <ele>69.1</ele>
        <time>2016-02-17T13:38:12Z</time>
      </trkpt>
      <trkpt lat="47.27021" lon="-1.68056">
        <ele>70.4</ele>
        <time>2016-02-17T13:38:18Z</time>
      </trkpt>
      <trkpt lat="47.27017" lon="-1.68042">
        <ele>71.4</ele>
        <time>2016-02-17T13:38:24Z</time>
      </trkpt>
      <trkpt lat="47.27013" lon="-1.6803">
        <ele>72.7</ele>
        <time>2016-02-17T13:38:28Z</time>
      </trkpt>
      <trkpt lat="47.27" lon="-1.68006">
        <ele>75.2</ele>
        <time>2016-02-17T13:38:39Z</time>
      </trkpt>
      <trkpt lat="47.26998" lon="-1.67992">
        <ele>74.6</ele>
        <time>2016-02-17T13:38:43Z</time>
      </trkpt>
      <trkpt lat="47.26999" lon="-1.67977">
        <ele>74.2</ele>
        <time>2016-02-17T13:38:47Z</time>
      </trkpt>
      <trkpt lat="47.27003" lon="-1.67961">
        <ele>73.4</ele>
        <time>2016-02-17T13:38:51Z</time>
      </trkpt>
      <trkpt lat="47.27011" lon="-1.67967">
        <ele>70.8</ele>
        <time>2016-02-17T13:39:00Z</time>
      </trkpt>
      <trkpt lat="47.27015" lon="-1.67949">
        <ele>64.9</ele>
        <time>2016-02-17T13:39:10Z</time>
      </trkpt>
      <trkpt lat="47.27018" lon="-1.67937">
        <ele>63.9</ele>
        <time>2016-02-17T13:39:13Z</time>
      </trkpt>
      <trkpt lat="47.27023" lon="-1.67926">
        <ele>64.1</ele>
        <time>2016-02-17T13:39:17Z</time>
      </trkpt>
      <trkpt lat="47.27028" lon="-1.6791">
        <ele>64.3</ele>
        <time>2016-02-17T13:39:22Z</time>
      </trkpt>
      <trkpt lat="47.2703" lon="-1.67895">
        <ele>64.2</ele>
        <time>2016-02-17T13:39:27Z</time>
      </trkpt>
      <trkpt lat="47.2703" lon="-1.67879">
        <ele>64.9</ele>
        <time>2016-02-17T13:39:31Z</time>
      </trkpt>
      <trkpt lat="47.27038" lon="-1.6785">
        <ele>65.5</ele>
        <time>2016-02-17T13:39:39Z</time>
      </trkpt>
      <trkpt lat="47.27041" lon="-1.67834">
        <ele>64.9</ele>
        <time>2016-02-17T13:39:43Z</time>
      </trkpt>
      <trkpt lat="47.27042" lon="-1.67819">
        <ele>64</ele>
        <time>2016-02-17T13:39:46Z</time>
      </trkpt>
      <trkpt lat="47.27045" lon="-1.67806">
        <ele>63.6</ele>
        <time>2016-02-17T13:39:48Z</time>
      </trkpt>
      <trkpt lat="47.27052" lon="-1.67789">
        <ele>62.9</ele>
        <time>2016-02-17T13:39:51Z</time>
      </trkpt>
      <trkpt lat="47.27057" lon="-1.67775">
        <ele>62.3</ele>
        <time>2016-02-17T13:39:53Z</time>
      </trkpt>
      <trkpt lat="47.27061" lon="-1.67757">
        <ele>61.8</ele>
        <time>2016-02-17T13:39:55Z</time>
      </trkpt>
      <trkpt lat="47.27069" lon="-1.67735">
        <ele>61.3</ele>
        <time>2016-02-17T13:39:57Z</time>
      </trkpt>
      <trkpt lat="47.27075" lon="-1.67723">
        <ele>61.5</ele>
        <time>2016-02-17T13:39:58Z</time>
      </trkpt>
      <trkpt lat="47.27085" lon="-1.67695">
        <ele>60.8</ele>
        <time>2016-02-17T13:40:00Z</time>
      </trkpt>
      <trkpt lat="47.2709" lon="-1.67681">
        <ele>59.9</ele>
        <time>2016-02-17T13:40:01Z</time>
      </trkpt>
      <trkpt lat="47.27097" lon="-1.67658">
        <ele>58.9</ele>
        <time>2016-02-17T13:40:03Z</time>
      </trkpt>
      <trkpt lat="47.27101" lon="-1.6764">
        <ele>58.6</ele>
        <time>2016-02-17T13:40:05Z</time>
      </trkpt>
      <trkpt lat="47.27102" lon="-1.67627">
        <ele>58.4</ele>
        <time>2016-02-17T13:40:07Z</time>
      </trkpt>
      <trkpt lat="47.27101" lon="-1.67612">
        <ele>58.7</ele>
        <time>2016-02-17T13:40:10Z</time>
      </trkpt>
      <trkpt lat="47.27091" lon="-1.67594">
        <ele>58.2</ele>
        <time>2016-02-17T13:40:13Z</time>
      </trkpt>
      <trkpt lat="47.27086" lon="-1.67582">
        <ele>58.4</ele>
        <time>2016-02-17T13:40:15Z</time>
      </trkpt>
      <trkpt lat="47.27078" lon="-1.67568">
        <ele>58.5</ele>
        <time>2016-02-17T13:40:18Z</time>
      </trkpt>
      <trkpt lat="47.27072" lon="-1.67552">
        <ele>58.1</ele>
        <time>2016-02-17T13:40:21Z</time>
      </trkpt>
      <trkpt lat="47.27068" lon="-1.67537">
        <ele>58</ele>
        <time>2016-02-17T13:40:24Z</time>
      </trkpt>
      <trkpt lat="47.27065" lon="-1.67522">
        <ele>57.7</ele>
        <time>2016-02-17T13:40:26Z</time>
      </trkpt>
      <trkpt lat="47.27062" lon="-1.67506">
        <ele>57.5</ele>
        <time>2016-02-17T13:40:29Z</time>
      </trkpt>
      <trkpt lat="47.27059" lon="-1.67489">
        <ele>56.5</ele>
        <time>2016-02-17T13:40:31Z</time>
      </trkpt>
      <trkpt lat="47.27059" lon="-1.67473">
        <ele>55.5</ele>
        <time>2016-02-17T13:40:33Z</time>
      </trkpt>
      <trkpt lat="47.27066" lon="-1.67434">
        <ele>53.8</ele>
        <time>2016-02-17T13:40:37Z</time>
      </trkpt>
      <trkpt lat="47.27068" lon="-1.67414">
        <ele>53.2</ele>
        <time>2016-02-17T13:40:39Z</time>
      </trkpt>
      <trkpt lat="47.27068" lon="-1.67399">
        <ele>53.3</ele>
        <time>2016-02-17T13:40:41Z</time>
      </trkpt>
      <trkpt lat="47.2707" lon="-1.67386">
        <ele>53.2</ele>
        <time>2016-02-17T13:40:43Z</time>
      </trkpt>
      <trkpt lat="47.27067" lon="-1.67368">
        <ele>53.8</ele>
        <time>2016-02-17T13:40:46Z</time>
      </trkpt>
      <trkpt lat="47.27065" lon="-1.67355">
        <ele>54.3</ele>
        <time>2016-02-17T13:40:49Z</time>
      </trkpt>
      <trkpt lat="47.27066" lon="-1.67339">
        <ele>54.3</ele>
        <time>2016-02-17T13:40:53Z</time>
      </trkpt>
      <trkpt lat="47.2707" lon="-1.67325">
        <ele>53.9</ele>
        <time>2016-02-17T13:40:55Z</time>
      </trkpt>
      <trkpt lat="47.27072" lon="-1.67309">
        <ele>53.7</ele>
        <time>2016-02-17T13:40:57Z</time>
      </trkpt>
      <trkpt lat="47.27074" lon="-1.67293">
        <ele>53</ele>
        <time>2016-02-17T13:40:59Z</time>
      </trkpt>
      <trkpt lat="47.27073" lon="-1.67277">
        <ele>53.1</ele>
        <time>2016-02-17T13:41:01Z</time>
      </trkpt>
      <trkpt lat="47.27068" lon="-1.67261">
        <ele>52.8</ele>
        <time>2016-02-17T13:41:03Z</time>
      </trkpt>
      <trkpt lat="47.2706" lon="-1.67252">
        <ele>53.1</ele>
        <time>2016-02-17T13:41:05Z</time>
      </trkpt>
      <trkpt lat="47.27049" lon="-1.67244">
        <ele>52.8</ele>
        <time>2016-02-17T13:41:07Z</time>
      </trkpt>
      <trkpt lat="47.27039" lon="-1.67242">
        <ele>52.7</ele>
        <time>2016-02-17T13:41:09Z</time>
      </trkpt>
      <trkpt lat="47.27028" lon="-1.67242">
        <ele>52.3</ele>
        <time>2016-02-17T13:41:12Z</time>
      </trkpt>
      <trkpt lat="47.27015" lon="-1.67242">
        <ele>52.4</ele>
        <time>2016-02-17T13:41:15Z</time>
      </trkpt>
      <trkpt lat="47.27005" lon="-1.67242">
        <ele>52.4</ele>
        <time>2016-02-17T13:41:17Z</time>
      </trkpt>
      <trkpt lat="47.26993" lon="-1.67243">
        <ele>52.7</ele>
        <time>2016-02-17T13:41:20Z</time>
      </trkpt>
      <trkpt lat="47.26983" lon="-1.67246">
        <ele>52.6</ele>
        <time>2016-02-17T13:41:23Z</time>
      </trkpt>
      <trkpt lat="47.26972" lon="-1.67249">
        <ele>52.4</ele>
        <time>2016-02-17T13:41:26Z</time>
      </trkpt>
      <trkpt lat="47.26962" lon="-1.67254">
        <ele>52.3</ele>
        <time>2016-02-17T13:41:29Z</time>
      </trkpt>
      <trkpt lat="47.2695" lon="-1.67255">
        <ele>52.4</ele>
        <time>2016-02-17T13:41:32Z</time>
      </trkpt>
      <trkpt lat="47.26941" lon="-1.67254">
        <ele>52.3</ele>
        <time>2016-02-17T13:41:34Z</time>
      </trkpt>
      <trkpt lat="47.26919" lon="-1.67259">
        <ele>52.5</ele>
        <time>2016-02-17T13:41:39Z</time>
      </trkpt>
      <trkpt lat="47.2691" lon="-1.67262">
        <ele>52.6</ele>
        <time>2016-02-17T13:41:41Z</time>
      </trkpt>
      <trkpt lat="47.26898" lon="-1.67264">
        <ele>52.7</ele>
        <time>2016-02-17T13:41:44Z</time>
      </trkpt>
      <trkpt lat="47.26886" lon="-1.67263">
        <ele>52.9</ele>
        <time>2016-02-17T13:41:47Z</time>
      </trkpt>
      <trkpt lat="47.26874" lon="-1.67261">
        <ele>53.2</ele>
        <time>2016-02-17T13:41:50Z</time>
      </trkpt>
      <trkpt lat="47.26866" lon="-1.67254">
        <ele>52.7</ele>
        <time>2016-02-17T13:41:54Z</time>
      </trkpt>
      <trkpt lat="47.26861" lon="-1.67239">
        <ele>52.3</ele>
        <time>2016-02-17T13:41:57Z</time>
      </trkpt>
      <trkpt lat="47.26859" lon="-1.67222">
        <ele>52.1</ele>
        <time>2016-02-17T13:42:00Z</time>
      </trkpt>
      <trkpt lat="47.26857" lon="-1.67207">
        <ele>51.9</ele>
        <time>2016-02-17T13:42:03Z</time>
      </trkpt>
      <trkpt lat="47.26853" lon="-1.67193">
        <ele>51.7</ele>
        <time>2016-02-17T13:42:06Z</time>
      </trkpt>
      <trkpt lat="47.26853" lon="-1.67176">
        <ele>51.8</ele>
        <time>2016-02-17T13:42:09Z</time>
      </trkpt>
      <trkpt lat="47.26848" lon="-1.67164">
        <ele>52.7</ele>
        <time>2016-02-17T13:42:15Z</time>
      </trkpt>
      <trkpt lat="47.2684" lon="-1.67158">
        <ele>53.3</ele>
        <time>2016-02-17T13:42:18Z</time>
      </trkpt>
      <trkpt lat="47.26829" lon="-1.67153">
        <ele>53.4</ele>
        <time>2016-02-17T13:42:22Z</time>
      </trkpt>
      <trkpt lat="47.26817" lon="-1.6715">
        <ele>53.7</ele>
        <time>2016-02-17T13:42:26Z</time>
      </trkpt>
      <trkpt lat="47.26808" lon="-1.67148">
        <ele>54.6</ele>
        <time>2016-02-17T13:42:30Z</time>
      </trkpt>
      <trkpt lat="47.26799" lon="-1.67145">
        <ele>55.3</ele>
        <time>2016-02-17T13:42:34Z</time>
      </trkpt>
      <trkpt lat="47.2679" lon="-1.67142">
        <ele>55.6</ele>
        <time>2016-02-17T13:42:36Z</time>
      </trkpt>
      <trkpt lat="47.26768" lon="-1.67143">
        <ele>56.8</ele>
        <time>2016-02-17T13:42:44Z</time>
      </trkpt>
      <trkpt lat="47.26778" lon="-1.67135">
        <ele>57.1</ele>
        <time>2016-02-17T13:42:55Z</time>
      </trkpt>
      <trkpt lat="47.26786" lon="-1.6713">
        <ele>58.1</ele>
        <time>2016-02-17T13:43:01Z</time>
      </trkpt>
      <trkpt lat="47.26792" lon="-1.67117">
        <ele>58.7</ele>
        <time>2016-02-17T13:43:05Z</time>
      </trkpt>
      <trkpt lat="47.26796" lon="-1.67102">
        <ele>59.1</ele>
        <time>2016-02-17T13:43:09Z</time>
      </trkpt>
      <trkpt lat="47.26805" lon="-1.67097">
        <ele>58.5</ele>
        <time>2016-02-17T13:43:13Z</time>
      </trkpt>
      <trkpt lat="47.26815" lon="-1.67101">
        <ele>58.5</ele>
        <time>2016-02-17T13:43:16Z</time>
      </trkpt>
      <trkpt lat="47.26824" lon="-1.67105">
        <ele>58.5</ele>
        <time>2016-02-17T13:43:18Z</time>
      </trkpt>
      <trkpt lat="47.26835" lon="-1.67112">
        <ele>58.3</ele>
        <time>2016-02-17T13:43:20Z</time>
      </trkpt>
      <trkpt lat="47.26844" lon="-1.67122">
        <ele>57.8</ele>
        <time>2016-02-17T13:43:22Z</time>
      </trkpt>
      <trkpt lat="47.26854" lon="-1.67133">
        <ele>57.4</ele>
        <time>2016-02-17T13:43:24Z</time>
      </trkpt>
      <trkpt lat="47.26863" lon="-1.67139">
        <ele>57.1</ele>
        <time>2016-02-17T13:43:26Z</time>
      </trkpt>
      <trkpt lat="47.26876" lon="-1.67141">
        <ele>56.6</ele>
        <time>2016-02-17T13:43:29Z</time>
      </trkpt>
      <trkpt lat="47.26886" lon="-1.67138">
        <ele>55.7</ele>
        <time>2016-02-17T13:43:31Z</time>
      </trkpt>
      <trkpt lat="47.26893" lon="-1.67125">
        <ele>54.8</ele>
        <time>2016-02-17T13:43:34Z</time>
      </trkpt>
      <trkpt lat="47.26896" lon="-1.67108">
        <ele>54.8</ele>
        <time>2016-02-17T13:43:37Z</time>
      </trkpt>
      <trkpt lat="47.26897" lon="-1.67079">
        <ele>53.5</ele>
        <time>2016-02-17T13:43:42Z</time>
      </trkpt>
      <trkpt lat="47.269" lon="-1.67062">
        <ele>53.4</ele>
        <time>2016-02-17T13:43:44Z</time>
      </trkpt>
      <trkpt lat="47.26902" lon="-1.67048">
        <ele>53</ele>
        <time>2016-02-17T13:43:46Z</time>
      </trkpt>
      <trkpt lat="47.26906" lon="-1.67032">
        <ele>52.8</ele>
        <time>2016-02-17T13:43:49Z</time>
      </trkpt>
      <trkpt lat="47.26908" lon="-1.67019">
        <ele>52.7</ele>
        <time>2016-02-17T13:43:51Z</time>
      </trkpt>
      <trkpt lat="47.26911" lon="-1.67005">
        <ele>52.7</ele>
        <time>2016-02-17T13:43:53Z</time>
      </trkpt>
      <trkpt lat="47.26915" lon="-1.6699">
        <ele>53</ele>
        <time>2016-02-17T13:43:56Z</time>
      </trkpt>
      <trkpt lat="47.26919" lon="-1.66971">
        <ele>52.8</ele>
        <time>2016-02-17T13:43:59Z</time>
      </trkpt>
      <trkpt lat="47.26923" lon="-1.66957">
        <ele>52.7</ele>
        <time>2016-02-17T13:44:01Z</time>
      </trkpt>
      <trkpt lat="47.26926" lon="-1.66939">
        <ele>52.6</ele>
        <time>2016-02-17T13:44:03Z</time>
      </trkpt>
      <trkpt lat="47.2693" lon="-1.66924">
        <ele>52.4</ele>
        <time>2016-02-17T13:44:05Z</time>
      </trkpt>
      <trkpt lat="47.26934" lon="-1.66903">
        <ele>52.2</ele>
        <time>2016-02-17T13:44:08Z</time>
      </trkpt>
      <trkpt lat="47.26933" lon="-1.6689">
        <ele>52.1</ele>
        <time>2016-02-17T13:44:10Z</time>
      </trkpt>
      <trkpt lat="47.26927" lon="-1.66869">
        <ele>51.7</ele>
        <time>2016-02-17T13:44:13Z</time>
      </trkpt>
      <trkpt lat="47.26922" lon="-1.66855">
        <ele>51.3</ele>
        <time>2016-02-17T13:44:15Z</time>
      </trkpt>
      <trkpt lat="47.26913" lon="-1.66845">
        <ele>51.4</ele>
        <time>2016-02-17T13:44:17Z</time>
      </trkpt>
      <trkpt lat="47.26903" lon="-1.66832">
        <ele>51.2</ele>
        <time>2016-02-17T13:44:19Z</time>
      </trkpt>
      <trkpt lat="47.26893" lon="-1.66823">
        <ele>51.3</ele>
        <time>2016-02-17T13:44:21Z</time>
      </trkpt>
      <trkpt lat="47.26885" lon="-1.66813">
        <ele>51.2</ele>
        <time>2016-02-17T13:44:23Z</time>
      </trkpt>
      <trkpt lat="47.26877" lon="-1.66802">
        <ele>51.4</ele>
        <time>2016-02-17T13:44:25Z</time>
      </trkpt>
      <trkpt lat="47.26868" lon="-1.66791">
        <ele>51.4</ele>
        <time>2016-02-17T13:44:27Z</time>
      </trkpt>
      <trkpt lat="47.26858" lon="-1.66784">
        <ele>51.6</ele>
        <time>2016-02-17T13:44:29Z</time>
      </trkpt>
      <trkpt lat="47.26849" lon="-1.66777">
        <ele>51.4</ele>
        <time>2016-02-17T13:44:31Z</time>
      </trkpt>
      <trkpt lat="47.26838" lon="-1.66764">
        <ele>51.5</ele>
        <time>2016-02-17T13:44:34Z</time>
      </trkpt>
      <trkpt lat="47.26831" lon="-1.66755">
        <ele>51.5</ele>
        <time>2016-02-17T13:44:36Z</time>
      </trkpt>
      <trkpt lat="47.26824" lon="-1.66746">
        <ele>51.8</ele>
        <time>2016-02-17T13:44:38Z</time>
      </trkpt>
      <trkpt lat="47.26813" lon="-1.66722">
        <ele>52</ele>
        <time>2016-02-17T13:44:42Z</time>
      </trkpt>
      <trkpt lat="47.26805" lon="-1.66707">
        <ele>52.1</ele>
        <time>2016-02-17T13:44:45Z</time>
      </trkpt>
      <trkpt lat="47.26801" lon="-1.66693">
        <ele>52</ele>
        <time>2016-02-17T13:44:48Z</time>
      </trkpt>
      <trkpt lat="47.26796" lon="-1.6668">
        <ele>51.7</ele>
        <time>2016-02-17T13:44:51Z</time>
      </trkpt>
      <trkpt lat="47.26791" lon="-1.66667">
        <ele>51.8</ele>
        <time>2016-02-17T13:44:53Z</time>
      </trkpt>
      <trkpt lat="47.26787" lon="-1.66654">
        <ele>51.5</ele>
        <time>2016-02-17T13:44:55Z</time>
      </trkpt>
      <trkpt lat="47.26782" lon="-1.66639">
        <ele>51.2</ele>
        <time>2016-02-17T13:44:58Z</time>
      </trkpt>
      <trkpt lat="47.26778" lon="-1.66626">
        <ele>50.7</ele>
        <time>2016-02-17T13:45:01Z</time>
      </trkpt>
      <trkpt lat="47.26771" lon="-1.66617">
        <ele>50.6</ele>
        <time>2016-02-17T13:45:04Z</time>
      </trkpt>
      <trkpt lat="47.26769" lon="-1.66603">
        <ele>51.6</ele>
        <time>2016-02-17T13:45:11Z</time>
      </trkpt>
      <trkpt lat="47.26763" lon="-1.66573">
        <ele>57</ele>
        <time>2016-02-17T13:45:33Z</time>
      </trkpt>
      <trkpt lat="47.26759" lon="-1.66558">
        <ele>59.3</ele>
        <time>2016-02-17T13:45:38Z</time>
      </trkpt>
      <trkpt lat="47.2676" lon="-1.66541">
        <ele>59.2</ele>
        <time>2016-02-17T13:45:40Z</time>
      </trkpt>
      <trkpt lat="47.26759" lon="-1.66512">
        <ele>61.6</ele>
        <time>2016-02-17T13:45:48Z</time>
      </trkpt>
      <trkpt lat="47.26759" lon="-1.66499">
        <ele>62.7</ele>
        <time>2016-02-17T13:45:54Z</time>
      </trkpt>
      <trkpt lat="47.26759" lon="-1.66484">
        <ele>63.8</ele>
        <time>2016-02-17T13:46:00Z</time>
      </trkpt>
      <trkpt lat="47.26753" lon="-1.66468">
        <ele>63.4</ele>
        <time>2016-02-17T13:46:07Z</time>
      </trkpt>
      <trkpt lat="47.26749" lon="-1.66453">
        <ele>60.7</ele>
        <time>2016-02-17T13:46:10Z</time>
      </trkpt>
      <trkpt lat="47.26744" lon="-1.66439">
        <ele>60.3</ele>
        <time>2016-02-17T13:46:13Z</time>
      </trkpt>
      <trkpt lat="47.26741" lon="-1.66425">
        <ele>60.2</ele>
        <time>2016-02-17T13:46:17Z</time>
      </trkpt>
      <trkpt lat="47.26747" lon="-1.66414">
        <ele>60.8</ele>
        <time>2016-02-17T13:46:26Z</time>
      </trkpt>
      <trkpt lat="47.26755" lon="-1.66409">
        <ele>62</ele>
        <time>2016-02-17T13:46:32Z</time>
      </trkpt>
      <trkpt lat="47.26763" lon="-1.66403">
        <ele>64.3</ele>
        <time>2016-02-17T13:46:37Z</time>
      </trkpt>
      <trkpt lat="47.26771" lon="-1.66396">
        <ele>65.7</ele>
        <time>2016-02-17T13:46:44Z</time>
      </trkpt>
      <trkpt lat="47.2679" lon="-1.66384">
        <ele>69.1</ele>
        <time>2016-02-17T13:46:58Z</time>
      </trkpt>
      <trkpt lat="47.26799" lon="-1.6638">
        <ele>71.1</ele>
        <time>2016-02-17T13:47:03Z</time>
      </trkpt>
      <trkpt lat="47.26807" lon="-1.66372">
        <ele>71.3</ele>
        <time>2016-02-17T13:47:10Z</time>
      </trkpt>
      <trkpt lat="47.26811" lon="-1.6636">
        <ele>72</ele>
        <time>2016-02-17T13:47:20Z</time>
      </trkpt>
      <trkpt lat="47.26802" lon="-1.66353">
        <ele>72.2</ele>
        <time>2016-02-17T13:47:59Z</time>
      </trkpt>
      <trkpt lat="47.2678" lon="-1.66341">
        <ele>70.3</ele>
        <time>2016-02-17T13:48:06Z</time>
      </trkpt>
      <trkpt lat="47.26768" lon="-1.66333">
        <ele>70</ele>
        <time>2016-02-17T13:48:09Z</time>
      </trkpt>
      <trkpt lat="47.26758" lon="-1.66328">
        <ele>69.8</ele>
        <time>2016-02-17T13:48:11Z</time>
      </trkpt>
      <trkpt lat="47.26747" lon="-1.66319">
        <ele>68.5</ele>
        <time>2016-02-17T13:48:14Z</time>
      </trkpt>
      <trkpt lat="47.2674" lon="-1.66301">
        <ele>67.7</ele>
        <time>2016-02-17T13:48:17Z</time>
      </trkpt>
      <trkpt lat="47.26733" lon="-1.66292">
        <ele>67.1</ele>
        <time>2016-02-17T13:48:19Z</time>
      </trkpt>
      <trkpt lat="47.26725" lon="-1.66284">
        <ele>65.6</ele>
        <time>2016-02-17T13:48:21Z</time>
      </trkpt>
      <trkpt lat="47.26716" lon="-1.6628">
        <ele>64.6</ele>
        <time>2016-02-17T13:48:23Z</time>
      </trkpt>
      <trkpt lat="47.26707" lon="-1.66276">
        <ele>63</ele>
        <time>2016-02-17T13:48:25Z</time>
      </trkpt>
      <trkpt lat="47.26699" lon="-1.66266">
        <ele>62</ele>
        <time>2016-02-17T13:48:27Z</time>
      </trkpt>
      <trkpt lat="47.26692" lon="-1.66255">
        <ele>60.4</ele>
        <time>2016-02-17T13:48:29Z</time>
      </trkpt>
      <trkpt lat="47.26688" lon="-1.66241">
        <ele>59.4</ele>
        <time>2016-02-17T13:48:31Z</time>
      </trkpt>
      <trkpt lat="47.26684" lon="-1.66226">
        <ele>58.8</ele>
        <time>2016-02-17T13:48:33Z</time>
      </trkpt>
      <trkpt lat="47.26682" lon="-1.66208">
        <ele>58.1</ele>
        <time>2016-02-17T13:48:36Z</time>
      </trkpt>
      <trkpt lat="47.26678" lon="-1.66195">
        <ele>55.9</ele>
        <time>2016-02-17T13:48:38Z</time>
      </trkpt>
      <trkpt lat="47.26669" lon="-1.66182">
        <ele>54</ele>
        <time>2016-02-17T13:48:41Z</time>
      </trkpt>
      <trkpt lat="47.26662" lon="-1.66169">
        <ele>52.6</ele>
        <time>2016-02-17T13:48:43Z</time>
      </trkpt>
      <trkpt lat="47.26657" lon="-1.66152">
        <ele>51.5</ele>
        <time>2016-02-17T13:48:46Z</time>
      </trkpt>
      <trkpt lat="47.26651" lon="-1.6614">
        <ele>50.5</ele>
        <time>2016-02-17T13:48:49Z</time>
      </trkpt>
      <trkpt lat="47.26645" lon="-1.66128">
        <ele>50.3</ele>
        <time>2016-02-17T13:48:52Z</time>
      </trkpt>
      <trkpt lat="47.26639" lon="-1.66113">
        <ele>49.9</ele>
        <time>2016-02-17T13:48:55Z</time>
      </trkpt>
      <trkpt lat="47.26633" lon="-1.66099">
        <ele>50.2</ele>
        <time>2016-02-17T13:48:58Z</time>
      </trkpt>
      <trkpt lat="47.26624" lon="-1.66086">
        <ele>50</ele>
        <time>2016-02-17T13:49:00Z</time>
      </trkpt>
      <trkpt lat="47.26609" lon="-1.66068">
        <ele>49.3</ele>
        <time>2016-02-17T13:49:05Z</time>
      </trkpt>
      <trkpt lat="47.266" lon="-1.66061">
        <ele>49.2</ele>
        <time>2016-02-17T13:49:08Z</time>
      </trkpt>
      <trkpt lat="47.26589" lon="-1.66055">
        <ele>49</ele>
        <time>2016-02-17T13:49:12Z</time>
      </trkpt>
      <trkpt lat="47.26578" lon="-1.66049">
        <ele>49</ele>
        <time>2016-02-17T13:49:16Z</time>
      </trkpt>
      <trkpt lat="47.26566" lon="-1.66047">
        <ele>48.7</ele>
        <time>2016-02-17T13:49:20Z</time>
      </trkpt>
      <trkpt lat="47.26557" lon="-1.66043">
        <ele>48.6</ele>
        <time>2016-02-17T13:49:23Z</time>
      </trkpt>
      <trkpt lat="47.26547" lon="-1.66034">
        <ele>49.5</ele>
        <time>2016-02-17T13:49:28Z</time>
      </trkpt>
      <trkpt lat="47.26539" lon="-1.66021">
        <ele>50.1</ele>
        <time>2016-02-17T13:49:32Z</time>
      </trkpt>
      <trkpt lat="47.26535" lon="-1.66008">
        <ele>49.6</ele>
        <time>2016-02-17T13:49:36Z</time>
      </trkpt>
      <trkpt lat="47.26532" lon="-1.65995">
        <ele>48.8</ele>
        <time>2016-02-17T13:49:40Z</time>
      </trkpt>
      <trkpt lat="47.26538" lon="-1.65982">
        <ele>48.9</ele>
        <time>2016-02-17T13:49:49Z</time>
      </trkpt>
      <trkpt lat="47.26546" lon="-1.65974">
        <ele>50.3</ele>
        <time>2016-02-17T13:49:56Z</time>
      </trkpt>
      <trkpt lat="47.26554" lon="-1.65968">
        <ele>51.3</ele>
        <time>2016-02-17T13:50:01Z</time>
      </trkpt>
      <trkpt lat="47.26571" lon="-1.65955">
        <ele>54</ele>
        <time>2016-02-17T13:50:12Z</time>
      </trkpt>
      <trkpt lat="47.26581" lon="-1.65953">
        <ele>55.4</ele>
        <time>2016-02-17T13:50:22Z</time>
      </trkpt>
      <trkpt lat="47.2659" lon="-1.65952">
        <ele>55.8</ele>
        <time>2016-02-17T13:50:29Z</time>
      </trkpt>
      <trkpt lat="47.26599" lon="-1.65949">
        <ele>57</ele>
        <time>2016-02-17T13:50:36Z</time>
      </trkpt>
      <trkpt lat="47.26608" lon="-1.65948">
        <ele>58.2</ele>
        <time>2016-02-17T13:50:43Z</time>
      </trkpt>
      <trkpt lat="47.26616" lon="-1.65936">
        <ele>58.2</ele>
        <time>2016-02-17T13:51:07Z</time>
      </trkpt>
      <trkpt lat="47.2662" lon="-1.65907">
        <ele>53.1</ele>
        <time>2016-02-17T13:51:15Z</time>
      </trkpt>
      <trkpt lat="47.26619" lon="-1.65893">
        <ele>51.4</ele>
        <time>2016-02-17T13:51:17Z</time>
      </trkpt>
      <trkpt lat="47.26629" lon="-1.65881">
        <ele>50</ele>
        <time>2016-02-17T13:51:20Z</time>
      </trkpt>
      <trkpt lat="47.26638" lon="-1.65877">
        <ele>49.1</ele>
        <time>2016-02-17T13:51:22Z</time>
      </trkpt>
      <trkpt lat="47.26648" lon="-1.65871">
        <ele>48.6</ele>
        <time>2016-02-17T13:51:26Z</time>
      </trkpt>
      <trkpt lat="47.26657" lon="-1.6587">
        <ele>48.6</ele>
        <time>2016-02-17T13:51:30Z</time>
      </trkpt>
      <trkpt lat="47.26668" lon="-1.65867">
        <ele>48.5</ele>
        <time>2016-02-17T13:51:38Z</time>
      </trkpt>
      <trkpt lat="47.26678" lon="-1.65863">
        <ele>48.3</ele>
        <time>2016-02-17T13:51:42Z</time>
      </trkpt>
      <trkpt lat="47.2669" lon="-1.65854">
        <ele>47.8</ele>
        <time>2016-02-17T13:51:46Z</time>
      </trkpt>
      <trkpt lat="47.26702" lon="-1.65851">
        <ele>47.8</ele>
        <time>2016-02-17T13:51:49Z</time>
      </trkpt>
      <trkpt lat="47.26711" lon="-1.65849">
        <ele>47.5</ele>
        <time>2016-02-17T13:51:53Z</time>
      </trkpt>
      <trkpt lat="47.26719" lon="-1.65843">
        <ele>46.7</ele>
        <time>2016-02-17T13:51:56Z</time>
      </trkpt>
      <trkpt lat="47.2673" lon="-1.65843">
        <ele>46.5</ele>
        <time>2016-02-17T13:51:59Z</time>
      </trkpt>
      <trkpt lat="47.26739" lon="-1.6584">
        <ele>46.6</ele>
        <time>2016-02-17T13:52:02Z</time>
      </trkpt>
      <trkpt lat="47.26747" lon="-1.6583">
        <ele>45.9</ele>
        <time>2016-02-17T13:52:05Z</time>
      </trkpt>
      <trkpt lat="47.26755" lon="-1.65818">
        <ele>45.5</ele>
        <time>2016-02-17T13:52:08Z</time>
      </trkpt>
      <trkpt lat="47.26772" lon="-1.65797">
        <ele>45.5</ele>
        <time>2016-02-17T13:52:16Z</time>
      </trkpt>
      <trkpt lat="47.26782" lon="-1.65788">
        <ele>45.1</ele>
        <time>2016-02-17T13:52:18Z</time>
      </trkpt>
      <trkpt lat="47.26793" lon="-1.65783">
        <ele>45.2</ele>
        <time>2016-02-17T13:52:21Z</time>
      </trkpt>
      <trkpt lat="47.26804" lon="-1.65779">
        <ele>45.1</ele>
        <time>2016-02-17T13:52:25Z</time>
      </trkpt>
      <trkpt lat="47.26812" lon="-1.65773">
        <ele>45.4</ele>
        <time>2016-02-17T13:52:28Z</time>
      </trkpt>
      <trkpt lat="47.26818" lon="-1.65763">
        <ele>45.9</ele>
        <time>2016-02-17T13:52:32Z</time>
      </trkpt>
      <trkpt lat="47.26823" lon="-1.65751">
        <ele>45.9</ele>
        <time>2016-02-17T13:52:36Z</time>
      </trkpt>
      <trkpt lat="47.2683" lon="-1.6574">
        <ele>45.4</ele>
        <time>2016-02-17T13:52:40Z</time>
      </trkpt>
      <trkpt lat="47.26837" lon="-1.65729">
        <ele>45.3</ele>
        <time>2016-02-17T13:52:44Z</time>
      </trkpt>
      <trkpt lat="47.26844" lon="-1.6571">
        <ele>45.1</ele>
        <time>2016-02-17T13:52:48Z</time>
      </trkpt>
      <trkpt lat="47.26849" lon="-1.65694">
        <ele>45.4</ele>
        <time>2016-02-17T13:52:51Z</time>
      </trkpt>
      <trkpt lat="47.26855" lon="-1.65683">
        <ele>45.6</ele>
        <time>2016-02-17T13:52:54Z</time>
      </trkpt>
      <trkpt lat="47.26852" lon="-1.65669">
        <ele>45.1</ele>
        <time>2016-02-17T13:52:59Z</time>
      </trkpt>
      <trkpt lat="47.2685" lon="-1.65653">
        <ele>44.7</ele>
        <time>2016-02-17T13:53:04Z</time>
      </trkpt>
      <trkpt lat="47.26855" lon="-1.6564">
        <ele>44.7</ele>
        <time>2016-02-17T13:53:11Z</time>
      </trkpt>
      <trkpt lat="47.26857" lon="-1.65609">
        <ele>44.7</ele>
        <time>2016-02-17T13:53:20Z</time>
      </trkpt>
      <trkpt lat="47.26854" lon="-1.65594">
        <ele>44.6</ele>
        <time>2016-02-17T13:53:24Z</time>
      </trkpt>
      <trkpt lat="47.26852" lon="-1.65581">
        <ele>44.5</ele>
        <time>2016-02-17T13:53:28Z</time>
      </trkpt>
      <trkpt lat="47.26852" lon="-1.65566">
        <ele>44.4</ele>
        <time>2016-02-17T13:53:34Z</time>
      </trkpt>
      <trkpt lat="47.26848" lon="-1.65553">
        <ele>44.3</ele>
        <time>2016-02-17T13:53:39Z</time>
      </trkpt>
      <trkpt lat="47.26839" lon="-1.65548">
        <ele>44.5</ele>
        <time>2016-02-17T13:53:47Z</time>
      </trkpt>
      <trkpt lat="47.2683" lon="-1.65541">
        <ele>44.1</ele>
        <time>2016-02-17T13:53:50Z</time>
      </trkpt>
      <trkpt lat="47.2682" lon="-1.65541">
        <ele>44.1</ele>
        <time>2016-02-17T13:53:54Z</time>
      </trkpt>
      <trkpt lat="47.2681" lon="-1.65543">
        <ele>45.2</ele>
        <time>2016-02-17T13:53:58Z</time>
      </trkpt>
      <trkpt lat="47.268" lon="-1.65546">
        <ele>46.2</ele>
        <time>2016-02-17T13:54:03Z</time>
      </trkpt>
      <trkpt lat="47.26789" lon="-1.65548">
        <ele>47.2</ele>
        <time>2016-02-17T13:54:09Z</time>
      </trkpt>
      <trkpt lat="47.2678" lon="-1.65545">
        <ele>48.4</ele>
        <time>2016-02-17T13:54:15Z</time>
      </trkpt>
      <trkpt lat="47.26767" lon="-1.65522">
        <ele>50.3</ele>
        <time>2016-02-17T13:54:44Z</time>
      </trkpt>
      <trkpt lat="47.26767" lon="-1.65506">
        <ele>50.1</ele>
        <time>2016-02-17T13:54:50Z</time>
      </trkpt>
      <trkpt lat="47.26767" lon="-1.6549">
        <ele>49.8</ele>
        <time>2016-02-17T13:54:55Z</time>
      </trkpt>
      <trkpt lat="47.26764" lon="-1.65475">
        <ele>49.2</ele>
        <time>2016-02-17T13:54:59Z</time>
      </trkpt>
      <trkpt lat="47.26762" lon="-1.65462">
        <ele>49.4</ele>
        <time>2016-02-17T13:55:03Z</time>
      </trkpt>
      <trkpt lat="47.26761" lon="-1.65449">
        <ele>49</ele>
        <time>2016-02-17T13:55:07Z</time>
      </trkpt>
      <trkpt lat="47.26761" lon="-1.65431">
        <ele>49.3</ele>
        <time>2016-02-17T13:55:12Z</time>
      </trkpt>
      <trkpt lat="47.26757" lon="-1.65419">
        <ele>49.9</ele>
        <time>2016-02-17T13:55:18Z</time>
      </trkpt>
      <trkpt lat="47.26756" lon="-1.65388">
        <ele>50.4</ele>
        <time>2016-02-17T13:55:27Z</time>
      </trkpt>
      <trkpt lat="47.26752" lon="-1.65375">
        <ele>51</ele>
        <time>2016-02-17T13:55:32Z</time>
      </trkpt>
      <trkpt lat="47.26745" lon="-1.65363">
        <ele>51.8</ele>
        <time>2016-02-17T13:55:38Z</time>
      </trkpt>
      <trkpt lat="47.26736" lon="-1.65354">
        <ele>53.1</ele>
        <time>2016-02-17T13:55:43Z</time>
      </trkpt>
      <trkpt lat="47.26727" lon="-1.65349">
        <ele>54</ele>
        <time>2016-02-17T13:55:57Z</time>
      </trkpt>
      <trkpt lat="47.2672" lon="-1.65342">
        <ele>54.8</ele>
        <time>2016-02-17T13:56:04Z</time>
      </trkpt>
      <trkpt lat="47.2671" lon="-1.65337">
        <ele>55.6</ele>
        <time>2016-02-17T13:56:11Z</time>
      </trkpt>
      <trkpt lat="47.26702" lon="-1.6533">
        <ele>56.3</ele>
        <time>2016-02-17T13:56:18Z</time>
      </trkpt>
      <trkpt lat="47.26693" lon="-1.65326">
        <ele>57.4</ele>
        <time>2016-02-17T13:56:26Z</time>
      </trkpt>
      <trkpt lat="47.26674" lon="-1.65319">
        <ele>59.8</ele>
        <time>2016-02-17T13:56:41Z</time>
      </trkpt>
      <trkpt lat="47.26666" lon="-1.65314">
        <ele>61.3</ele>
        <time>2016-02-17T13:56:49Z</time>
      </trkpt>
      <trkpt lat="47.26663" lon="-1.65301">
        <ele>63.1</ele>
        <time>2016-02-17T13:57:39Z</time>
      </trkpt>
      <trkpt lat="47.26645" lon="-1.65292">
        <ele>65.9</ele>
        <time>2016-02-17T13:57:56Z</time>
      </trkpt>
      <trkpt lat="47.26635" lon="-1.6529">
        <ele>67.4</ele>
        <time>2016-02-17T13:58:03Z</time>
      </trkpt>
      <trkpt lat="47.26625" lon="-1.65288">
        <ele>68.6</ele>
        <time>2016-02-17T13:58:09Z</time>
      </trkpt>
      <trkpt lat="47.26623" lon="-1.65274">
        <ele>69.2</ele>
        <time>2016-02-17T13:58:33Z</time>
      </trkpt>
      <trkpt lat="47.26632" lon="-1.65276">
        <ele>67.9</ele>
        <time>2016-02-17T13:58:41Z</time>
      </trkpt>
      <trkpt lat="47.2665" lon="-1.65262">
        <ele>64.8</ele>
        <time>2016-02-17T13:58:51Z</time>
      </trkpt>
      <trkpt lat="47.26661" lon="-1.65254">
        <ele>63.8</ele>
        <time>2016-02-17T13:58:54Z</time>
      </trkpt>
      <trkpt lat="47.26671" lon="-1.65241">
        <ele>63.3</ele>
        <time>2016-02-17T13:58:57Z</time>
      </trkpt>
      <trkpt lat="47.26677" lon="-1.65228">
        <ele>63.1</ele>
        <time>2016-02-17T13:59:00Z</time>
      </trkpt>
      <trkpt lat="47.26683" lon="-1.65215">
        <ele>62.2</ele>
        <time>2016-02-17T13:59:03Z</time>
      </trkpt>
      <trkpt lat="47.26693" lon="-1.65207">
        <ele>59.8</ele>
        <time>2016-02-17T13:59:07Z</time>
      </trkpt>
      <trkpt lat="47.26701" lon="-1.65197">
        <ele>58</ele>
        <time>2016-02-17T13:59:12Z</time>
      </trkpt>
      <trkpt lat="47.26711" lon="-1.6519">
        <ele>57.3</ele>
        <time>2016-02-17T13:59:14Z</time>
      </trkpt>
      <trkpt lat="47.26719" lon="-1.65182">
        <ele>56.8</ele>
        <time>2016-02-17T13:59:17Z</time>
      </trkpt>
      <trkpt lat="47.26727" lon="-1.65175">
        <ele>59.3</ele>
        <time>2016-02-17T13:59:31Z</time>
      </trkpt>
      <trkpt lat="47.26735" lon="-1.65166">
        <ele>60.2</ele>
        <time>2016-02-17T13:59:43Z</time>
      </trkpt>
      <trkpt lat="47.26754" lon="-1.65152">
        <ele>58.9</ele>
        <time>2016-02-17T13:59:51Z</time>
      </trkpt>
      <trkpt lat="47.26755" lon="-1.65167">
        <ele>55.1</ele>
        <time>2016-02-17T13:59:58Z</time>
      </trkpt>
      <trkpt lat="47.26765" lon="-1.65167">
        <ele>49.8</ele>
        <time>2016-02-17T14:00:12Z</time>
      </trkpt>
      <trkpt lat="47.26768" lon="-1.65181">
        <ele>45.4</ele>
        <time>2016-02-17T14:00:20Z</time>
      </trkpt>
      <trkpt lat="47.26777" lon="-1.65175">
        <ele>43.4</ele>
        <time>2016-02-17T14:00:34Z</time>
      </trkpt>
      <trkpt lat="47.26784" lon="-1.65165">
        <ele>42.5</ele>
        <time>2016-02-17T14:00:38Z</time>
      </trkpt>
      <trkpt lat="47.26792" lon="-1.65155">
        <ele>42.3</ele>
        <time>2016-02-17T14:00:41Z</time>
      </trkpt>
      <trkpt lat="47.268" lon="-1.65146">
        <ele>42.2</ele>
        <time>2016-02-17T14:00:45Z</time>
      </trkpt>
      <trkpt lat="47.2681" lon="-1.65116">
        <ele>42</ele>
        <time>2016-02-17T14:00:52Z</time>
      </trkpt>
      <trkpt lat="47.26816" lon="-1.65105">
        <ele>42.7</ele>
        <time>2016-02-17T14:00:54Z</time>
      </trkpt>
      <trkpt lat="47.2682" lon="-1.6509">
        <ele>43.1</ele>
        <time>2016-02-17T14:00:58Z</time>
      </trkpt>
      <trkpt lat="47.26823" lon="-1.65076">
        <ele>43.7</ele>
        <time>2016-02-17T14:01:02Z</time>
      </trkpt>
      <trkpt lat="47.26828" lon="-1.65061">
        <ele>44.2</ele>
        <time>2016-02-17T14:01:06Z</time>
      </trkpt>
      <trkpt lat="47.26829" lon="-1.65047">
        <ele>45.3</ele>
        <time>2016-02-17T14:01:11Z</time>
      </trkpt>
      <trkpt lat="47.26829" lon="-1.65033">
        <ele>46.2</ele>
        <time>2016-02-17T14:01:15Z</time>
      </trkpt>
      <trkpt lat="47.26831" lon="-1.65017">
        <ele>46.8</ele>
        <time>2016-02-17T14:01:21Z</time>
      </trkpt>
      <trkpt lat="47.2683" lon="-1.65004">
        <ele>44.8</ele>
        <time>2016-02-17T14:01:24Z</time>
      </trkpt>
      <trkpt lat="47.26833" lon="-1.64991">
        <ele>44.2</ele>
        <time>2016-02-17T14:01:30Z</time>
      </trkpt>
      <trkpt lat="47.26838" lon="-1.64978">
        <ele>43.8</ele>
        <time>2016-02-17T14:01:35Z</time>
      </trkpt>
      <trkpt lat="47.26845" lon="-1.64968">
        <ele>44.3</ele>
        <time>2016-02-17T14:01:40Z</time>
      </trkpt>
      <trkpt lat="47.26854" lon="-1.64961">
        <ele>43.1</ele>
        <time>2016-02-17T14:01:45Z</time>
      </trkpt>
      <trkpt lat="47.2686" lon="-1.64949">
        <ele>41.9</ele>
        <time>2016-02-17T14:01:50Z</time>
      </trkpt>
      <trkpt lat="47.26869" lon="-1.64924">
        <ele>41.6</ele>
        <time>2016-02-17T14:01:56Z</time>
      </trkpt>
      <trkpt lat="47.26875" lon="-1.6491">
        <ele>41.4</ele>
        <time>2016-02-17T14:02:02Z</time>
      </trkpt>
      <trkpt lat="47.26881" lon="-1.649">
        <ele>41.2</ele>
        <time>2016-02-17T14:02:07Z</time>
      </trkpt>
      <trkpt lat="47.26887" lon="-1.64888">
        <ele>43.2</ele>
        <time>2016-02-17T14:02:12Z</time>
      </trkpt>
      <trkpt lat="47.26891" lon="-1.64873">
        <ele>43.3</ele>
        <time>2016-02-17T14:02:17Z</time>
      </trkpt>
      <trkpt lat="47.26895" lon="-1.64858">
        <ele>44.4</ele>
        <time>2016-02-17T14:02:22Z</time>
      </trkpt>
      <trkpt lat="47.26896" lon="-1.6484">
        <ele>44.9</ele>
        <time>2016-02-17T14:02:26Z</time>
      </trkpt>
      <trkpt lat="47.26899" lon="-1.64825">
        <ele>45.7</ele>
        <time>2016-02-17T14:02:30Z</time>
      </trkpt>
      <trkpt lat="47.26904" lon="-1.64813">
        <ele>45.7</ele>
        <time>2016-02-17T14:02:34Z</time>
      </trkpt>
      <trkpt lat="47.26905" lon="-1.64798">
        <ele>45.4</ele>
        <time>2016-02-17T14:02:39Z</time>
      </trkpt>
      <trkpt lat="47.26907" lon="-1.64783">
        <ele>45.6</ele>
        <time>2016-02-17T14:02:45Z</time>
      </trkpt>
      <trkpt lat="47.26912" lon="-1.64769">
        <ele>46.5</ele>
        <time>2016-02-17T14:02:51Z</time>
      </trkpt>
      <trkpt lat="47.26933" lon="-1.64754">
        <ele>45.2</ele>
        <time>2016-02-17T14:02:57Z</time>
      </trkpt>
      <trkpt lat="47.26941" lon="-1.64744">
        <ele>44.6</ele>
        <time>2016-02-17T14:03:00Z</time>
      </trkpt>
      <trkpt lat="47.2695" lon="-1.64736">
        <ele>44.1</ele>
        <time>2016-02-17T14:03:03Z</time>
      </trkpt>
      <trkpt lat="47.26956" lon="-1.64726">
        <ele>43.1</ele>
        <time>2016-02-17T14:03:06Z</time>
      </trkpt>
      <trkpt lat="47.26962" lon="-1.64713">
        <ele>41.7</ele>
        <time>2016-02-17T14:03:09Z</time>
      </trkpt>
      <trkpt lat="47.26965" lon="-1.647">
        <ele>40.9</ele>
        <time>2016-02-17T14:03:12Z</time>
      </trkpt>
      <trkpt lat="47.26969" lon="-1.64683">
        <ele>40.8</ele>
        <time>2016-02-17T14:03:15Z</time>
      </trkpt>
      <trkpt lat="47.26972" lon="-1.64669">
        <ele>41.1</ele>
        <time>2016-02-17T14:03:18Z</time>
      </trkpt>
      <trkpt lat="47.26975" lon="-1.64654">
        <ele>40.6</ele>
        <time>2016-02-17T14:03:21Z</time>
      </trkpt>
      <trkpt lat="47.26977" lon="-1.64638">
        <ele>40.6</ele>
        <time>2016-02-17T14:03:25Z</time>
      </trkpt>
      <trkpt lat="47.2698" lon="-1.64625">
        <ele>40.3</ele>
        <time>2016-02-17T14:03:27Z</time>
      </trkpt>
      <trkpt lat="47.26977" lon="-1.64611">
        <ele>40.4</ele>
        <time>2016-02-17T14:03:31Z</time>
      </trkpt>
      <trkpt lat="47.26976" lon="-1.64593">
        <ele>39.6</ele>
        <time>2016-02-17T14:03:35Z</time>
      </trkpt>
      <trkpt lat="47.26977" lon="-1.64579">
        <ele>38.8</ele>
        <time>2016-02-17T14:03:39Z</time>
      </trkpt>
      <trkpt lat="47.26982" lon="-1.64567">
        <ele>39.5</ele>
        <time>2016-02-17T14:03:43Z</time>
      </trkpt>
      <trkpt lat="47.26982" lon="-1.6455">
        <ele>40</ele>
        <time>2016-02-17T14:03:48Z</time>
      </trkpt>
      <trkpt lat="47.26984" lon="-1.64533">
        <ele>40</ele>
        <time>2016-02-17T14:03:52Z</time>
      </trkpt>
      <trkpt lat="47.26986" lon="-1.64504">
        <ele>39.2</ele>
        <time>2016-02-17T14:03:57Z</time>
      </trkpt>
      <trkpt lat="47.26989" lon="-1.64491">
        <ele>39</ele>
        <time>2016-02-17T14:03:59Z</time>
      </trkpt>
      <trkpt lat="47.26992" lon="-1.64475">
        <ele>39.1</ele>
        <time>2016-02-17T14:04:02Z</time>
      </trkpt>
      <trkpt lat="47.26991" lon="-1.64459">
        <ele>39.8</ele>
        <time>2016-02-17T14:04:06Z</time>
      </trkpt>
      <trkpt lat="47.26996" lon="-1.64444">
        <ele>38.5</ele>
        <time>2016-02-17T14:04:14Z</time>
      </trkpt>
      <trkpt lat="47.26994" lon="-1.64428">
        <ele>37.6</ele>
        <time>2016-02-17T14:04:18Z</time>
      </trkpt>
      <trkpt lat="47.27" lon="-1.64415">
        <ele>37.4</ele>
        <time>2016-02-17T14:04:21Z</time>
      </trkpt>
      <trkpt lat="47.27003" lon="-1.64402">
        <ele>37.8</ele>
        <time>2016-02-17T14:04:24Z</time>
      </trkpt>
      <trkpt lat="47.27006" lon="-1.64389">
        <ele>37.5</ele>
        <time>2016-02-17T14:04:27Z</time>
      </trkpt>
      <trkpt lat="47.2701" lon="-1.64375">
        <ele>37.6</ele>
        <time>2016-02-17T14:04:29Z</time>
      </trkpt>
      <trkpt lat="47.27011" lon="-1.64357">
        <ele>37.8</ele>
        <time>2016-02-17T14:04:32Z</time>
      </trkpt>
      <trkpt lat="47.27012" lon="-1.64343">
        <ele>38.1</ele>
        <time>2016-02-17T14:04:35Z</time>
      </trkpt>
      <trkpt lat="47.27011" lon="-1.64326">
        <ele>38.3</ele>
        <time>2016-02-17T14:04:38Z</time>
      </trkpt>
      <trkpt lat="47.2701" lon="-1.6431">
        <ele>37.6</ele>
        <time>2016-02-17T14:04:41Z</time>
      </trkpt>
      <trkpt lat="47.27009" lon="-1.64295">
        <ele>37.8</ele>
        <time>2016-02-17T14:04:45Z</time>
      </trkpt>
      <trkpt lat="47.27005" lon="-1.64279">
        <ele>37.4</ele>
        <time>2016-02-17T14:04:48Z</time>
      </trkpt>
      <trkpt lat="47.27001" lon="-1.64261">
        <ele>35.9</ele>
        <time>2016-02-17T14:04:52Z</time>
      </trkpt>
      <trkpt lat="47.26997" lon="-1.64249">
        <ele>36.3</ele>
        <time>2016-02-17T14:04:54Z</time>
      </trkpt>
      <trkpt lat="47.26984" lon="-1.64221">
        <ele>36.4</ele>
        <time>2016-02-17T14:04:59Z</time>
      </trkpt>
      <trkpt lat="47.26976" lon="-1.6421">
        <ele>36.7</ele>
        <time>2016-02-17T14:05:02Z</time>
      </trkpt>
      <trkpt lat="47.26969" lon="-1.64192">
        <ele>36.2</ele>
        <time>2016-02-17T14:05:05Z</time>
      </trkpt>
      <trkpt lat="47.2696" lon="-1.64181">
        <ele>35.6</ele>
        <time>2016-02-17T14:05:08Z</time>
      </trkpt>
      <trkpt lat="47.26952" lon="-1.6417">
        <ele>35.5</ele>
        <time>2016-02-17T14:05:11Z</time>
      </trkpt>
      <trkpt lat="47.26945" lon="-1.64157">
        <ele>35.6</ele>
        <time>2016-02-17T14:05:15Z</time>
      </trkpt>
      <trkpt lat="47.26937" lon="-1.64145">
        <ele>35.9</ele>
        <time>2016-02-17T14:05:18Z</time>
      </trkpt>
      <trkpt lat="47.2693" lon="-1.64133">
        <ele>35.8</ele>
        <time>2016-02-17T14:05:21Z</time>
      </trkpt>
      <trkpt lat="47.26922" lon="-1.6412">
        <ele>36.3</ele>
        <time>2016-02-17T14:05:24Z</time>
      </trkpt>
      <trkpt lat="47.26914" lon="-1.64107">
        <ele>36.4</ele>
        <time>2016-02-17T14:05:27Z</time>
      </trkpt>
      <trkpt lat="47.26906" lon="-1.64091">
        <ele>35.8</ele>
        <time>2016-02-17T14:05:30Z</time>
      </trkpt>
      <trkpt lat="47.26899" lon="-1.64077">
        <ele>36.3</ele>
        <time>2016-02-17T14:05:33Z</time>
      </trkpt>
      <trkpt lat="47.26894" lon="-1.64063">
        <ele>36</ele>
        <time>2016-02-17T14:05:36Z</time>
      </trkpt>
      <trkpt lat="47.26891" lon="-1.64049">
        <ele>34.9</ele>
        <time>2016-02-17T14:05:39Z</time>
      </trkpt>
      <trkpt lat="47.26885" lon="-1.64035">
        <ele>34.8</ele>
        <time>2016-02-17T14:05:44Z</time>
      </trkpt>
      <trkpt lat="47.26879" lon="-1.64021">
        <ele>35.1</ele>
        <time>2016-02-17T14:05:48Z</time>
      </trkpt>
      <trkpt lat="47.26875" lon="-1.64007">
        <ele>34.6</ele>
        <time>2016-02-17T14:05:52Z</time>
      </trkpt>
      <trkpt lat="47.26872" lon="-1.63991">
        <ele>34</ele>
        <time>2016-02-17T14:05:57Z</time>
      </trkpt>
      <trkpt lat="47.26854" lon="-1.63976">
        <ele>33.8</ele>
        <time>2016-02-17T14:06:04Z</time>
      </trkpt>
      <trkpt lat="47.26844" lon="-1.63972">
        <ele>33.9</ele>
        <time>2016-02-17T14:06:07Z</time>
      </trkpt>
      <trkpt lat="47.26834" lon="-1.6397">
        <ele>33.4</ele>
        <time>2016-02-17T14:06:10Z</time>
      </trkpt>
      <trkpt lat="47.26823" lon="-1.63969">
        <ele>33.7</ele>
        <time>2016-02-17T14:06:14Z</time>
      </trkpt>
      <trkpt lat="47.26813" lon="-1.63973">
        <ele>33.8</ele>
        <time>2016-02-17T14:06:17Z</time>
      </trkpt>
      <trkpt lat="47.26802" lon="-1.63979">
        <ele>33.8</ele>
        <time>2016-02-17T14:06:20Z</time>
      </trkpt>
      <trkpt lat="47.26793" lon="-1.63987">
        <ele>33.5</ele>
        <time>2016-02-17T14:06:23Z</time>
      </trkpt>
      <trkpt lat="47.26783" lon="-1.63994">
        <ele>33.2</ele>
        <time>2016-02-17T14:06:27Z</time>
      </trkpt>
      <trkpt lat="47.26774" lon="-1.63997">
        <ele>33.2</ele>
        <time>2016-02-17T14:06:31Z</time>
      </trkpt>
      <trkpt lat="47.26763" lon="-1.64002">
        <ele>33.3</ele>
        <time>2016-02-17T14:06:33Z</time>
      </trkpt>
      <trkpt lat="47.26753" lon="-1.64004">
        <ele>33.3</ele>
        <time>2016-02-17T14:06:37Z</time>
      </trkpt>
      <trkpt lat="47.26743" lon="-1.63999">
        <ele>33.2</ele>
        <time>2016-02-17T14:07:12Z</time>
      </trkpt>
      <trkpt lat="47.26729" lon="-1.6398">
        <ele>33.8</ele>
        <time>2016-02-17T14:07:21Z</time>
      </trkpt>
      <trkpt lat="47.26729" lon="-1.63966">
        <ele>35.4</ele>
        <time>2016-02-17T14:07:28Z</time>
      </trkpt>
      <trkpt lat="47.26729" lon="-1.63953">
        <ele>36.8</ele>
        <time>2016-02-17T14:07:36Z</time>
      </trkpt>
      <trkpt lat="47.26731" lon="-1.63939">
        <ele>38.2</ele>
        <time>2016-02-17T14:07:42Z</time>
      </trkpt>
      <trkpt lat="47.26727" lon="-1.63922">
        <ele>36.7</ele>
        <time>2016-02-17T14:07:46Z</time>
      </trkpt>
      <trkpt lat="47.26723" lon="-1.63911">
        <ele>35.9</ele>
        <time>2016-02-17T14:07:48Z</time>
      </trkpt>
      <trkpt lat="47.26723" lon="-1.63895">
        <ele>35.3</ele>
        <time>2016-02-17T14:07:51Z</time>
      </trkpt>
      <trkpt lat="47.26724" lon="-1.63882">
        <ele>35.1</ele>
        <time>2016-02-17T14:07:54Z</time>
      </trkpt>
      <trkpt lat="47.26725" lon="-1.63868">
        <ele>34.9</ele>
        <time>2016-02-17T14:07:57Z</time>
      </trkpt>
      <trkpt lat="47.26726" lon="-1.63852">
        <ele>34.9</ele>
        <time>2016-02-17T14:08:02Z</time>
      </trkpt>
      <trkpt lat="47.26725" lon="-1.63837">
        <ele>34.9</ele>
        <time>2016-02-17T14:08:07Z</time>
      </trkpt>
      <trkpt lat="47.26727" lon="-1.6382">
        <ele>34.8</ele>
        <time>2016-02-17T14:08:11Z</time>
      </trkpt>
      <trkpt lat="47.26726" lon="-1.63799">
        <ele>34.4</ele>
        <time>2016-02-17T14:08:15Z</time>
      </trkpt>
      <trkpt lat="47.26727" lon="-1.63766">
        <ele>34.1</ele>
        <time>2016-02-17T14:08:20Z</time>
      </trkpt>
      <trkpt lat="47.2673" lon="-1.63751">
        <ele>34.3</ele>
        <time>2016-02-17T14:08:24Z</time>
      </trkpt>
      <trkpt lat="47.26733" lon="-1.63734">
        <ele>34.6</ele>
        <time>2016-02-17T14:08:28Z</time>
      </trkpt>
      <trkpt lat="47.26737" lon="-1.6372">
        <ele>35</ele>
        <time>2016-02-17T14:08:31Z</time>
      </trkpt>
      <trkpt lat="47.26742" lon="-1.63708">
        <ele>34.9</ele>
        <time>2016-02-17T14:08:34Z</time>
      </trkpt>
      <trkpt lat="47.26747" lon="-1.63695">
        <ele>35.4</ele>
        <time>2016-02-17T14:08:39Z</time>
      </trkpt>
      <trkpt lat="47.26752" lon="-1.63684">
        <ele>36.6</ele>
        <time>2016-02-17T14:08:44Z</time>
      </trkpt>
      <trkpt lat="47.26757" lon="-1.63672">
        <ele>37.4</ele>
        <time>2016-02-17T14:08:48Z</time>
      </trkpt>
      <trkpt lat="47.26759" lon="-1.63659">
        <ele>38.5</ele>
        <time>2016-02-17T14:08:53Z</time>
      </trkpt>
      <trkpt lat="47.26763" lon="-1.63644">
        <ele>38.9</ele>
        <time>2016-02-17T14:08:58Z</time>
      </trkpt>
      <trkpt lat="47.26768" lon="-1.63631">
        <ele>38.8</ele>
        <time>2016-02-17T14:09:02Z</time>
      </trkpt>
      <trkpt lat="47.26776" lon="-1.63621">
        <ele>38.7</ele>
        <time>2016-02-17T14:09:05Z</time>
      </trkpt>
      <trkpt lat="47.26785" lon="-1.63612">
        <ele>38.6</ele>
        <time>2016-02-17T14:09:08Z</time>
      </trkpt>
      <trkpt lat="47.26795" lon="-1.63606">
        <ele>38.9</ele>
        <time>2016-02-17T14:09:11Z</time>
      </trkpt>
      <trkpt lat="47.26803" lon="-1.63599">
        <ele>39.1</ele>
        <time>2016-02-17T14:09:14Z</time>
      </trkpt>
      <trkpt lat="47.26809" lon="-1.63584">
        <ele>39</ele>
        <time>2016-02-17T14:09:18Z</time>
      </trkpt>
      <trkpt lat="47.26822" lon="-1.63555">
        <ele>39</ele>
        <time>2016-02-17T14:09:27Z</time>
      </trkpt>
      <trkpt lat="47.26828" lon="-1.63541">
        <ele>38.7</ele>
        <time>2016-02-17T14:09:30Z</time>
      </trkpt>
      <trkpt lat="47.26833" lon="-1.63529">
        <ele>38.5</ele>
        <time>2016-02-17T14:09:33Z</time>
      </trkpt>
      <trkpt lat="47.26837" lon="-1.63513">
        <ele>38.8</ele>
        <time>2016-02-17T14:09:36Z</time>
      </trkpt>
      <trkpt lat="47.26841" lon="-1.63497">
        <ele>38.8</ele>
        <time>2016-02-17T14:09:39Z</time>
      </trkpt>
      <trkpt lat="47.26848" lon="-1.63483">
        <ele>38.7</ele>
        <time>2016-02-17T14:09:42Z</time>
      </trkpt>
      <trkpt lat="47.26852" lon="-1.63467">
        <ele>38.8</ele>
        <time>2016-02-17T14:09:45Z</time>
      </trkpt>
      <trkpt lat="47.26857" lon="-1.6345">
        <ele>38.3</ele>
        <time>2016-02-17T14:09:48Z</time>
      </trkpt>
      <trkpt lat="47.2686" lon="-1.63431">
        <ele>38</ele>
        <time>2016-02-17T14:09:51Z</time>
      </trkpt>
      <trkpt lat="47.26863" lon="-1.63418">
        <ele>37.8</ele>
        <time>2016-02-17T14:09:53Z</time>
      </trkpt>
      <trkpt lat="47.26866" lon="-1.63403">
        <ele>37.2</ele>
        <time>2016-02-17T14:09:56Z</time>
      </trkpt>
      <trkpt lat="47.26865" lon="-1.63388">
        <ele>36.2</ele>
        <time>2016-02-17T14:10:00Z</time>
      </trkpt>
      <trkpt lat="47.26873" lon="-1.63378">
        <ele>36</ele>
        <time>2016-02-17T14:10:04Z</time>
      </trkpt>
      <trkpt lat="47.26879" lon="-1.63364">
        <ele>36</ele>
        <time>2016-02-17T14:10:09Z</time>
      </trkpt>
      <trkpt lat="47.2688" lon="-1.63347">
        <ele>35.4</ele>
        <time>2016-02-17T14:10:12Z</time>
      </trkpt>
      <trkpt lat="47.26881" lon="-1.63327">
        <ele>34.4</ele>
        <time>2016-02-17T14:10:15Z</time>
      </trkpt>
      <trkpt lat="47.26884" lon="-1.63314">
        <ele>34.2</ele>
        <time>2016-02-17T14:10:17Z</time>
      </trkpt>
      <trkpt lat="47.26886" lon="-1.633">
        <ele>33.9</ele>
        <time>2016-02-17T14:10:19Z</time>
      </trkpt>
      <trkpt lat="47.26886" lon="-1.63285">
        <ele>33</ele>
        <time>2016-02-17T14:10:21Z</time>
      </trkpt>
      <trkpt lat="47.26886" lon="-1.63252">
        <ele>31.9</ele>
        <time>2016-02-17T14:10:26Z</time>
      </trkpt>
      <trkpt lat="47.26886" lon="-1.63238">
        <ele>31.5</ele>
        <time>2016-02-17T14:10:28Z</time>
      </trkpt>
      <trkpt lat="47.26878" lon="-1.63224">
        <ele>30.9</ele>
        <time>2016-02-17T14:10:31Z</time>
      </trkpt>
      <trkpt lat="47.26871" lon="-1.63212">
        <ele>29.1</ele>
        <time>2016-02-17T14:10:35Z</time>
      </trkpt>
      <trkpt lat="47.26865" lon="-1.63199">
        <ele>29.1</ele>
        <time>2016-02-17T14:10:39Z</time>
      </trkpt>
      <trkpt lat="47.26865" lon="-1.63184">
        <ele>30</ele>
        <time>2016-02-17T14:10:45Z</time>
      </trkpt>
      <trkpt lat="47.26863" lon="-1.63166">
        <ele>30.7</ele>
        <time>2016-02-17T14:10:50Z</time>
      </trkpt>
      <trkpt lat="47.26858" lon="-1.63152">
        <ele>31.4</ele>
        <time>2016-02-17T14:10:54Z</time>
      </trkpt>
      <trkpt lat="47.26853" lon="-1.63138">
        <ele>32</ele>
        <time>2016-02-17T14:10:59Z</time>
      </trkpt>
      <trkpt lat="47.26843" lon="-1.63132">
        <ele>32.4</ele>
        <time>2016-02-17T14:11:03Z</time>
      </trkpt>
      <trkpt lat="47.26833" lon="-1.63136">
        <ele>33.3</ele>
        <time>2016-02-17T14:11:10Z</time>
      </trkpt>
      <trkpt lat="47.26825" lon="-1.6313">
        <ele>34.5</ele>
        <time>2016-02-17T14:11:17Z</time>
      </trkpt>
      <trkpt lat="47.26817" lon="-1.63125">
        <ele>35.2</ele>
        <time>2016-02-17T14:11:22Z</time>
      </trkpt>
      <trkpt lat="47.26807" lon="-1.63126">
        <ele>35.1</ele>
        <time>2016-02-17T14:11:26Z</time>
      </trkpt>
      <trkpt lat="47.26789" lon="-1.63118">
        <ele>37.8</ele>
        <time>2016-02-17T14:11:39Z</time>
      </trkpt>
      <trkpt lat="47.26779" lon="-1.63114">
        <ele>39.6</ele>
        <time>2016-02-17T14:11:48Z</time>
      </trkpt>
      <trkpt lat="47.26768" lon="-1.6311">
        <ele>39.7</ele>
        <time>2016-02-17T14:11:53Z</time>
      </trkpt>
      <trkpt lat="47.26759" lon="-1.63107">
        <ele>40.3</ele>
        <time>2016-02-17T14:11:58Z</time>
      </trkpt>
      <trkpt lat="47.26749" lon="-1.63103">
        <ele>41</ele>
        <time>2016-02-17T14:12:04Z</time>
      </trkpt>
      <trkpt lat="47.2674" lon="-1.63097">
        <ele>42.4</ele>
        <time>2016-02-17T14:12:11Z</time>
      </trkpt>
      <trkpt lat="47.2673" lon="-1.63094">
        <ele>41.9</ele>
        <time>2016-02-17T14:12:35Z</time>
      </trkpt>
      <trkpt lat="47.26711" lon="-1.63093">
        <ele>43.6</ele>
        <time>2016-02-17T14:12:48Z</time>
      </trkpt>
      <trkpt lat="47.26703" lon="-1.63086">
        <ele>45.3</ele>
        <time>2016-02-17T14:13:07Z</time>
      </trkpt>
      <trkpt lat="47.26698" lon="-1.63074">
        <ele>46</ele>
        <time>2016-02-17T14:13:14Z</time>
      </trkpt>
      <trkpt lat="47.26694" lon="-1.6306">
        <ele>45.7</ele>
        <time>2016-02-17T14:13:19Z</time>
      </trkpt>
      <trkpt lat="47.26696" lon="-1.63046">
        <ele>44.3</ele>
        <time>2016-02-17T14:13:28Z</time>
      </trkpt>
      <trkpt lat="47.26703" lon="-1.63037">
        <ele>43.9</ele>
        <time>2016-02-17T14:13:36Z</time>
      </trkpt>
      <trkpt lat="47.26718" lon="-1.6305">
        <ele>35.4</ele>
        <time>2016-02-17T14:14:15Z</time>
      </trkpt>
      <trkpt lat="47.26726" lon="-1.63041">
        <ele>29.5</ele>
        <time>2016-02-17T14:14:24Z</time>
      </trkpt>
      <trkpt lat="47.26731" lon="-1.63028">
        <ele>27.9</ele>
        <time>2016-02-17T14:14:30Z</time>
      </trkpt>
      <trkpt lat="47.26732" lon="-1.6301">
        <ele>27.6</ele>
        <time>2016-02-17T14:14:35Z</time>
      </trkpt>
      <trkpt lat="47.26732" lon="-1.62995">
        <ele>26.8</ele>
        <time>2016-02-17T14:14:39Z</time>
      </trkpt>
      <trkpt lat="47.26736" lon="-1.62963">
        <ele>27.6</ele>
        <time>2016-02-17T14:14:50Z</time>
      </trkpt>
      <trkpt lat="47.26739" lon="-1.62948">
        <ele>27.9</ele>
        <time>2016-02-17T14:14:55Z</time>
      </trkpt>
      <trkpt lat="47.26746" lon="-1.62933">
        <ele>27.5</ele>
        <time>2016-02-17T14:14:59Z</time>
      </trkpt>
      <trkpt lat="47.26748" lon="-1.6292">
        <ele>27</ele>
        <time>2016-02-17T14:15:01Z</time>
      </trkpt>
      <trkpt lat="47.26749" lon="-1.62904">
        <ele>27</ele>
        <time>2016-02-17T14:15:04Z</time>
      </trkpt>
      <trkpt lat="47.26751" lon="-1.62888">
        <ele>26.9</ele>
        <time>2016-02-17T14:15:08Z</time>
      </trkpt>
      <trkpt lat="47.26755" lon="-1.62873">
        <ele>26.7</ele>
        <time>2016-02-17T14:15:11Z</time>
      </trkpt>
      <trkpt lat="47.26755" lon="-1.62856">
        <ele>26.9</ele>
        <time>2016-02-17T14:15:14Z</time>
      </trkpt>
      <trkpt lat="47.26758" lon="-1.62841">
        <ele>26.6</ele>
        <time>2016-02-17T14:15:18Z</time>
      </trkpt>
      <trkpt lat="47.26759" lon="-1.62824">
        <ele>26.4</ele>
        <time>2016-02-17T14:15:22Z</time>
      </trkpt>
      <trkpt lat="47.26759" lon="-1.62809">
        <ele>26.6</ele>
        <time>2016-02-17T14:15:25Z</time>
      </trkpt>
      <trkpt lat="47.26759" lon="-1.62794">
        <ele>26.4</ele>
        <time>2016-02-17T14:15:28Z</time>
      </trkpt>
      <trkpt lat="47.26755" lon="-1.62773">
        <ele>26</ele>
        <time>2016-02-17T14:15:31Z</time>
      </trkpt>
      <trkpt lat="47.26755" lon="-1.6276">
        <ele>25.9</ele>
        <time>2016-02-17T14:15:33Z</time>
      </trkpt>
      <trkpt lat="47.26756" lon="-1.62741">
        <ele>25.6</ele>
        <time>2016-02-17T14:15:36Z</time>
      </trkpt>
      <trkpt lat="47.26757" lon="-1.62727">
        <ele>25.7</ele>
        <time>2016-02-17T14:15:39Z</time>
      </trkpt>
      <trkpt lat="47.26754" lon="-1.62708">
        <ele>25.3</ele>
        <time>2016-02-17T14:15:43Z</time>
      </trkpt>
      <trkpt lat="47.2675" lon="-1.62681">
        <ele>25.6</ele>
        <time>2016-02-17T14:15:49Z</time>
      </trkpt>
      <trkpt lat="47.26749" lon="-1.62666">
        <ele>25.5</ele>
        <time>2016-02-17T14:15:53Z</time>
      </trkpt>
      <trkpt lat="47.2675" lon="-1.62649">
        <ele>25.6</ele>
        <time>2016-02-17T14:15:57Z</time>
      </trkpt>
      <trkpt lat="47.26749" lon="-1.62629">
        <ele>25.1</ele>
        <time>2016-02-17T14:16:01Z</time>
      </trkpt>
      <trkpt lat="47.26747" lon="-1.62614">
        <ele>25.5</ele>
        <time>2016-02-17T14:16:04Z</time>
      </trkpt>
      <trkpt lat="47.26746" lon="-1.62598">
        <ele>25.3</ele>
        <time>2016-02-17T14:16:08Z</time>
      </trkpt>
      <trkpt lat="47.26748" lon="-1.62581">
        <ele>25.4</ele>
        <time>2016-02-17T14:16:12Z</time>
      </trkpt>
      <trkpt lat="47.26745" lon="-1.62565">
        <ele>25</ele>
        <time>2016-02-17T14:16:16Z</time>
      </trkpt>
      <trkpt lat="47.26746" lon="-1.62549">
        <ele>24.7</ele>
        <time>2016-02-17T14:16:20Z</time>
      </trkpt>
      <trkpt lat="47.26748" lon="-1.62536">
        <ele>25.1</ele>
        <time>2016-02-17T14:16:23Z</time>
      </trkpt>
      <trkpt lat="47.26746" lon="-1.62519">
        <ele>25.1</ele>
        <time>2016-02-17T14:16:27Z</time>
      </trkpt>
      <trkpt lat="47.26747" lon="-1.62505">
        <ele>25.2</ele>
        <time>2016-02-17T14:16:31Z</time>
      </trkpt>
      <trkpt lat="47.26747" lon="-1.62487">
        <ele>25</ele>
        <time>2016-02-17T14:16:33Z</time>
      </trkpt>
      <trkpt lat="47.26744" lon="-1.62471">
        <ele>25.2</ele>
        <time>2016-02-17T14:16:36Z</time>
      </trkpt>
      <trkpt lat="47.26744" lon="-1.62457">
        <ele>25.2</ele>
        <time>2016-02-17T14:16:39Z</time>
      </trkpt>
      <trkpt lat="47.26745" lon="-1.62444">
        <ele>24.8</ele>
        <time>2016-02-17T14:16:43Z</time>
      </trkpt>
      <trkpt lat="47.26747" lon="-1.62428">
        <ele>24.8</ele>
        <time>2016-02-17T14:16:48Z</time>
      </trkpt>
      <trkpt lat="47.26748" lon="-1.624">
        <ele>23.3</ele>
        <time>2016-02-17T14:17:14Z</time>
      </trkpt>
      <trkpt lat="47.26744" lon="-1.62385">
        <ele>30</ele>
        <time>2016-02-17T14:18:22Z</time>
      </trkpt>
      <trkpt lat="47.26739" lon="-1.6236">
        <ele>24.6</ele>
        <time>2016-02-17T14:19:00Z</time>
      </trkpt>
      <trkpt lat="47.26737" lon="-1.62346">
        <ele>30.7</ele>
        <time>2016-02-17T14:19:55Z</time>
      </trkpt>
      <trkpt lat="47.26728" lon="-1.6232">
        <ele>31.7</ele>
        <time>2016-02-17T14:20:02Z</time>
      </trkpt>
      <trkpt lat="47.26732" lon="-1.62301">
        <ele>32.9</ele>
        <time>2016-02-17T14:20:07Z</time>
      </trkpt>
      <trkpt lat="47.26726" lon="-1.62287">
        <ele>33.3</ele>
        <time>2016-02-17T14:20:09Z</time>
      </trkpt>
      <trkpt lat="47.26721" lon="-1.62276">
        <ele>35.1</ele>
        <time>2016-02-17T14:20:15Z</time>
      </trkpt>
      <trkpt lat="47.26713" lon="-1.62264">
        <ele>35.9</ele>
        <time>2016-02-17T14:20:19Z</time>
      </trkpt>
      <trkpt lat="47.26707" lon="-1.62254">
        <ele>36.4</ele>
        <time>2016-02-17T14:20:23Z</time>
      </trkpt>
      <trkpt lat="47.26701" lon="-1.62242">
        <ele>37.8</ele>
        <time>2016-02-17T14:20:30Z</time>
      </trkpt>
      <trkpt lat="47.26695" lon="-1.6223">
        <ele>39.5</ele>
        <time>2016-02-17T14:20:37Z</time>
      </trkpt>
      <trkpt lat="47.26692" lon="-1.62217">
        <ele>40.2</ele>
        <time>2016-02-17T14:20:43Z</time>
      </trkpt>
      <trkpt lat="47.2669" lon="-1.62203">
        <ele>41.1</ele>
        <time>2016-02-17T14:20:51Z</time>
      </trkpt>
      <trkpt lat="47.26684" lon="-1.62191">
        <ele>42.8</ele>
        <time>2016-02-17T14:21:00Z</time>
      </trkpt>
      <trkpt lat="47.26672" lon="-1.62168">
        <ele>40.1</ele>
        <time>2016-02-17T14:21:13Z</time>
      </trkpt>
      <trkpt lat="47.26662" lon="-1.62163">
        <ele>40.5</ele>
        <time>2016-02-17T14:21:19Z</time>
      </trkpt>
      <trkpt lat="47.26654" lon="-1.62156">
        <ele>41.7</ele>
        <time>2016-02-17T14:21:26Z</time>
      </trkpt>
      <trkpt lat="47.26645" lon="-1.6215">
        <ele>42.7</ele>
        <time>2016-02-17T14:21:33Z</time>
      </trkpt>
      <trkpt lat="47.26636" lon="-1.62144">
        <ele>43.4</ele>
        <time>2016-02-17T14:21:40Z</time>
      </trkpt>
      <trkpt lat="47.26627" lon="-1.62141">
        <ele>44.6</ele>
        <time>2016-02-17T14:21:47Z</time>
      </trkpt>
      <trkpt lat="47.26617" lon="-1.6214">
        <ele>45.9</ele>
        <time>2016-02-17T14:21:53Z</time>
      </trkpt>
      <trkpt lat="47.26607" lon="-1.62142">
        <ele>46.7</ele>
        <time>2016-02-17T14:21:59Z</time>
      </trkpt>
      <trkpt lat="47.26597" lon="-1.62146">
        <ele>48.3</ele>
        <time>2016-02-17T14:22:06Z</time>
      </trkpt>
      <trkpt lat="47.26579" lon="-1.62151">
        <ele>49.6</ele>
        <time>2016-02-17T14:22:17Z</time>
      </trkpt>
      <trkpt lat="47.2657" lon="-1.62149">
        <ele>51.1</ele>
        <time>2016-02-17T14:22:26Z</time>
      </trkpt>
      <trkpt lat="47.26559" lon="-1.62149">
        <ele>51.9</ele>
        <time>2016-02-17T14:22:32Z</time>
      </trkpt>
      <trkpt lat="47.26549" lon="-1.6215">
        <ele>52.7</ele>
        <time>2016-02-17T14:22:39Z</time>
      </trkpt>
      <trkpt lat="47.26539" lon="-1.6215">
        <ele>53.1</ele>
        <time>2016-02-17T14:22:45Z</time>
      </trkpt>
      <trkpt lat="47.26528" lon="-1.62149">
        <ele>53.4</ele>
        <time>2016-02-17T14:22:50Z</time>
      </trkpt>
      <trkpt lat="47.26519" lon="-1.6215">
        <ele>54.3</ele>
        <time>2016-02-17T14:22:57Z</time>
      </trkpt>
      <trkpt lat="47.26509" lon="-1.62152">
        <ele>54.5</ele>
        <time>2016-02-17T14:23:04Z</time>
      </trkpt>
      <trkpt lat="47.26499" lon="-1.62154">
        <ele>55.5</ele>
        <time>2016-02-17T14:23:08Z</time>
      </trkpt>
      <trkpt lat="47.26477" lon="-1.62157">
        <ele>56.8</ele>
        <time>2016-02-17T14:23:18Z</time>
      </trkpt>
      <trkpt lat="47.26469" lon="-1.62162">
        <ele>58</ele>
        <time>2016-02-17T14:23:25Z</time>
      </trkpt>
      <trkpt lat="47.2646" lon="-1.62166">
        <ele>59.1</ele>
        <time>2016-02-17T14:23:31Z</time>
      </trkpt>
      <trkpt lat="47.26448" lon="-1.6217">
        <ele>59.2</ele>
        <time>2016-02-17T14:23:37Z</time>
      </trkpt>
      <trkpt lat="47.26444" lon="-1.62183">
        <ele>60.7</ele>
        <time>2016-02-17T14:23:44Z</time>
      </trkpt>
      <trkpt lat="47.26449" lon="-1.62196">
        <ele>60.9</ele>
        <time>2016-02-17T14:23:52Z</time>
      </trkpt>
      <trkpt lat="47.26453" lon="-1.62208">
        <ele>60.7</ele>
        <time>2016-02-17T14:23:59Z</time>
      </trkpt>
      <trkpt lat="47.26456" lon="-1.62221">
        <ele>60.4</ele>
        <time>2016-02-17T14:24:05Z</time>
      </trkpt>
      <trkpt lat="47.2646" lon="-1.62234">
        <ele>60.6</ele>
        <time>2016-02-17T14:24:09Z</time>
      </trkpt>
      <trkpt lat="47.26466" lon="-1.62262">
        <ele>60.5</ele>
        <time>2016-02-17T14:24:17Z</time>
      </trkpt>
      <trkpt lat="47.26464" lon="-1.62278">
        <ele>61.1</ele>
        <time>2016-02-17T14:24:22Z</time>
      </trkpt>
      <trkpt lat="47.26465" lon="-1.62292">
        <ele>61.9</ele>
        <time>2016-02-17T14:24:27Z</time>
      </trkpt>
      <trkpt lat="47.26466" lon="-1.62306">
        <ele>62.4</ele>
        <time>2016-02-17T14:24:32Z</time>
      </trkpt>
      <trkpt lat="47.26469" lon="-1.62319">
        <ele>62.6</ele>
        <time>2016-02-17T14:24:36Z</time>
      </trkpt>
      <trkpt lat="47.26469" lon="-1.62333">
        <ele>63.3</ele>
        <time>2016-02-17T14:24:40Z</time>
      </trkpt>
      <trkpt lat="47.26471" lon="-1.62349">
        <ele>63.2</ele>
        <time>2016-02-17T14:24:45Z</time>
      </trkpt>
      <trkpt lat="47.26475" lon="-1.62364">
        <ele>62.8</ele>
        <time>2016-02-17T14:24:47Z</time>
      </trkpt>
      <trkpt lat="47.26478" lon="-1.62379">
        <ele>62.7</ele>
        <time>2016-02-17T14:24:51Z</time>
      </trkpt>
      <trkpt lat="47.26484" lon="-1.62391">
        <ele>61.9</ele>
        <time>2016-02-17T14:24:56Z</time>
      </trkpt>
      <trkpt lat="47.26486" lon="-1.62404">
        <ele>61.8</ele>
        <time>2016-02-17T14:25:02Z</time>
      </trkpt>
      <trkpt lat="47.2649" lon="-1.62417">
        <ele>61.4</ele>
        <time>2016-02-17T14:25:06Z</time>
      </trkpt>
      <trkpt lat="47.26494" lon="-1.62431">
        <ele>61.3</ele>
        <time>2016-02-17T14:25:09Z</time>
      </trkpt>
      <trkpt lat="47.26495" lon="-1.62447">
        <ele>60.8</ele>
        <time>2016-02-17T14:25:13Z</time>
      </trkpt>
      <trkpt lat="47.26508" lon="-1.62471">
        <ele>59.2</ele>
        <time>2016-02-17T14:25:19Z</time>
      </trkpt>
      <trkpt lat="47.26511" lon="-1.62486">
        <ele>58.5</ele>
        <time>2016-02-17T14:25:22Z</time>
      </trkpt>
      <trkpt lat="47.26513" lon="-1.62499">
        <ele>58.4</ele>
        <time>2016-02-17T14:25:25Z</time>
      </trkpt>
      <trkpt lat="47.26521" lon="-1.62491">
        <ele>56.3</ele>
        <time>2016-02-17T14:25:39Z</time>
      </trkpt>
      <trkpt lat="47.2652" lon="-1.62475">
        <ele>56.8</ele>
        <time>2016-02-17T14:25:44Z</time>
      </trkpt>
      <trkpt lat="47.26529" lon="-1.62465">
        <ele>55.8</ele>
        <time>2016-02-17T14:25:49Z</time>
      </trkpt>
      <trkpt lat="47.26537" lon="-1.62455">
        <ele>54.9</ele>
        <time>2016-02-17T14:25:53Z</time>
      </trkpt>
      <trkpt lat="47.26546" lon="-1.62455">
        <ele>53.8</ele>
        <time>2016-02-17T14:25:55Z</time>
      </trkpt>
      <trkpt lat="47.26555" lon="-1.62451">
        <ele>52.3</ele>
        <time>2016-02-17T14:25:58Z</time>
      </trkpt>
      <trkpt lat="47.26563" lon="-1.62459">
        <ele>52.1</ele>
        <time>2016-02-17T14:26:03Z</time>
      </trkpt>
      <trkpt lat="47.26571" lon="-1.6247">
        <ele>51.6</ele>
        <time>2016-02-17T14:26:07Z</time>
      </trkpt>
      <trkpt lat="47.26577" lon="-1.62483">
        <ele>51.4</ele>
        <time>2016-02-17T14:26:11Z</time>
      </trkpt>
      <trkpt lat="47.26583" lon="-1.62493">
        <ele>51.9</ele>
        <time>2016-02-17T14:26:14Z</time>
      </trkpt>
      <trkpt lat="47.26603" lon="-1.62503">
        <ele>51.4</ele>
        <time>2016-02-17T14:26:21Z</time>
      </trkpt>
      <trkpt lat="47.26615" lon="-1.62508">
        <ele>51.7</ele>
        <time>2016-02-17T14:26:26Z</time>
      </trkpt>
      <trkpt lat="47.26626" lon="-1.6251">
        <ele>51.4</ele>
        <time>2016-02-17T14:26:30Z</time>
      </trkpt>
      <trkpt lat="47.26636" lon="-1.62514">
        <ele>50.6</ele>
        <time>2016-02-17T14:26:34Z</time>
      </trkpt>
      <trkpt lat="47.26642" lon="-1.62501">
        <ele>49.2</ele>
        <time>2016-02-17T14:26:41Z</time>
      </trkpt>
      <trkpt lat="47.2665" lon="-1.62487">
        <ele>47.2</ele>
        <time>2016-02-17T14:26:45Z</time>
      </trkpt>
      <trkpt lat="47.26658" lon="-1.62484">
        <ele>46.6</ele>
        <time>2016-02-17T14:26:49Z</time>
      </trkpt>
      <trkpt lat="47.26668" lon="-1.6248">
        <ele>46.4</ele>
        <time>2016-02-17T14:26:52Z</time>
      </trkpt>
      <trkpt lat="47.26678" lon="-1.6248">
        <ele>44.1</ele>
        <time>2016-02-17T14:26:56Z</time>
      </trkpt>
      <trkpt lat="47.26682" lon="-1.62467">
        <ele>41.8</ele>
        <time>2016-02-17T14:27:00Z</time>
      </trkpt>
      <trkpt lat="47.26689" lon="-1.62455">
        <ele>36</ele>
        <time>2016-02-17T14:27:05Z</time>
      </trkpt>
      <trkpt lat="47.26698" lon="-1.62447">
        <ele>32.5</ele>
        <time>2016-02-17T14:27:09Z</time>
      </trkpt>
      <trkpt lat="47.26704" lon="-1.62436">
        <ele>30.7</ele>
        <time>2016-02-17T14:27:21Z</time>
      </trkpt>
      <trkpt lat="47.26678" lon="-1.62413">
        <ele>48.5</ele>
        <time>2016-02-17T14:31:26Z</time>
      </trkpt>
      <trkpt lat="47.26627" lon="-1.62408">
        <ele>51.9</ele>
        <time>2016-02-17T14:32:04Z</time>
      </trkpt>
      <trkpt lat="47.26618" lon="-1.62408">
        <ele>52.7</ele>
        <time>2016-02-17T14:32:08Z</time>
      </trkpt>
      <trkpt lat="47.26609" lon="-1.62407">
        <ele>53.6</ele>
        <time>2016-02-17T14:32:14Z</time>
      </trkpt>
      <trkpt lat="47.26599" lon="-1.62407">
        <ele>54.5</ele>
        <time>2016-02-17T14:32:20Z</time>
      </trkpt>
      <trkpt lat="47.26589" lon="-1.6241">
        <ele>55.4</ele>
        <time>2016-02-17T14:32:26Z</time>
      </trkpt>
      <trkpt lat="47.26577" lon="-1.6241">
        <ele>55.9</ele>
        <time>2016-02-17T14:32:33Z</time>
      </trkpt>
      <trkpt lat="47.26556" lon="-1.62411">
        <ele>57</ele>
        <time>2016-02-17T14:32:42Z</time>
      </trkpt>
      <trkpt lat="47.26547" lon="-1.62411">
        <ele>57.9</ele>
        <time>2016-02-17T14:32:46Z</time>
      </trkpt>
      <trkpt lat="47.26538" lon="-1.62411">
        <ele>58.7</ele>
        <time>2016-02-17T14:32:50Z</time>
      </trkpt>
      <trkpt lat="47.26528" lon="-1.62414">
        <ele>59.8</ele>
        <time>2016-02-17T14:32:56Z</time>
      </trkpt>
      <trkpt lat="47.26519" lon="-1.62416">
        <ele>59.8</ele>
        <time>2016-02-17T14:33:01Z</time>
      </trkpt>
      <trkpt lat="47.26509" lon="-1.62426">
        <ele>60.4</ele>
        <time>2016-02-17T14:33:06Z</time>
      </trkpt>
      <trkpt lat="47.26504" lon="-1.62437">
        <ele>60.7</ele>
        <time>2016-02-17T14:33:10Z</time>
      </trkpt>
      <trkpt lat="47.26498" lon="-1.62449">
        <ele>61.6</ele>
        <time>2016-02-17T14:33:17Z</time>
      </trkpt>
      <trkpt lat="47.26496" lon="-1.62462">
        <ele>62.4</ele>
        <time>2016-02-17T14:33:23Z</time>
      </trkpt>
      <trkpt lat="47.26491" lon="-1.62474">
        <ele>62.3</ele>
        <time>2016-02-17T14:33:31Z</time>
      </trkpt>
      <trkpt lat="47.26483" lon="-1.62482">
        <ele>63.3</ele>
        <time>2016-02-17T14:33:39Z</time>
      </trkpt>
      <trkpt lat="47.26466" lon="-1.62495">
        <ele>64.7</ele>
        <time>2016-02-17T14:34:05Z</time>
      </trkpt>
      <trkpt lat="47.26458" lon="-1.625">
        <ele>65.7</ele>
        <time>2016-02-17T14:34:13Z</time>
      </trkpt>
      <trkpt lat="47.26449" lon="-1.62506">
        <ele>66.4</ele>
        <time>2016-02-17T14:34:19Z</time>
      </trkpt>
      <trkpt lat="47.26441" lon="-1.62515">
        <ele>67.8</ele>
        <time>2016-02-17T14:34:27Z</time>
      </trkpt>
      <trkpt lat="47.26434" lon="-1.62523">
        <ele>68.7</ele>
        <time>2016-02-17T14:34:34Z</time>
      </trkpt>
      <trkpt lat="47.26425" lon="-1.62531">
        <ele>69.5</ele>
        <time>2016-02-17T14:34:41Z</time>
      </trkpt>
      <trkpt lat="47.26408" lon="-1.62549">
        <ele>70.5</ele>
        <time>2016-02-17T14:34:53Z</time>
      </trkpt>
      <trkpt lat="47.26402" lon="-1.62559">
        <ele>71</ele>
        <time>2016-02-17T14:34:58Z</time>
      </trkpt>
      <trkpt lat="47.26394" lon="-1.62566">
        <ele>71.3</ele>
        <time>2016-02-17T14:35:04Z</time>
      </trkpt>
      <trkpt lat="47.26385" lon="-1.62564">
        <ele>71.8</ele>
        <time>2016-02-17T14:35:12Z</time>
      </trkpt>
      <trkpt lat="47.26375" lon="-1.62561">
        <ele>72.2</ele>
        <time>2016-02-17T14:35:18Z</time>
      </trkpt>
      <trkpt lat="47.26365" lon="-1.62557">
        <ele>73.2</ele>
        <time>2016-02-17T14:35:23Z</time>
      </trkpt>
      <trkpt lat="47.26356" lon="-1.62552">
        <ele>73.5</ele>
        <time>2016-02-17T14:35:27Z</time>
      </trkpt>
      <trkpt lat="47.26346" lon="-1.62549">
        <ele>74</ele>
        <time>2016-02-17T14:35:32Z</time>
      </trkpt>
      <trkpt lat="47.26336" lon="-1.62548">
        <ele>74.4</ele>
        <time>2016-02-17T14:35:38Z</time>
      </trkpt>
      <trkpt lat="47.26328" lon="-1.62544">
        <ele>74.3</ele>
        <time>2016-02-17T14:35:43Z</time>
      </trkpt>
      <trkpt lat="47.26308" lon="-1.62538">
        <ele>76.1</ele>
        <time>2016-02-17T14:35:53Z</time>
      </trkpt>
      <trkpt lat="47.26299" lon="-1.62535">
        <ele>75.3</ele>
        <time>2016-02-17T14:35:56Z</time>
      </trkpt>
      <trkpt lat="47.26289" lon="-1.62531">
        <ele>75</ele>
        <time>2016-02-17T14:36:01Z</time>
      </trkpt>
      <trkpt lat="47.2628" lon="-1.62526">
        <ele>75.3</ele>
        <time>2016-02-17T14:36:05Z</time>
      </trkpt>
      <trkpt lat="47.2627" lon="-1.62523">
        <ele>75.2</ele>
        <time>2016-02-17T14:36:07Z</time>
      </trkpt>
      <trkpt lat="47.26259" lon="-1.62521">
        <ele>75.3</ele>
        <time>2016-02-17T14:36:11Z</time>
      </trkpt>
      <trkpt lat="47.2625" lon="-1.62517">
        <ele>75.2</ele>
        <time>2016-02-17T14:36:13Z</time>
      </trkpt>
      <trkpt lat="47.26241" lon="-1.62515">
        <ele>75</ele>
        <time>2016-02-17T14:36:16Z</time>
      </trkpt>
      <trkpt lat="47.26231" lon="-1.6251">
        <ele>74.4</ele>
        <time>2016-02-17T14:36:20Z</time>
      </trkpt>
      <trkpt lat="47.26221" lon="-1.62505">
        <ele>74.6</ele>
        <time>2016-02-17T14:36:23Z</time>
      </trkpt>
      <trkpt lat="47.2621" lon="-1.62501">
        <ele>74.2</ele>
        <time>2016-02-17T14:36:26Z</time>
      </trkpt>
      <trkpt lat="47.26199" lon="-1.62497">
        <ele>73.8</ele>
        <time>2016-02-17T14:36:29Z</time>
      </trkpt>
      <trkpt lat="47.26189" lon="-1.62492">
        <ele>73.9</ele>
        <time>2016-02-17T14:36:32Z</time>
      </trkpt>
      <trkpt lat="47.2618" lon="-1.62492">
        <ele>74</ele>
        <time>2016-02-17T14:36:35Z</time>
      </trkpt>
      <trkpt lat="47.2617" lon="-1.62487">
        <ele>74.1</ele>
        <time>2016-02-17T14:36:38Z</time>
      </trkpt>
      <trkpt lat="47.26161" lon="-1.62474">
        <ele>74</ele>
        <time>2016-02-17T14:36:42Z</time>
      </trkpt>
      <trkpt lat="47.26152" lon="-1.62467">
        <ele>74.2</ele>
        <time>2016-02-17T14:36:46Z</time>
      </trkpt>
      <trkpt lat="47.26128" lon="-1.62458">
        <ele>74.2</ele>
        <time>2016-02-17T14:36:53Z</time>
      </trkpt>
      <trkpt lat="47.26107" lon="-1.62434">
        <ele>74</ele>
        <time>2016-02-17T14:36:58Z</time>
      </trkpt>
      <trkpt lat="47.2609" lon="-1.62422">
        <ele>73.9</ele>
        <time>2016-02-17T14:37:03Z</time>
      </trkpt>
      <trkpt lat="47.26081" lon="-1.6241">
        <ele>73.7</ele>
        <time>2016-02-17T14:37:06Z</time>
      </trkpt>
      <trkpt lat="47.26076" lon="-1.62391">
        <ele>73.6</ele>
        <time>2016-02-17T14:37:09Z</time>
      </trkpt>
      <trkpt lat="47.26075" lon="-1.62378">
        <ele>73.7</ele>
        <time>2016-02-17T14:37:11Z</time>
      </trkpt>
      <trkpt lat="47.26074" lon="-1.62361">
        <ele>72.9</ele>
        <time>2016-02-17T14:37:14Z</time>
      </trkpt>
      <trkpt lat="47.26061" lon="-1.62361">
        <ele>73.5</ele>
        <time>2016-02-17T14:37:17Z</time>
      </trkpt>
      <trkpt lat="47.26049" lon="-1.62367">
        <ele>73.9</ele>
        <time>2016-02-17T14:37:20Z</time>
      </trkpt>
      <trkpt lat="47.26037" lon="-1.62372">
        <ele>73.9</ele>
        <time>2016-02-17T14:37:23Z</time>
      </trkpt>
      <trkpt lat="47.26027" lon="-1.62364">
        <ele>73.2</ele>
        <time>2016-02-17T14:37:27Z</time>
      </trkpt>
      <trkpt lat="47.26018" lon="-1.62352">
        <ele>73.1</ele>
        <time>2016-02-17T14:37:30Z</time>
      </trkpt>
      <trkpt lat="47.26009" lon="-1.62342">
        <ele>72.3</ele>
        <time>2016-02-17T14:37:33Z</time>
      </trkpt>
      <trkpt lat="47.26" lon="-1.62332">
        <ele>72.5</ele>
        <time>2016-02-17T14:37:36Z</time>
      </trkpt>
      <trkpt lat="47.25992" lon="-1.62318">
        <ele>71.5</ele>
        <time>2016-02-17T14:37:39Z</time>
      </trkpt>
      <trkpt lat="47.25987" lon="-1.62307">
        <ele>71.8</ele>
        <time>2016-02-17T14:37:41Z</time>
      </trkpt>
      <trkpt lat="47.25983" lon="-1.62288">
        <ele>71.7</ele>
        <time>2016-02-17T14:37:44Z</time>
      </trkpt>
      <trkpt lat="47.25984" lon="-1.62275">
        <ele>71.4</ele>
        <time>2016-02-17T14:37:46Z</time>
      </trkpt>
      <trkpt lat="47.25985" lon="-1.62256">
        <ele>70.9</ele>
        <time>2016-02-17T14:37:49Z</time>
      </trkpt>
      <trkpt lat="47.25989" lon="-1.62225">
        <ele>70.4</ele>
        <time>2016-02-17T14:37:54Z</time>
      </trkpt>
      <trkpt lat="47.25989" lon="-1.62209">
        <ele>70.4</ele>
        <time>2016-02-17T14:37:56Z</time>
      </trkpt>
      <trkpt lat="47.25991" lon="-1.62195">
        <ele>70.3</ele>
        <time>2016-02-17T14:37:58Z</time>
      </trkpt>
      <trkpt lat="47.25994" lon="-1.62181">
        <ele>69.4</ele>
        <time>2016-02-17T14:38:00Z</time>
      </trkpt>
      <trkpt lat="47.25997" lon="-1.62167">
        <ele>69.3</ele>
        <time>2016-02-17T14:38:02Z</time>
      </trkpt>
      <trkpt lat="47.26" lon="-1.6215">
        <ele>69.1</ele>
        <time>2016-02-17T14:38:05Z</time>
      </trkpt>
      <trkpt lat="47.26002" lon="-1.62137">
        <ele>69</ele>
        <time>2016-02-17T14:38:07Z</time>
      </trkpt>
      <trkpt lat="47.26006" lon="-1.62122">
        <ele>68.6</ele>
        <time>2016-02-17T14:38:09Z</time>
      </trkpt>
      <trkpt lat="47.26008" lon="-1.62106">
        <ele>68.3</ele>
        <time>2016-02-17T14:38:11Z</time>
      </trkpt>
      <trkpt lat="47.2601" lon="-1.62089">
        <ele>68.1</ele>
        <time>2016-02-17T14:38:13Z</time>
      </trkpt>
      <trkpt lat="47.26013" lon="-1.62072">
        <ele>67.5</ele>
        <time>2016-02-17T14:38:15Z</time>
      </trkpt>
      <trkpt lat="47.26015" lon="-1.62055">
        <ele>67.1</ele>
        <time>2016-02-17T14:38:17Z</time>
      </trkpt>
      <trkpt lat="47.26018" lon="-1.62039">
        <ele>66.6</ele>
        <time>2016-02-17T14:38:19Z</time>
      </trkpt>
      <trkpt lat="47.26022" lon="-1.62023">
        <ele>66.5</ele>
        <time>2016-02-17T14:38:21Z</time>
      </trkpt>
      <trkpt lat="47.26025" lon="-1.62005">
        <ele>66.1</ele>
        <time>2016-02-17T14:38:23Z</time>
      </trkpt>
      <trkpt lat="47.26027" lon="-1.61988">
        <ele>65.5</ele>
        <time>2016-02-17T14:38:25Z</time>
      </trkpt>
      <trkpt lat="47.2603" lon="-1.61971">
        <ele>64.4</ele>
        <time>2016-02-17T14:38:27Z</time>
      </trkpt>
      <trkpt lat="47.26032" lon="-1.61957">
        <ele>63.5</ele>
        <time>2016-02-17T14:38:29Z</time>
      </trkpt>
      <trkpt lat="47.26037" lon="-1.61946">
        <ele>62.9</ele>
        <time>2016-02-17T14:38:33Z</time>
      </trkpt>
      <trkpt lat="47.26048" lon="-1.61945">
        <ele>62.3</ele>
        <time>2016-02-17T14:38:38Z</time>
      </trkpt>
      <trkpt lat="47.26059" lon="-1.6194">
        <ele>62.1</ele>
        <time>2016-02-17T14:38:42Z</time>
      </trkpt>
      <trkpt lat="47.2607" lon="-1.61939">
        <ele>61.3</ele>
        <time>2016-02-17T14:38:46Z</time>
      </trkpt>
      <trkpt lat="47.2608" lon="-1.61939">
        <ele>58.7</ele>
        <time>2016-02-17T14:38:50Z</time>
      </trkpt>
      <trkpt lat="47.26099" lon="-1.61927">
        <ele>54.1</ele>
        <time>2016-02-17T14:38:59Z</time>
      </trkpt>
      <trkpt lat="47.26103" lon="-1.61915">
        <ele>50.5</ele>
        <time>2016-02-17T14:39:05Z</time>
      </trkpt>
      <trkpt lat="47.26104" lon="-1.619">
        <ele>51.5</ele>
        <time>2016-02-17T14:39:25Z</time>
      </trkpt>
      <trkpt lat="47.26103" lon="-1.61884">
        <ele>52</ele>
        <time>2016-02-17T14:39:29Z</time>
      </trkpt>
      <trkpt lat="47.26103" lon="-1.61868">
        <ele>51.5</ele>
        <time>2016-02-17T14:39:31Z</time>
      </trkpt>
      <trkpt lat="47.26101" lon="-1.61854">
        <ele>51.2</ele>
        <time>2016-02-17T14:39:35Z</time>
      </trkpt>
      <trkpt lat="47.26104" lon="-1.6184">
        <ele>49.4</ele>
        <time>2016-02-17T14:39:40Z</time>
      </trkpt>
      <trkpt lat="47.26107" lon="-1.61824">
        <ele>49.7</ele>
        <time>2016-02-17T14:39:44Z</time>
      </trkpt>
      <trkpt lat="47.26107" lon="-1.61811">
        <ele>49.1</ele>
        <time>2016-02-17T14:39:48Z</time>
      </trkpt>
      <trkpt lat="47.26111" lon="-1.61795">
        <ele>47.9</ele>
        <time>2016-02-17T14:39:52Z</time>
      </trkpt>
      <trkpt lat="47.26114" lon="-1.61759">
        <ele>45.4</ele>
        <time>2016-02-17T14:40:00Z</time>
      </trkpt>
      <trkpt lat="47.26115" lon="-1.61744">
        <ele>44.8</ele>
        <time>2016-02-17T14:40:02Z</time>
      </trkpt>
      <trkpt lat="47.26117" lon="-1.6173">
        <ele>44</ele>
        <time>2016-02-17T14:40:05Z</time>
      </trkpt>
      <trkpt lat="47.26118" lon="-1.61714">
        <ele>43.4</ele>
        <time>2016-02-17T14:40:08Z</time>
      </trkpt>
      <trkpt lat="47.2612" lon="-1.61699">
        <ele>42.5</ele>
        <time>2016-02-17T14:40:11Z</time>
      </trkpt>
      <trkpt lat="47.26125" lon="-1.61687">
        <ele>42.3</ele>
        <time>2016-02-17T14:40:14Z</time>
      </trkpt>
      <trkpt lat="47.26131" lon="-1.61674">
        <ele>43.3</ele>
        <time>2016-02-17T14:40:19Z</time>
      </trkpt>
      <trkpt lat="47.26138" lon="-1.61663">
        <ele>44</ele>
        <time>2016-02-17T14:40:22Z</time>
      </trkpt>
      <trkpt lat="47.26141" lon="-1.61648">
        <ele>43.7</ele>
        <time>2016-02-17T14:40:27Z</time>
      </trkpt>
      <trkpt lat="47.26144" lon="-1.61631">
        <ele>42.3</ele>
        <time>2016-02-17T14:40:32Z</time>
      </trkpt>
      <trkpt lat="47.26144" lon="-1.61617">
        <ele>42.8</ele>
        <time>2016-02-17T14:40:36Z</time>
      </trkpt>
      <trkpt lat="47.26141" lon="-1.61604">
        <ele>42.9</ele>
        <time>2016-02-17T14:40:40Z</time>
      </trkpt>
      <trkpt lat="47.26147" lon="-1.61593">
        <ele>43.4</ele>
        <time>2016-02-17T14:40:48Z</time>
      </trkpt>
      <trkpt lat="47.26154" lon="-1.61585">
        <ele>42.5</ele>
        <time>2016-02-17T14:40:55Z</time>
      </trkpt>
      <trkpt lat="47.26167" lon="-1.61565">
        <ele>42.4</ele>
        <time>2016-02-17T14:41:04Z</time>
      </trkpt>
      <trkpt lat="47.26171" lon="-1.61552">
        <ele>42.4</ele>
        <time>2016-02-17T14:41:09Z</time>
      </trkpt>
      <trkpt lat="47.26173" lon="-1.61538">
        <ele>44.6</ele>
        <time>2016-02-17T14:41:15Z</time>
      </trkpt>
      <trkpt lat="47.26181" lon="-1.6153">
        <ele>44.7</ele>
        <time>2016-02-17T14:41:23Z</time>
      </trkpt>
      <trkpt lat="47.26186" lon="-1.61518">
        <ele>45.5</ele>
        <time>2016-02-17T14:41:30Z</time>
      </trkpt>
      <trkpt lat="47.26192" lon="-1.61507">
        <ele>44.1</ele>
        <time>2016-02-17T14:41:34Z</time>
      </trkpt>
      <trkpt lat="47.26194" lon="-1.61494">
        <ele>44.5</ele>
        <time>2016-02-17T14:41:37Z</time>
      </trkpt>
      <trkpt lat="47.26196" lon="-1.61479">
        <ele>44.1</ele>
        <time>2016-02-17T14:41:40Z</time>
      </trkpt>
      <trkpt lat="47.262" lon="-1.61463">
        <ele>43.2</ele>
        <time>2016-02-17T14:41:43Z</time>
      </trkpt>
      <trkpt lat="47.26203" lon="-1.61449">
        <ele>40.8</ele>
        <time>2016-02-17T14:41:46Z</time>
      </trkpt>
      <trkpt lat="47.26204" lon="-1.61434">
        <ele>37.6</ele>
        <time>2016-02-17T14:41:50Z</time>
      </trkpt>
      <trkpt lat="47.26207" lon="-1.61419">
        <ele>34.4</ele>
        <time>2016-02-17T14:41:54Z</time>
      </trkpt>
      <trkpt lat="47.26217" lon="-1.61413">
        <ele>32</ele>
        <time>2016-02-17T14:41:58Z</time>
      </trkpt>
      <trkpt lat="47.26233" lon="-1.61432">
        <ele>29.9</ele>
        <time>2016-02-17T14:42:13Z</time>
      </trkpt>
      <trkpt lat="47.26238" lon="-1.61446">
        <ele>30.1</ele>
        <time>2016-02-17T14:42:18Z</time>
      </trkpt>
      <trkpt lat="47.26236" lon="-1.61461">
        <ele>30.1</ele>
        <time>2016-02-17T14:42:23Z</time>
      </trkpt>
      <trkpt lat="47.26236" lon="-1.61477">
        <ele>30.3</ele>
        <time>2016-02-17T14:42:28Z</time>
      </trkpt>
      <trkpt lat="47.26234" lon="-1.61492">
        <ele>31.1</ele>
        <time>2016-02-17T14:42:35Z</time>
      </trkpt>
      <trkpt lat="47.26232" lon="-1.61506">
        <ele>31.6</ele>
        <time>2016-02-17T14:42:38Z</time>
      </trkpt>
      <trkpt lat="47.26232" lon="-1.6152">
        <ele>32.2</ele>
        <time>2016-02-17T14:42:44Z</time>
      </trkpt>
      <trkpt lat="47.26229" lon="-1.61534">
        <ele>32.6</ele>
        <time>2016-02-17T14:42:50Z</time>
      </trkpt>
      <trkpt lat="47.26223" lon="-1.61547">
        <ele>33.1</ele>
        <time>2016-02-17T14:42:55Z</time>
      </trkpt>
      <trkpt lat="47.26218" lon="-1.61557">
        <ele>33.4</ele>
        <time>2016-02-17T14:43:01Z</time>
      </trkpt>
      <trkpt lat="47.26203" lon="-1.61575">
        <ele>34.8</ele>
        <time>2016-02-17T14:43:16Z</time>
      </trkpt>
      <trkpt lat="47.26191" lon="-1.61582">
        <ele>35.8</ele>
        <time>2016-02-17T14:43:24Z</time>
      </trkpt>
      <trkpt lat="47.26185" lon="-1.61592">
        <ele>36.5</ele>
        <time>2016-02-17T14:43:28Z</time>
      </trkpt>
      <trkpt lat="47.26177" lon="-1.616">
        <ele>36</ele>
        <time>2016-02-17T14:43:31Z</time>
      </trkpt>
      <trkpt lat="47.26169" lon="-1.61608">
        <ele>36.6</ele>
        <time>2016-02-17T14:43:35Z</time>
      </trkpt>
      <trkpt lat="47.26171" lon="-1.61622">
        <ele>36.9</ele>
        <time>2016-02-17T14:43:42Z</time>
      </trkpt>
      <trkpt lat="47.2618" lon="-1.61611">
        <ele>36.3</ele>
        <time>2016-02-17T14:44:13Z</time>
      </trkpt>
      <trkpt lat="47.26197" lon="-1.61595">
        <ele>34.2</ele>
        <time>2016-02-17T14:44:20Z</time>
      </trkpt>
      <trkpt lat="47.26203" lon="-1.61583">
        <ele>33.5</ele>
        <time>2016-02-17T14:44:24Z</time>
      </trkpt>
      <trkpt lat="47.26214" lon="-1.61575">
        <ele>32.1</ele>
        <time>2016-02-17T14:44:28Z</time>
      </trkpt>
      <trkpt lat="47.26226" lon="-1.6157">
        <ele>33.4</ele>
        <time>2016-02-17T14:44:32Z</time>
      </trkpt>
      <trkpt lat="47.26236" lon="-1.61562">
        <ele>33.2</ele>
        <time>2016-02-17T14:44:37Z</time>
      </trkpt>
      <trkpt lat="47.26242" lon="-1.6155">
        <ele>32.1</ele>
        <time>2016-02-17T14:44:41Z</time>
      </trkpt>
      <trkpt lat="47.26254" lon="-1.61532">
        <ele>31.2</ele>
        <time>2016-02-17T14:44:44Z</time>
      </trkpt>
      <trkpt lat="47.26267" lon="-1.61524">
        <ele>31.1</ele>
        <time>2016-02-17T14:44:46Z</time>
      </trkpt>
      <trkpt lat="47.26275" lon="-1.61514">
        <ele>30.1</ele>
        <time>2016-02-17T14:44:49Z</time>
      </trkpt>
      <trkpt lat="47.26282" lon="-1.61502">
        <ele>30.4</ele>
        <time>2016-02-17T14:44:52Z</time>
      </trkpt>
      <trkpt lat="47.26289" lon="-1.61491">
        <ele>30.1</ele>
        <time>2016-02-17T14:44:55Z</time>
      </trkpt>
      <trkpt lat="47.26297" lon="-1.61482">
        <ele>30.2</ele>
        <time>2016-02-17T14:44:58Z</time>
      </trkpt>
      <trkpt lat="47.26307" lon="-1.61478">
        <ele>29.3</ele>
        <time>2016-02-17T14:45:02Z</time>
      </trkpt>
      <trkpt lat="47.26317" lon="-1.61484">
        <ele>29.5</ele>
        <time>2016-02-17T14:45:07Z</time>
      </trkpt>
      <trkpt lat="47.26324" lon="-1.61494">
        <ele>30.8</ele>
        <time>2016-02-17T14:45:30Z</time>
      </trkpt>
      <trkpt lat="47.26332" lon="-1.61518">
        <ele>33</ele>
        <time>2016-02-17T14:45:47Z</time>
      </trkpt>
      <trkpt lat="47.26339" lon="-1.6153">
        <ele>33.7</ele>
        <time>2016-02-17T14:45:53Z</time>
      </trkpt>
      <trkpt lat="47.26346" lon="-1.61539">
        <ele>34</ele>
        <time>2016-02-17T14:45:57Z</time>
      </trkpt>
      <trkpt lat="47.26351" lon="-1.61551">
        <ele>34.6</ele>
        <time>2016-02-17T14:46:03Z</time>
      </trkpt>
      <trkpt lat="47.26356" lon="-1.61562">
        <ele>35.6</ele>
        <time>2016-02-17T14:46:07Z</time>
      </trkpt>
      <trkpt lat="47.26363" lon="-1.61571">
        <ele>36.7</ele>
        <time>2016-02-17T14:46:12Z</time>
      </trkpt>
      <trkpt lat="47.26368" lon="-1.61584">
        <ele>37.6</ele>
        <time>2016-02-17T14:46:19Z</time>
      </trkpt>
      <trkpt lat="47.26377" lon="-1.61592">
        <ele>38</ele>
        <time>2016-02-17T14:46:23Z</time>
      </trkpt>
      <trkpt lat="47.26382" lon="-1.61602">
        <ele>37.6</ele>
        <time>2016-02-17T14:46:27Z</time>
      </trkpt>
      <trkpt lat="47.26387" lon="-1.61617">
        <ele>38</ele>
        <time>2016-02-17T14:46:32Z</time>
      </trkpt>
      <trkpt lat="47.26398" lon="-1.61646">
        <ele>37.3</ele>
        <time>2016-02-17T14:46:41Z</time>
      </trkpt>
      <trkpt lat="47.26403" lon="-1.61661">
        <ele>36.6</ele>
        <time>2016-02-17T14:46:44Z</time>
      </trkpt>
      <trkpt lat="47.2641" lon="-1.61674">
        <ele>36.8</ele>
        <time>2016-02-17T14:46:50Z</time>
      </trkpt>
      <trkpt lat="47.2642" lon="-1.61677">
        <ele>36.4</ele>
        <time>2016-02-17T14:46:56Z</time>
      </trkpt>
      <trkpt lat="47.26429" lon="-1.61675">
        <ele>39.7</ele>
        <time>2016-02-17T14:47:02Z</time>
      </trkpt>
      <trkpt lat="47.26437" lon="-1.61666">
        <ele>40.8</ele>
        <time>2016-02-17T14:47:10Z</time>
      </trkpt>
      <trkpt lat="47.26446" lon="-1.61663">
        <ele>40.1</ele>
        <time>2016-02-17T14:47:14Z</time>
      </trkpt>
      <trkpt lat="47.26455" lon="-1.61665">
        <ele>40.2</ele>
        <time>2016-02-17T14:47:19Z</time>
      </trkpt>
      <trkpt lat="47.26464" lon="-1.61672">
        <ele>40.7</ele>
        <time>2016-02-17T14:47:23Z</time>
      </trkpt>
      <trkpt lat="47.26476" lon="-1.61674">
        <ele>40.2</ele>
        <time>2016-02-17T14:47:27Z</time>
      </trkpt>
      <trkpt lat="47.26486" lon="-1.61673">
        <ele>38.4</ele>
        <time>2016-02-17T14:47:30Z</time>
      </trkpt>
      <trkpt lat="47.26496" lon="-1.61672">
        <ele>37.2</ele>
        <time>2016-02-17T14:47:33Z</time>
      </trkpt>
      <trkpt lat="47.26513" lon="-1.61686">
        <ele>32.3</ele>
        <time>2016-02-17T14:47:40Z</time>
      </trkpt>
      <trkpt lat="47.26521" lon="-1.61698">
        <ele>31.6</ele>
        <time>2016-02-17T14:47:43Z</time>
      </trkpt>
      <trkpt lat="47.2653" lon="-1.61708">
        <ele>31.3</ele>
        <time>2016-02-17T14:47:48Z</time>
      </trkpt>
      <trkpt lat="47.26539" lon="-1.61712">
        <ele>31.5</ele>
        <time>2016-02-17T14:47:50Z</time>
      </trkpt>
      <trkpt lat="47.26549" lon="-1.61716">
        <ele>30.7</ele>
        <time>2016-02-17T14:47:52Z</time>
      </trkpt>
      <trkpt lat="47.26556" lon="-1.61727">
        <ele>30.3</ele>
        <time>2016-02-17T14:47:56Z</time>
      </trkpt>
      <trkpt lat="47.26562" lon="-1.61738">
        <ele>29.8</ele>
        <time>2016-02-17T14:48:01Z</time>
      </trkpt>
      <trkpt lat="47.26568" lon="-1.61751">
        <ele>31.1</ele>
        <time>2016-02-17T14:48:12Z</time>
      </trkpt>
      <trkpt lat="47.26579" lon="-1.61764">
        <ele>31.5</ele>
        <time>2016-02-17T14:48:15Z</time>
      </trkpt>
      <trkpt lat="47.26587" lon="-1.61772">
        <ele>31.2</ele>
        <time>2016-02-17T14:48:18Z</time>
      </trkpt>
      <trkpt lat="47.26595" lon="-1.6178">
        <ele>30.7</ele>
        <time>2016-02-17T14:48:21Z</time>
      </trkpt>
      <trkpt lat="47.26603" lon="-1.61791">
        <ele>31.1</ele>
        <time>2016-02-17T14:48:33Z</time>
      </trkpt>
      <trkpt lat="47.2661" lon="-1.61799">
        <ele>32.4</ele>
        <time>2016-02-17T14:48:51Z</time>
      </trkpt>
      <trkpt lat="47.26627" lon="-1.61813">
        <ele>34.1</ele>
        <time>2016-02-17T14:49:14Z</time>
      </trkpt>
      <trkpt lat="47.26637" lon="-1.61824">
        <ele>36</ele>
        <time>2016-02-17T14:49:32Z</time>
      </trkpt>
      <trkpt lat="47.26645" lon="-1.61831">
        <ele>36.9</ele>
        <time>2016-02-17T14:49:41Z</time>
      </trkpt>
      <trkpt lat="47.26653" lon="-1.61841">
        <ele>37.3</ele>
        <time>2016-02-17T14:49:49Z</time>
      </trkpt>
      <trkpt lat="47.26661" lon="-1.61851">
        <ele>37.7</ele>
        <time>2016-02-17T14:49:54Z</time>
      </trkpt>
      <trkpt lat="47.26679" lon="-1.61857">
        <ele>35.3</ele>
        <time>2016-02-17T14:50:01Z</time>
      </trkpt>
      <trkpt lat="47.26688" lon="-1.61863">
        <ele>34.3</ele>
        <time>2016-02-17T14:50:08Z</time>
      </trkpt>
      <trkpt lat="47.26695" lon="-1.61874">
        <ele>35.1</ele>
        <time>2016-02-17T14:50:20Z</time>
      </trkpt>
      <trkpt lat="47.26703" lon="-1.61882">
        <ele>35</ele>
        <time>2016-02-17T14:50:30Z</time>
      </trkpt>
      <trkpt lat="47.26709" lon="-1.61895">
        <ele>36.4</ele>
        <time>2016-02-17T14:50:37Z</time>
      </trkpt>
      <trkpt lat="47.26715" lon="-1.61907">
        <ele>37.8</ele>
        <time>2016-02-17T14:50:44Z</time>
      </trkpt>
      <trkpt lat="47.26715" lon="-1.61921">
        <ele>39.2</ele>
        <time>2016-02-17T14:50:51Z</time>
      </trkpt>
      <trkpt lat="47.2671" lon="-1.61933">
        <ele>41.3</ele>
        <time>2016-02-17T14:50:59Z</time>
      </trkpt>
      <trkpt lat="47.26702" lon="-1.61962">
        <ele>38.8</ele>
        <time>2016-02-17T14:51:09Z</time>
      </trkpt>
      <trkpt lat="47.26698" lon="-1.61975">
        <ele>37.7</ele>
        <time>2016-02-17T14:51:13Z</time>
      </trkpt>
      <trkpt lat="47.26696" lon="-1.61988">
        <ele>36.6</ele>
        <time>2016-02-17T14:51:18Z</time>
      </trkpt>
      <trkpt lat="47.26697" lon="-1.62003">
        <ele>35.6</ele>
        <time>2016-02-17T14:51:24Z</time>
      </trkpt>
      <trkpt lat="47.26698" lon="-1.62017">
        <ele>34.8</ele>
        <time>2016-02-17T14:51:29Z</time>
      </trkpt>
      <trkpt lat="47.26701" lon="-1.62034">
        <ele>33.2</ele>
        <time>2016-02-17T14:51:34Z</time>
      </trkpt>
      <trkpt lat="47.26702" lon="-1.62049">
        <ele>32.3</ele>
        <time>2016-02-17T14:51:37Z</time>
      </trkpt>
      <trkpt lat="47.26705" lon="-1.62064">
        <ele>31.8</ele>
        <time>2016-02-17T14:51:39Z</time>
      </trkpt>
      <trkpt lat="47.2671" lon="-1.62078">
        <ele>30.9</ele>
        <time>2016-02-17T14:51:42Z</time>
      </trkpt>
      <trkpt lat="47.26713" lon="-1.62094">
        <ele>31.2</ele>
        <time>2016-02-17T14:51:47Z</time>
      </trkpt>
      <trkpt lat="47.26716" lon="-1.62108">
        <ele>31.7</ele>
        <time>2016-02-17T14:51:51Z</time>
      </trkpt>
      <trkpt lat="47.26719" lon="-1.62122">
        <ele>31.5</ele>
        <time>2016-02-17T14:51:55Z</time>
      </trkpt>
      <trkpt lat="47.26724" lon="-1.62136">
        <ele>32.7</ele>
        <time>2016-02-17T14:52:00Z</time>
      </trkpt>
      <trkpt lat="47.26729" lon="-1.62164">
        <ele>33.9</ele>
        <time>2016-02-17T14:52:08Z</time>
      </trkpt>
      <trkpt lat="47.26726" lon="-1.62179">
        <ele>34</ele>
        <time>2016-02-17T14:52:11Z</time>
      </trkpt>
      <trkpt lat="47.26723" lon="-1.62196">
        <ele>33.9</ele>
        <time>2016-02-17T14:52:15Z</time>
      </trkpt>
      <trkpt lat="47.26732" lon="-1.62191">
        <ele>32</ele>
        <time>2016-02-17T14:52:25Z</time>
      </trkpt>
      <trkpt lat="47.26735" lon="-1.62173">
        <ele>30.3</ele>
        <time>2016-02-17T14:52:30Z</time>
      </trkpt>
      <trkpt lat="47.26735" lon="-1.62159">
        <ele>29.7</ele>
        <time>2016-02-17T14:52:32Z</time>
      </trkpt>
      <trkpt lat="47.26737" lon="-1.62142">
        <ele>28.9</ele>
        <time>2016-02-17T14:52:34Z</time>
      </trkpt>
      <trkpt lat="47.26739" lon="-1.62126">
        <ele>28.5</ele>
        <time>2016-02-17T14:52:36Z</time>
      </trkpt>
      <trkpt lat="47.2674" lon="-1.62111">
        <ele>28</ele>
        <time>2016-02-17T14:52:38Z</time>
      </trkpt>
      <trkpt lat="47.26742" lon="-1.62097">
        <ele>27.7</ele>
        <time>2016-02-17T14:52:40Z</time>
      </trkpt>
      <trkpt lat="47.26744" lon="-1.62079">
        <ele>27.4</ele>
        <time>2016-02-17T14:52:42Z</time>
      </trkpt>
      <trkpt lat="47.26741" lon="-1.62063">
        <ele>27.7</ele>
        <time>2016-02-17T14:52:45Z</time>
      </trkpt>
      <trkpt lat="47.2674" lon="-1.62048">
        <ele>28.2</ele>
        <time>2016-02-17T14:52:48Z</time>
      </trkpt>
      <trkpt lat="47.2674" lon="-1.62029">
        <ele>27.9</ele>
        <time>2016-02-17T14:52:51Z</time>
      </trkpt>
      <trkpt lat="47.2674" lon="-1.62016">
        <ele>28</ele>
        <time>2016-02-17T14:52:53Z</time>
      </trkpt>
      <trkpt lat="47.2674" lon="-1.62002">
        <ele>28.1</ele>
        <time>2016-02-17T14:52:55Z</time>
      </trkpt>
      <trkpt lat="47.26739" lon="-1.61989">
        <ele>28.2</ele>
        <time>2016-02-17T14:52:57Z</time>
      </trkpt>
      <trkpt lat="47.2674" lon="-1.6197">
        <ele>27.7</ele>
        <time>2016-02-17T14:53:00Z</time>
      </trkpt>
      <trkpt lat="47.2674" lon="-1.61951">
        <ele>27.8</ele>
        <time>2016-02-17T14:53:03Z</time>
      </trkpt>
      <trkpt lat="47.26741" lon="-1.61914">
        <ele>27.9</ele>
        <time>2016-02-17T14:53:09Z</time>
      </trkpt>
      <trkpt lat="47.26743" lon="-1.61894">
        <ele>27.8</ele>
        <time>2016-02-17T14:53:12Z</time>
      </trkpt>
      <trkpt lat="47.26746" lon="-1.61881">
        <ele>27.7</ele>
        <time>2016-02-17T14:53:14Z</time>
      </trkpt>
      <trkpt lat="47.26749" lon="-1.61867">
        <ele>27.9</ele>
        <time>2016-02-17T14:53:16Z</time>
      </trkpt>
      <trkpt lat="47.26748" lon="-1.61853">
        <ele>27.3</ele>
        <time>2016-02-17T14:53:18Z</time>
      </trkpt>
      <trkpt lat="47.26743" lon="-1.61838">
        <ele>27.8</ele>
        <time>2016-02-17T14:53:21Z</time>
      </trkpt>
      <trkpt lat="47.26736" lon="-1.61829">
        <ele>28</ele>
        <time>2016-02-17T14:53:23Z</time>
      </trkpt>
      <trkpt lat="47.26729" lon="-1.61821">
        <ele>27.7</ele>
        <time>2016-02-17T14:53:25Z</time>
      </trkpt>
      <trkpt lat="47.26718" lon="-1.61812">
        <ele>27.3</ele>
        <time>2016-02-17T14:53:28Z</time>
      </trkpt>
      <trkpt lat="47.26707" lon="-1.61806">
        <ele>27.4</ele>
        <time>2016-02-17T14:53:31Z</time>
      </trkpt>
      <trkpt lat="47.26694" lon="-1.61802">
        <ele>27.1</ele>
        <time>2016-02-17T14:53:34Z</time>
      </trkpt>
      <trkpt lat="47.26682" lon="-1.61796">
        <ele>27.4</ele>
        <time>2016-02-17T14:53:37Z</time>
      </trkpt>
      <trkpt lat="47.26673" lon="-1.61791">
        <ele>27.1</ele>
        <time>2016-02-17T14:53:39Z</time>
      </trkpt>
      <trkpt lat="47.26664" lon="-1.61786">
        <ele>27</ele>
        <time>2016-02-17T14:53:41Z</time>
      </trkpt>
      <trkpt lat="47.26655" lon="-1.61779">
        <ele>26.9</ele>
        <time>2016-02-17T14:53:43Z</time>
      </trkpt>
      <trkpt lat="47.26645" lon="-1.61774">
        <ele>27.3</ele>
        <time>2016-02-17T14:53:45Z</time>
      </trkpt>
      <trkpt lat="47.26636" lon="-1.6177">
        <ele>27.4</ele>
        <time>2016-02-17T14:53:47Z</time>
      </trkpt>
      <trkpt lat="47.26627" lon="-1.61764">
        <ele>26.7</ele>
        <time>2016-02-17T14:53:49Z</time>
      </trkpt>
      <trkpt lat="47.26616" lon="-1.61755">
        <ele>26.9</ele>
        <time>2016-02-17T14:53:52Z</time>
      </trkpt>
      <trkpt lat="47.26606" lon="-1.61745">
        <ele>27.4</ele>
        <time>2016-02-17T14:53:54Z</time>
      </trkpt>
      <trkpt lat="47.26599" lon="-1.61735">
        <ele>27.3</ele>
        <time>2016-02-17T14:53:56Z</time>
      </trkpt>
      <trkpt lat="47.26592" lon="-1.61724">
        <ele>27.1</ele>
        <time>2016-02-17T14:53:58Z</time>
      </trkpt>
      <trkpt lat="47.26585" lon="-1.61712">
        <ele>27.2</ele>
        <time>2016-02-17T14:54:00Z</time>
      </trkpt>
      <trkpt lat="47.26579" lon="-1.617">
        <ele>27.1</ele>
        <time>2016-02-17T14:54:02Z</time>
      </trkpt>
      <trkpt lat="47.26573" lon="-1.61688">
        <ele>26.8</ele>
        <time>2016-02-17T14:54:04Z</time>
      </trkpt>
      <trkpt lat="47.26567" lon="-1.61676">
        <ele>26.8</ele>
        <time>2016-02-17T14:54:06Z</time>
      </trkpt>
      <trkpt lat="47.26554" lon="-1.61652">
        <ele>26.7</ele>
        <time>2016-02-17T14:54:10Z</time>
      </trkpt>
      <trkpt lat="47.26547" lon="-1.6164">
        <ele>26.5</ele>
        <time>2016-02-17T14:54:12Z</time>
      </trkpt>
      <trkpt lat="47.26541" lon="-1.61627">
        <ele>26.8</ele>
        <time>2016-02-17T14:54:14Z</time>
      </trkpt>
      <trkpt lat="47.26534" lon="-1.61616">
        <ele>26.7</ele>
        <time>2016-02-17T14:54:16Z</time>
      </trkpt>
      <trkpt lat="47.26527" lon="-1.61608">
        <ele>26.3</ele>
        <time>2016-02-17T14:54:18Z</time>
      </trkpt>
      <trkpt lat="47.26517" lon="-1.61603">
        <ele>26.7</ele>
        <time>2016-02-17T14:54:21Z</time>
      </trkpt>
      <trkpt lat="47.26505" lon="-1.61598">
        <ele>26.6</ele>
        <time>2016-02-17T14:54:24Z</time>
      </trkpt>
      <trkpt lat="47.26496" lon="-1.61594">
        <ele>26.7</ele>
        <time>2016-02-17T14:54:26Z</time>
      </trkpt>
      <trkpt lat="47.26485" lon="-1.6159">
        <ele>26.7</ele>
        <time>2016-02-17T14:54:28Z</time>
      </trkpt>
      <trkpt lat="47.26475" lon="-1.61585">
        <ele>26.3</ele>
        <time>2016-02-17T14:54:30Z</time>
      </trkpt>
      <trkpt lat="47.26465" lon="-1.61578">
        <ele>26.5</ele>
        <time>2016-02-17T14:54:33Z</time>
      </trkpt>
      <trkpt lat="47.26458" lon="-1.6157">
        <ele>26.8</ele>
        <time>2016-02-17T14:54:36Z</time>
      </trkpt>
      <trkpt lat="47.2645" lon="-1.61557">
        <ele>26.7</ele>
        <time>2016-02-17T14:54:39Z</time>
      </trkpt>
      <trkpt lat="47.26441" lon="-1.61543">
        <ele>26.7</ele>
        <time>2016-02-17T14:54:41Z</time>
      </trkpt>
      <trkpt lat="47.26431" lon="-1.61531">
        <ele>26.5</ele>
        <time>2016-02-17T14:54:43Z</time>
      </trkpt>
      <trkpt lat="47.26422" lon="-1.61517">
        <ele>26.2</ele>
        <time>2016-02-17T14:54:46Z</time>
      </trkpt>
      <trkpt lat="47.26413" lon="-1.61511">
        <ele>26</ele>
        <time>2016-02-17T14:54:48Z</time>
      </trkpt>
      <trkpt lat="47.26402" lon="-1.61502">
        <ele>26</ele>
        <time>2016-02-17T14:54:51Z</time>
      </trkpt>
      <trkpt lat="47.26395" lon="-1.61495">
        <ele>26</ele>
        <time>2016-02-17T14:54:53Z</time>
      </trkpt>
      <trkpt lat="47.26387" lon="-1.61486">
        <ele>26.2</ele>
        <time>2016-02-17T14:54:55Z</time>
      </trkpt>
      <trkpt lat="47.2638" lon="-1.61475">
        <ele>26.5</ele>
        <time>2016-02-17T14:54:57Z</time>
      </trkpt>
      <trkpt lat="47.26374" lon="-1.61458">
        <ele>26.7</ele>
        <time>2016-02-17T14:55:00Z</time>
      </trkpt>
      <trkpt lat="47.2637" lon="-1.61442">
        <ele>27</ele>
        <time>2016-02-17T14:55:03Z</time>
      </trkpt>
      <trkpt lat="47.26365" lon="-1.61427">
        <ele>27</ele>
        <time>2016-02-17T14:55:06Z</time>
      </trkpt>
      <trkpt lat="47.26365" lon="-1.61397">
        <ele>26.6</ele>
        <time>2016-02-17T14:55:10Z</time>
      </trkpt>
      <trkpt lat="47.26365" lon="-1.61378">
        <ele>26.5</ele>
        <time>2016-02-17T14:55:13Z</time>
      </trkpt>
      <trkpt lat="47.26366" lon="-1.61363">
        <ele>26.7</ele>
        <time>2016-02-17T14:55:16Z</time>
      </trkpt>
      <trkpt lat="47.26365" lon="-1.61349">
        <ele>26.5</ele>
        <time>2016-02-17T14:55:19Z</time>
      </trkpt>
      <trkpt lat="47.26367" lon="-1.61332">
        <ele>26.5</ele>
        <time>2016-02-17T14:55:22Z</time>
      </trkpt>
      <trkpt lat="47.26367" lon="-1.61317">
        <ele>26.6</ele>
        <time>2016-02-17T14:55:25Z</time>
      </trkpt>
      <trkpt lat="47.26369" lon="-1.61301">
        <ele>26.7</ele>
        <time>2016-02-17T14:55:28Z</time>
      </trkpt>
      <trkpt lat="47.26373" lon="-1.61286">
        <ele>26.5</ele>
        <time>2016-02-17T14:55:31Z</time>
      </trkpt>
      <trkpt lat="47.26378" lon="-1.6127">
        <ele>26.3</ele>
        <time>2016-02-17T14:55:34Z</time>
      </trkpt>
      <trkpt lat="47.26386" lon="-1.61257">
        <ele>26.3</ele>
        <time>2016-02-17T14:55:37Z</time>
      </trkpt>
      <trkpt lat="47.26397" lon="-1.61246">
        <ele>25.9</ele>
        <time>2016-02-17T14:55:40Z</time>
      </trkpt>
      <trkpt lat="47.26407" lon="-1.61235">
        <ele>25.9</ele>
        <time>2016-02-17T14:55:43Z</time>
      </trkpt>
      <trkpt lat="47.26418" lon="-1.61224">
        <ele>25.6</ele>
        <time>2016-02-17T14:55:46Z</time>
      </trkpt>
      <trkpt lat="47.26425" lon="-1.61215">
        <ele>25.5</ele>
        <time>2016-02-17T14:55:48Z</time>
      </trkpt>
      <trkpt lat="47.2643" lon="-1.61203">
        <ele>25.2</ele>
        <time>2016-02-17T14:55:50Z</time>
      </trkpt>
      <trkpt lat="47.26435" lon="-1.61187">
        <ele>25</ele>
        <time>2016-02-17T14:55:53Z</time>
      </trkpt>
      <trkpt lat="47.26439" lon="-1.6117">
        <ele>25</ele>
        <time>2016-02-17T14:55:56Z</time>
      </trkpt>
      <trkpt lat="47.26445" lon="-1.61153">
        <ele>25.2</ele>
        <time>2016-02-17T14:55:59Z</time>
      </trkpt>
      <trkpt lat="47.26452" lon="-1.61138">
        <ele>25.3</ele>
        <time>2016-02-17T14:56:02Z</time>
      </trkpt>
      <trkpt lat="47.26456" lon="-1.61121">
        <ele>25.7</ele>
        <time>2016-02-17T14:56:05Z</time>
      </trkpt>
      <trkpt lat="47.26458" lon="-1.61101">
        <ele>25.3</ele>
        <time>2016-02-17T14:56:08Z</time>
      </trkpt>
      <trkpt lat="47.2646" lon="-1.61074">
        <ele>25.4</ele>
        <time>2016-02-17T14:56:12Z</time>
      </trkpt>
      <trkpt lat="47.26461" lon="-1.61054">
        <ele>25.2</ele>
        <time>2016-02-17T14:56:15Z</time>
      </trkpt>
      <trkpt lat="47.26461" lon="-1.6104">
        <ele>25.1</ele>
        <time>2016-02-17T14:56:17Z</time>
      </trkpt>
      <trkpt lat="47.26462" lon="-1.61023">
        <ele>25</ele>
        <time>2016-02-17T14:56:19Z</time>
      </trkpt>
      <trkpt lat="47.26461" lon="-1.61008">
        <ele>24.9</ele>
        <time>2016-02-17T14:56:21Z</time>
      </trkpt>
      <trkpt lat="47.2646" lon="-1.60993">
        <ele>25.2</ele>
        <time>2016-02-17T14:56:23Z</time>
      </trkpt>
      <trkpt lat="47.26455" lon="-1.60976">
        <ele>25.4</ele>
        <time>2016-02-17T14:56:26Z</time>
      </trkpt>
      <trkpt lat="47.2645" lon="-1.60959">
        <ele>25.5</ele>
        <time>2016-02-17T14:56:29Z</time>
      </trkpt>
      <trkpt lat="47.26443" lon="-1.60943">
        <ele>25.5</ele>
        <time>2016-02-17T14:56:32Z</time>
      </trkpt>
      <trkpt lat="47.26435" lon="-1.60927">
        <ele>25.8</ele>
        <time>2016-02-17T14:56:35Z</time>
      </trkpt>
      <trkpt lat="47.26428" lon="-1.60912">
        <ele>25.5</ele>
        <time>2016-02-17T14:56:38Z</time>
      </trkpt>
      <trkpt lat="47.26422" lon="-1.60898">
        <ele>25</ele>
        <time>2016-02-17T14:56:41Z</time>
      </trkpt>
      <trkpt lat="47.26415" lon="-1.60885">
        <ele>25</ele>
        <time>2016-02-17T14:56:44Z</time>
      </trkpt>
      <trkpt lat="47.26408" lon="-1.60871">
        <ele>25.8</ele>
        <time>2016-02-17T14:56:47Z</time>
      </trkpt>
      <trkpt lat="47.26402" lon="-1.60858">
        <ele>25.3</ele>
        <time>2016-02-17T14:56:50Z</time>
      </trkpt>
      <trkpt lat="47.26396" lon="-1.60843">
        <ele>25</ele>
        <time>2016-02-17T14:56:53Z</time>
      </trkpt>
      <trkpt lat="47.26391" lon="-1.60826">
        <ele>24.6</ele>
        <time>2016-02-17T14:56:56Z</time>
      </trkpt>
      <trkpt lat="47.26386" lon="-1.60812">
        <ele>24.6</ele>
        <time>2016-02-17T14:56:59Z</time>
      </trkpt>
      <trkpt lat="47.26376" lon="-1.60813">
        <ele>24.5</ele>
        <time>2016-02-17T14:57:03Z</time>
      </trkpt>
      <trkpt lat="47.26367" lon="-1.6082">
        <ele>25.6</ele>
        <time>2016-02-17T14:57:07Z</time>
      </trkpt>
      <trkpt lat="47.2636" lon="-1.60828">
        <ele>26.3</ele>
        <time>2016-02-17T14:57:11Z</time>
      </trkpt>
      <trkpt lat="47.26344" lon="-1.60846">
        <ele>27.3</ele>
        <time>2016-02-17T14:57:22Z</time>
      </trkpt>
      <trkpt lat="47.26335" lon="-1.60853">
        <ele>28.7</ele>
        <time>2016-02-17T14:57:28Z</time>
      </trkpt>
      <trkpt lat="47.26332" lon="-1.60838">
        <ele>28.6</ele>
        <time>2016-02-17T14:57:33Z</time>
      </trkpt>
      <trkpt lat="47.26334" lon="-1.60823">
        <ele>28.3</ele>
        <time>2016-02-17T14:57:37Z</time>
      </trkpt>
      <trkpt lat="47.26336" lon="-1.60806">
        <ele>28.1</ele>
        <time>2016-02-17T14:57:40Z</time>
      </trkpt>
      <trkpt lat="47.26339" lon="-1.60787">
        <ele>27.7</ele>
        <time>2016-02-17T14:57:43Z</time>
      </trkpt>
      <trkpt lat="47.26342" lon="-1.60772">
        <ele>27.4</ele>
        <time>2016-02-17T14:57:45Z</time>
      </trkpt>
      <trkpt lat="47.26344" lon="-1.60757">
        <ele>26.8</ele>
        <time>2016-02-17T14:57:47Z</time>
      </trkpt>
      <trkpt lat="47.26347" lon="-1.60743">
        <ele>26.5</ele>
        <time>2016-02-17T14:57:49Z</time>
      </trkpt>
      <trkpt lat="47.26349" lon="-1.6073">
        <ele>26.2</ele>
        <time>2016-02-17T14:57:51Z</time>
      </trkpt>
      <trkpt lat="47.26352" lon="-1.60712">
        <ele>25.8</ele>
        <time>2016-02-17T14:57:54Z</time>
      </trkpt>
      <trkpt lat="47.26353" lon="-1.60694">
        <ele>25.3</ele>
        <time>2016-02-17T14:57:57Z</time>
      </trkpt>
      <trkpt lat="47.26345" lon="-1.6068">
        <ele>25</ele>
        <time>2016-02-17T14:58:00Z</time>
      </trkpt>
      <trkpt lat="47.26337" lon="-1.60668">
        <ele>24.8</ele>
        <time>2016-02-17T14:58:03Z</time>
      </trkpt>
      <trkpt lat="47.26328" lon="-1.60657">
        <ele>24.7</ele>
        <time>2016-02-17T14:58:06Z</time>
      </trkpt>
      <trkpt lat="47.26324" lon="-1.60644">
        <ele>24.7</ele>
        <time>2016-02-17T14:58:08Z</time>
      </trkpt>
      <trkpt lat="47.26321" lon="-1.60628">
        <ele>24.9</ele>
        <time>2016-02-17T14:58:11Z</time>
      </trkpt>
      <trkpt lat="47.26318" lon="-1.60614">
        <ele>25.4</ele>
        <time>2016-02-17T14:58:14Z</time>
      </trkpt>
      <trkpt lat="47.26315" lon="-1.60581">
        <ele>25.1</ele>
        <time>2016-02-17T14:58:20Z</time>
      </trkpt>
      <trkpt lat="47.26313" lon="-1.60563">
        <ele>25</ele>
        <time>2016-02-17T14:58:23Z</time>
      </trkpt>
      <trkpt lat="47.26312" lon="-1.60549">
        <ele>25.1</ele>
        <time>2016-02-17T14:58:25Z</time>
      </trkpt>
      <trkpt lat="47.26312" lon="-1.60533">
        <ele>25.1</ele>
        <time>2016-02-17T14:58:28Z</time>
      </trkpt>
      <trkpt lat="47.26313" lon="-1.60512">
        <ele>25.6</ele>
        <time>2016-02-17T14:58:31Z</time>
      </trkpt>
      <trkpt lat="47.26315" lon="-1.60498">
        <ele>25.3</ele>
        <time>2016-02-17T14:58:33Z</time>
      </trkpt>
      <trkpt lat="47.26317" lon="-1.60485">
        <ele>25.1</ele>
        <time>2016-02-17T14:58:35Z</time>
      </trkpt>
      <trkpt lat="47.26319" lon="-1.60468">
        <ele>25.3</ele>
        <time>2016-02-17T14:58:38Z</time>
      </trkpt>
      <trkpt lat="47.2632" lon="-1.60451">
        <ele>25.9</ele>
        <time>2016-02-17T14:58:41Z</time>
      </trkpt>
      <trkpt lat="47.26322" lon="-1.60436">
        <ele>25.4</ele>
        <time>2016-02-17T14:58:43Z</time>
      </trkpt>
      <trkpt lat="47.26324" lon="-1.60422">
        <ele>25.5</ele>
        <time>2016-02-17T14:58:45Z</time>
      </trkpt>
      <trkpt lat="47.26327" lon="-1.60402">
        <ele>25.5</ele>
        <time>2016-02-17T14:58:48Z</time>
      </trkpt>
      <trkpt lat="47.26328" lon="-1.60383">
        <ele>24.9</ele>
        <time>2016-02-17T14:58:51Z</time>
      </trkpt>
      <trkpt lat="47.2633" lon="-1.60365">
        <ele>25.3</ele>
        <time>2016-02-17T14:58:53Z</time>
      </trkpt>
      <trkpt lat="47.26331" lon="-1.60348">
        <ele>25.4</ele>
        <time>2016-02-17T14:58:55Z</time>
      </trkpt>
      <trkpt lat="47.26333" lon="-1.60333">
        <ele>25.2</ele>
        <time>2016-02-17T14:58:57Z</time>
      </trkpt>
      <trkpt lat="47.26334" lon="-1.60318">
        <ele>25.6</ele>
        <time>2016-02-17T14:58:59Z</time>
      </trkpt>
      <trkpt lat="47.26335" lon="-1.603">
        <ele>25.3</ele>
        <time>2016-02-17T14:59:01Z</time>
      </trkpt>
      <trkpt lat="47.26339" lon="-1.60281">
        <ele>25</ele>
        <time>2016-02-17T14:59:03Z</time>
      </trkpt>
      <trkpt lat="47.26342" lon="-1.60265">
        <ele>25.3</ele>
        <time>2016-02-17T14:59:05Z</time>
      </trkpt>
      <trkpt lat="47.26344" lon="-1.6025">
        <ele>25.3</ele>
        <time>2016-02-17T14:59:07Z</time>
      </trkpt>
      <trkpt lat="47.26343" lon="-1.60237">
        <ele>24.9</ele>
        <time>2016-02-17T14:59:09Z</time>
      </trkpt>
      <trkpt lat="47.26337" lon="-1.6022">
        <ele>24</ele>
        <time>2016-02-17T14:59:12Z</time>
      </trkpt>
      <trkpt lat="47.2633" lon="-1.60209">
        <ele>23.5</ele>
        <time>2016-02-17T14:59:14Z</time>
      </trkpt>
      <trkpt lat="47.26323" lon="-1.602">
        <ele>22.9</ele>
        <time>2016-02-17T14:59:16Z</time>
      </trkpt>
      <trkpt lat="47.26306" lon="-1.60171">
        <ele>23.8</ele>
        <time>2016-02-17T14:59:22Z</time>
      </trkpt>
      <trkpt lat="47.26298" lon="-1.60155">
        <ele>24.3</ele>
        <time>2016-02-17T14:59:25Z</time>
      </trkpt>
      <trkpt lat="47.26292" lon="-1.60143">
        <ele>23.9</ele>
        <time>2016-02-17T14:59:27Z</time>
      </trkpt>
      <trkpt lat="47.26286" lon="-1.60131">
        <ele>23.1</ele>
        <time>2016-02-17T14:59:29Z</time>
      </trkpt>
      <trkpt lat="47.26279" lon="-1.60115">
        <ele>22.4</ele>
        <time>2016-02-17T14:59:32Z</time>
      </trkpt>
      <trkpt lat="47.26271" lon="-1.60101">
        <ele>22.4</ele>
        <time>2016-02-17T14:59:35Z</time>
      </trkpt>
      <trkpt lat="47.26261" lon="-1.60093">
        <ele>23</ele>
        <time>2016-02-17T14:59:38Z</time>
      </trkpt>
      <trkpt lat="47.26249" lon="-1.60094">
        <ele>23</ele>
        <time>2016-02-17T14:59:41Z</time>
      </trkpt>
      <trkpt lat="47.26238" lon="-1.60098">
        <ele>23.8</ele>
        <time>2016-02-17T14:59:44Z</time>
      </trkpt>
      <trkpt lat="47.26228" lon="-1.60101">
        <ele>23.9</ele>
        <time>2016-02-17T14:59:47Z</time>
      </trkpt>
      <trkpt lat="47.26217" lon="-1.60098">
        <ele>23.3</ele>
        <time>2016-02-17T14:59:50Z</time>
      </trkpt>
      <trkpt lat="47.26208" lon="-1.60087">
        <ele>22.8</ele>
        <time>2016-02-17T14:59:53Z</time>
      </trkpt>
      <trkpt lat="47.26205" lon="-1.6007">
        <ele>22.9</ele>
        <time>2016-02-17T14:59:56Z</time>
      </trkpt>
      <trkpt lat="47.26202" lon="-1.60057">
        <ele>23.7</ele>
        <time>2016-02-17T14:59:58Z</time>
      </trkpt>
      <trkpt lat="47.26204" lon="-1.60042">
        <ele>23.1</ele>
        <time>2016-02-17T15:00:01Z</time>
      </trkpt>
      <trkpt lat="47.26207" lon="-1.60025">
        <ele>23.6</ele>
        <time>2016-02-17T15:00:05Z</time>
      </trkpt>
      <trkpt lat="47.26213" lon="-1.60011">
        <ele>22.8</ele>
        <time>2016-02-17T15:00:08Z</time>
      </trkpt>
      <trkpt lat="47.2622" lon="-1.59996">
        <ele>22.5</ele>
        <time>2016-02-17T15:00:11Z</time>
      </trkpt>
      <trkpt lat="47.26226" lon="-1.59981">
        <ele>22.1</ele>
        <time>2016-02-17T15:00:14Z</time>
      </trkpt>
      <trkpt lat="47.26233" lon="-1.59965">
        <ele>22.2</ele>
        <time>2016-02-17T15:00:17Z</time>
      </trkpt>
      <trkpt lat="47.26242" lon="-1.59936">
        <ele>22.8</ele>
        <time>2016-02-17T15:00:22Z</time>
      </trkpt>
      <trkpt lat="47.26246" lon="-1.59919">
        <ele>22.2</ele>
        <time>2016-02-17T15:00:25Z</time>
      </trkpt>
      <trkpt lat="47.26247" lon="-1.59901">
        <ele>22.4</ele>
        <time>2016-02-17T15:00:27Z</time>
      </trkpt>
      <trkpt lat="47.26249" lon="-1.59886">
        <ele>22.5</ele>
        <time>2016-02-17T15:00:29Z</time>
      </trkpt>
      <trkpt lat="47.26251" lon="-1.59871">
        <ele>22.4</ele>
        <time>2016-02-17T15:00:31Z</time>
      </trkpt>
      <trkpt lat="47.26251" lon="-1.59855">
        <ele>22.3</ele>
        <time>2016-02-17T15:00:33Z</time>
      </trkpt>
      <trkpt lat="47.26253" lon="-1.59837">
        <ele>21.6</ele>
        <time>2016-02-17T15:00:36Z</time>
      </trkpt>
      <trkpt lat="47.26254" lon="-1.59824">
        <ele>21.8</ele>
        <time>2016-02-17T15:00:39Z</time>
      </trkpt>
      <trkpt lat="47.26258" lon="-1.59809">
        <ele>22.6</ele>
        <time>2016-02-17T15:00:44Z</time>
      </trkpt>
      <trkpt lat="47.26265" lon="-1.59798">
        <ele>23.4</ele>
        <time>2016-02-17T15:00:48Z</time>
      </trkpt>
      <trkpt lat="47.26271" lon="-1.59788">
        <ele>23.7</ele>
        <time>2016-02-17T15:00:52Z</time>
      </trkpt>
      <trkpt lat="47.26278" lon="-1.59778">
        <ele>25.1</ele>
        <time>2016-02-17T15:00:56Z</time>
      </trkpt>
      <trkpt lat="47.26285" lon="-1.59767">
        <ele>25.4</ele>
        <time>2016-02-17T15:00:59Z</time>
      </trkpt>
      <trkpt lat="47.26292" lon="-1.59757">
        <ele>26.2</ele>
        <time>2016-02-17T15:01:03Z</time>
      </trkpt>
      <trkpt lat="47.26297" lon="-1.59745">
        <ele>26.9</ele>
        <time>2016-02-17T15:01:08Z</time>
      </trkpt>
      <trkpt lat="47.26303" lon="-1.59734">
        <ele>28</ele>
        <time>2016-02-17T15:01:13Z</time>
      </trkpt>
      <trkpt lat="47.26312" lon="-1.59726">
        <ele>28.3</ele>
        <time>2016-02-17T15:01:18Z</time>
      </trkpt>
      <trkpt lat="47.2633" lon="-1.59725">
        <ele>31</ele>
        <time>2016-02-17T15:01:37Z</time>
      </trkpt>
      <trkpt lat="47.26339" lon="-1.5973">
        <ele>29.9</ele>
        <time>2016-02-17T15:01:45Z</time>
      </trkpt>
      <trkpt lat="47.26348" lon="-1.59736">
        <ele>32.8</ele>
        <time>2016-02-17T15:02:04Z</time>
      </trkpt>
      <trkpt lat="47.26357" lon="-1.59742">
        <ele>33.7</ele>
        <time>2016-02-17T15:02:14Z</time>
      </trkpt>
      <trkpt lat="47.26364" lon="-1.59751">
        <ele>34.7</ele>
        <time>2016-02-17T15:02:26Z</time>
      </trkpt>
      <trkpt lat="47.26376" lon="-1.5977">
        <ele>38</ele>
        <time>2016-02-17T15:02:50Z</time>
      </trkpt>
      <trkpt lat="47.26382" lon="-1.59781">
        <ele>39.6</ele>
        <time>2016-02-17T15:02:56Z</time>
      </trkpt>
      <trkpt lat="47.26383" lon="-1.59795">
        <ele>40</ele>
        <time>2016-02-17T15:03:02Z</time>
      </trkpt>
      <trkpt lat="47.26386" lon="-1.59808">
        <ele>42</ele>
        <time>2016-02-17T15:03:09Z</time>
      </trkpt>
      <trkpt lat="47.26387" lon="-1.59822">
        <ele>43</ele>
        <time>2016-02-17T15:03:17Z</time>
      </trkpt>
      <trkpt lat="47.26384" lon="-1.59835">
        <ele>43.4</ele>
        <time>2016-02-17T15:03:24Z</time>
      </trkpt>
      <trkpt lat="47.26383" lon="-1.5985">
        <ele>44.6</ele>
        <time>2016-02-17T15:03:35Z</time>
      </trkpt>
      <trkpt lat="47.2638" lon="-1.59878">
        <ele>45.7</ele>
        <time>2016-02-17T15:03:48Z</time>
      </trkpt>
      <trkpt lat="47.26381" lon="-1.59892">
        <ele>46.9</ele>
        <time>2016-02-17T15:03:54Z</time>
      </trkpt>
      <trkpt lat="47.26381" lon="-1.59908">
        <ele>46.9</ele>
        <time>2016-02-17T15:03:59Z</time>
      </trkpt>
      <trkpt lat="47.26381" lon="-1.59923">
        <ele>47.3</ele>
        <time>2016-02-17T15:04:05Z</time>
      </trkpt>
      <trkpt lat="47.2638" lon="-1.59937">
        <ele>48.5</ele>
        <time>2016-02-17T15:04:12Z</time>
      </trkpt>
      <trkpt lat="47.2638" lon="-1.59951">
        <ele>49.2</ele>
        <time>2016-02-17T15:04:20Z</time>
      </trkpt>
      <trkpt lat="47.26379" lon="-1.59964">
        <ele>50.1</ele>
        <time>2016-02-17T15:04:26Z</time>
      </trkpt>
      <trkpt lat="47.26378" lon="-1.5998">
        <ele>50.4</ele>
        <time>2016-02-17T15:04:30Z</time>
      </trkpt>
      <trkpt lat="47.26377" lon="-1.59993">
        <ele>51.5</ele>
        <time>2016-02-17T15:04:37Z</time>
      </trkpt>
      <trkpt lat="47.26366" lon="-1.60004">
        <ele>52.2</ele>
        <time>2016-02-17T15:05:43Z</time>
      </trkpt>
      <trkpt lat="47.26348" lon="-1.59994">
        <ele>46.7</ele>
        <time>2016-02-17T15:05:54Z</time>
      </trkpt>
      <trkpt lat="47.26339" lon="-1.59993">
        <ele>40.6</ele>
        <time>2016-02-17T15:06:00Z</time>
      </trkpt>
      <trkpt lat="47.26334" lon="-1.60004">
        <ele>38.7</ele>
        <time>2016-02-17T15:06:12Z</time>
      </trkpt>
      <trkpt lat="47.26332" lon="-1.60017">
        <ele>39.2</ele>
        <time>2016-02-17T15:06:20Z</time>
      </trkpt>
      <trkpt lat="47.26335" lon="-1.60031">
        <ele>40.2</ele>
        <time>2016-02-17T15:06:28Z</time>
      </trkpt>
      <trkpt lat="47.26341" lon="-1.60042">
        <ele>41.7</ele>
        <time>2016-02-17T15:06:35Z</time>
      </trkpt>
      <trkpt lat="47.26349" lon="-1.60051">
        <ele>44.3</ele>
        <time>2016-02-17T15:06:42Z</time>
      </trkpt>
      <trkpt lat="47.26356" lon="-1.60062">
        <ele>44.7</ele>
        <time>2016-02-17T15:06:48Z</time>
      </trkpt>
      <trkpt lat="47.26363" lon="-1.60088">
        <ele>42.2</ele>
        <time>2016-02-17T15:06:57Z</time>
      </trkpt>
      <trkpt lat="47.26368" lon="-1.601">
        <ele>40.2</ele>
        <time>2016-02-17T15:07:01Z</time>
      </trkpt>
      <trkpt lat="47.26368" lon="-1.60113">
        <ele>39.5</ele>
        <time>2016-02-17T15:07:07Z</time>
      </trkpt>
      <trkpt lat="47.26376" lon="-1.60122">
        <ele>40.1</ele>
        <time>2016-02-17T15:07:38Z</time>
      </trkpt>
      <trkpt lat="47.26366" lon="-1.60122">
        <ele>34.8</ele>
        <time>2016-02-17T15:07:45Z</time>
      </trkpt>
      <trkpt lat="47.26357" lon="-1.60125">
        <ele>29.5</ele>
        <time>2016-02-17T15:07:56Z</time>
      </trkpt>
      <trkpt lat="47.26341" lon="-1.60145">
        <ele>27.1</ele>
        <time>2016-02-17T15:08:06Z</time>
      </trkpt>
      <trkpt lat="47.2634" lon="-1.6016">
        <ele>25</ele>
        <time>2016-02-17T15:08:09Z</time>
      </trkpt>
      <trkpt lat="47.26333" lon="-1.60178">
        <ele>23.4</ele>
        <time>2016-02-17T15:08:13Z</time>
      </trkpt>
      <trkpt lat="47.26324" lon="-1.60183">
        <ele>22.7</ele>
        <time>2016-02-17T15:08:16Z</time>
      </trkpt>
      <trkpt lat="47.26316" lon="-1.60175">
        <ele>22.5</ele>
        <time>2016-02-17T15:08:21Z</time>
      </trkpt>
      <trkpt lat="47.26308" lon="-1.60166">
        <ele>22.3</ele>
        <time>2016-02-17T15:08:25Z</time>
      </trkpt>
      <trkpt lat="47.26303" lon="-1.60155">
        <ele>22.4</ele>
        <time>2016-02-17T15:08:28Z</time>
      </trkpt>
      <trkpt lat="47.26297" lon="-1.60142">
        <ele>22.6</ele>
        <time>2016-02-17T15:08:31Z</time>
      </trkpt>
      <trkpt lat="47.26292" lon="-1.60131">
        <ele>22.4</ele>
        <time>2016-02-17T15:08:34Z</time>
      </trkpt>
      <trkpt lat="47.26285" lon="-1.60119">
        <ele>22.2</ele>
        <time>2016-02-17T15:08:37Z</time>
      </trkpt>
      <trkpt lat="47.26279" lon="-1.60109">
        <ele>22.7</ele>
        <time>2016-02-17T15:08:40Z</time>
      </trkpt>
      <trkpt lat="47.26272" lon="-1.60099">
        <ele>22.8</ele>
        <time>2016-02-17T15:08:43Z</time>
      </trkpt>
      <trkpt lat="47.26264" lon="-1.60093">
        <ele>23.8</ele>
        <time>2016-02-17T15:08:46Z</time>
      </trkpt>
      <trkpt lat="47.26253" lon="-1.60094">
        <ele>23.6</ele>
        <time>2016-02-17T15:08:50Z</time>
      </trkpt>
      <trkpt lat="47.26242" lon="-1.60098">
        <ele>23.9</ele>
        <time>2016-02-17T15:08:54Z</time>
      </trkpt>
      <trkpt lat="47.26232" lon="-1.60103">
        <ele>24.2</ele>
        <time>2016-02-17T15:08:58Z</time>
      </trkpt>
      <trkpt lat="47.26217" lon="-1.60123">
        <ele>25.1</ele>
        <time>2016-02-17T15:09:14Z</time>
      </trkpt>
      <trkpt lat="47.26208" lon="-1.60128">
        <ele>25.7</ele>
        <time>2016-02-17T15:09:17Z</time>
      </trkpt>
      <trkpt lat="47.26199" lon="-1.60133">
        <ele>27.8</ele>
        <time>2016-02-17T15:09:21Z</time>
      </trkpt>
      <trkpt lat="47.26191" lon="-1.60141">
        <ele>29.2</ele>
        <time>2016-02-17T15:09:26Z</time>
      </trkpt>
      <trkpt lat="47.26187" lon="-1.60154">
        <ele>31.3</ele>
        <time>2016-02-17T15:09:34Z</time>
      </trkpt>
      <trkpt lat="47.26193" lon="-1.60165">
        <ele>33.3</ele>
        <time>2016-02-17T15:09:47Z</time>
      </trkpt>
      <trkpt lat="47.26191" lon="-1.60179">
        <ele>34.7</ele>
        <time>2016-02-17T15:10:08Z</time>
      </trkpt>
      <trkpt lat="47.26198" lon="-1.60208">
        <ele>37</ele>
        <time>2016-02-17T15:10:22Z</time>
      </trkpt>
      <trkpt lat="47.26202" lon="-1.6022">
        <ele>37.5</ele>
        <time>2016-02-17T15:10:29Z</time>
      </trkpt>
      <trkpt lat="47.26199" lon="-1.60233">
        <ele>39.9</ele>
        <time>2016-02-17T15:10:42Z</time>
      </trkpt>
      <trkpt lat="47.2619" lon="-1.60235">
        <ele>41.8</ele>
        <time>2016-02-17T15:10:52Z</time>
      </trkpt>
      <trkpt lat="47.26181" lon="-1.60239">
        <ele>41.9</ele>
        <time>2016-02-17T15:11:01Z</time>
      </trkpt>
      <trkpt lat="47.26172" lon="-1.60243">
        <ele>41.2</ele>
        <time>2016-02-17T15:11:08Z</time>
      </trkpt>
      <trkpt lat="47.26164" lon="-1.6025">
        <ele>41.4</ele>
        <time>2016-02-17T15:11:13Z</time>
      </trkpt>
      <trkpt lat="47.26155" lon="-1.60274">
        <ele>45.4</ele>
        <time>2016-02-17T15:11:29Z</time>
      </trkpt>
      <trkpt lat="47.2616" lon="-1.60286">
        <ele>46.3</ele>
        <time>2016-02-17T15:11:36Z</time>
      </trkpt>
      <trkpt lat="47.26166" lon="-1.60298">
        <ele>46.4</ele>
        <time>2016-02-17T15:11:43Z</time>
      </trkpt>
      <trkpt lat="47.26172" lon="-1.6031">
        <ele>47.4</ele>
        <time>2016-02-17T15:11:49Z</time>
      </trkpt>
      <trkpt lat="47.26178" lon="-1.60322">
        <ele>46.9</ele>
        <time>2016-02-17T15:11:56Z</time>
      </trkpt>
      <trkpt lat="47.26185" lon="-1.60333">
        <ele>48.4</ele>
        <time>2016-02-17T15:12:02Z</time>
      </trkpt>
      <trkpt lat="47.26188" lon="-1.60346">
        <ele>49.4</ele>
        <time>2016-02-17T15:12:09Z</time>
      </trkpt>
      <trkpt lat="47.26191" lon="-1.6036">
        <ele>49.2</ele>
        <time>2016-02-17T15:12:16Z</time>
      </trkpt>
      <trkpt lat="47.26198" lon="-1.60388">
        <ele>51.7</ele>
        <time>2016-02-17T15:12:38Z</time>
      </trkpt>
      <trkpt lat="47.262" lon="-1.60403">
        <ele>51.5</ele>
        <time>2016-02-17T15:12:42Z</time>
      </trkpt>
      <trkpt lat="47.26206" lon="-1.60412">
        <ele>51.7</ele>
        <time>2016-02-17T15:12:46Z</time>
      </trkpt>
      <trkpt lat="47.26213" lon="-1.60421">
        <ele>50.1</ele>
        <time>2016-02-17T15:12:51Z</time>
      </trkpt>
      <trkpt lat="47.26222" lon="-1.60428">
        <ele>49</ele>
        <time>2016-02-17T15:12:56Z</time>
      </trkpt>
      <trkpt lat="47.26231" lon="-1.60426">
        <ele>46.2</ele>
        <time>2016-02-17T15:13:01Z</time>
      </trkpt>
      <trkpt lat="47.26237" lon="-1.60412">
        <ele>44.1</ele>
        <time>2016-02-17T15:13:06Z</time>
      </trkpt>
      <trkpt lat="47.26244" lon="-1.604">
        <ele>40.2</ele>
        <time>2016-02-17T15:13:10Z</time>
      </trkpt>
      <trkpt lat="47.26255" lon="-1.60389">
        <ele>38.4</ele>
        <time>2016-02-17T15:13:12Z</time>
      </trkpt>
      <trkpt lat="47.26262" lon="-1.60381">
        <ele>37</ele>
        <time>2016-02-17T15:13:14Z</time>
      </trkpt>
      <trkpt lat="47.2627" lon="-1.60372">
        <ele>34.1</ele>
        <time>2016-02-17T15:13:17Z</time>
      </trkpt>
      <trkpt lat="47.26276" lon="-1.60343">
        <ele>33.5</ele>
        <time>2016-02-17T15:13:28Z</time>
      </trkpt>
      <trkpt lat="47.26283" lon="-1.60334">
        <ele>30.5</ele>
        <time>2016-02-17T15:13:36Z</time>
      </trkpt>
      <trkpt lat="47.26293" lon="-1.60332">
        <ele>27.2</ele>
        <time>2016-02-17T15:13:42Z</time>
      </trkpt>
      <trkpt lat="47.26299" lon="-1.60342">
        <ele>25.2</ele>
        <time>2016-02-17T15:13:53Z</time>
      </trkpt>
      <trkpt lat="47.26303" lon="-1.60355">
        <ele>23.6</ele>
        <time>2016-02-17T15:13:58Z</time>
      </trkpt>
      <trkpt lat="47.26304" lon="-1.60368">
        <ele>23.9</ele>
        <time>2016-02-17T15:14:03Z</time>
      </trkpt>
      <trkpt lat="47.26306" lon="-1.60381">
        <ele>23.5</ele>
        <time>2016-02-17T15:14:08Z</time>
      </trkpt>
      <trkpt lat="47.26303" lon="-1.60395">
        <ele>24.4</ele>
        <time>2016-02-17T15:14:12Z</time>
      </trkpt>
      <trkpt lat="47.263" lon="-1.60411">
        <ele>24</ele>
        <time>2016-02-17T15:14:16Z</time>
      </trkpt>
      <trkpt lat="47.26296" lon="-1.60424">
        <ele>25</ele>
        <time>2016-02-17T15:14:21Z</time>
      </trkpt>
      <trkpt lat="47.26291" lon="-1.60454">
        <ele>24.7</ele>
        <time>2016-02-17T15:14:30Z</time>
      </trkpt>
      <trkpt lat="47.26291" lon="-1.60467">
        <ele>24.4</ele>
        <time>2016-02-17T15:14:33Z</time>
      </trkpt>
      <trkpt lat="47.26285" lon="-1.60479">
        <ele>24.6</ele>
        <time>2016-02-17T15:14:36Z</time>
      </trkpt>
      <trkpt lat="47.26281" lon="-1.60492">
        <ele>24.5</ele>
        <time>2016-02-17T15:14:41Z</time>
      </trkpt>
      <trkpt lat="47.26277" lon="-1.60507">
        <ele>24.5</ele>
        <time>2016-02-17T15:14:45Z</time>
      </trkpt>
      <trkpt lat="47.26275" lon="-1.60524">
        <ele>25.4</ele>
        <time>2016-02-17T15:14:49Z</time>
      </trkpt>
      <trkpt lat="47.26274" lon="-1.60537">
        <ele>24.4</ele>
        <time>2016-02-17T15:14:52Z</time>
      </trkpt>
      <trkpt lat="47.26272" lon="-1.60553">
        <ele>24.6</ele>
        <time>2016-02-17T15:14:56Z</time>
      </trkpt>
      <trkpt lat="47.26267" lon="-1.60566">
        <ele>24.8</ele>
        <time>2016-02-17T15:15:00Z</time>
      </trkpt>
      <trkpt lat="47.26262" lon="-1.60583">
        <ele>24.4</ele>
        <time>2016-02-17T15:15:04Z</time>
      </trkpt>
      <trkpt lat="47.2626" lon="-1.60596">
        <ele>24.4</ele>
        <time>2016-02-17T15:15:07Z</time>
      </trkpt>
      <trkpt lat="47.26258" lon="-1.60611">
        <ele>24.9</ele>
        <time>2016-02-17T15:15:11Z</time>
      </trkpt>
      <trkpt lat="47.26256" lon="-1.60627">
        <ele>25.4</ele>
        <time>2016-02-17T15:15:14Z</time>
      </trkpt>
      <trkpt lat="47.26257" lon="-1.60643">
        <ele>25.1</ele>
        <time>2016-02-17T15:15:17Z</time>
      </trkpt>
      <trkpt lat="47.26252" lon="-1.60657">
        <ele>25.1</ele>
        <time>2016-02-17T15:15:20Z</time>
      </trkpt>
      <trkpt lat="47.26249" lon="-1.60671">
        <ele>23</ele>
        <time>2016-02-17T15:15:23Z</time>
      </trkpt>
      <trkpt lat="47.26242" lon="-1.60701">
        <ele>24.7</ele>
        <time>2016-02-17T15:15:32Z</time>
      </trkpt>
      <trkpt lat="47.26239" lon="-1.60715">
        <ele>25.2</ele>
        <time>2016-02-17T15:15:37Z</time>
      </trkpt>
      <trkpt lat="47.26232" lon="-1.60723">
        <ele>26.6</ele>
        <time>2016-02-17T15:15:45Z</time>
      </trkpt>
      <trkpt lat="47.26236" lon="-1.60735">
        <ele>26.9</ele>
        <time>2016-02-17T15:15:53Z</time>
      </trkpt>
      <trkpt lat="47.26242" lon="-1.60747">
        <ele>28.3</ele>
        <time>2016-02-17T15:16:00Z</time>
      </trkpt>
      <trkpt lat="47.26248" lon="-1.60759">
        <ele>28.9</ele>
        <time>2016-02-17T15:16:49Z</time>
      </trkpt>
      <trkpt lat="47.26262" lon="-1.60777">
        <ele>30.5</ele>
        <time>2016-02-17T15:17:00Z</time>
      </trkpt>
      <trkpt lat="47.26263" lon="-1.6079">
        <ele>31.5</ele>
        <time>2016-02-17T15:17:07Z</time>
      </trkpt>
      <trkpt lat="47.26255" lon="-1.60797">
        <ele>34.9</ele>
        <time>2016-02-17T15:17:18Z</time>
      </trkpt>
      <trkpt lat="47.26247" lon="-1.60804">
        <ele>38.7</ele>
        <time>2016-02-17T15:17:41Z</time>
      </trkpt>
      <trkpt lat="47.26241" lon="-1.60814">
        <ele>41.4</ele>
        <time>2016-02-17T15:18:11Z</time>
      </trkpt>
      <trkpt lat="47.26232" lon="-1.60838">
        <ele>43.4</ele>
        <time>2016-02-17T15:18:27Z</time>
      </trkpt>
      <trkpt lat="47.26228" lon="-1.60851">
        <ele>44.2</ele>
        <time>2016-02-17T15:18:34Z</time>
      </trkpt>
      <trkpt lat="47.26228" lon="-1.60866">
        <ele>44.4</ele>
        <time>2016-02-17T15:18:39Z</time>
      </trkpt>
      <trkpt lat="47.26227" lon="-1.6088">
        <ele>44.1</ele>
        <time>2016-02-17T15:18:47Z</time>
      </trkpt>
      <trkpt lat="47.26222" lon="-1.60891">
        <ele>44.8</ele>
        <time>2016-02-17T15:18:54Z</time>
      </trkpt>
      <trkpt lat="47.26218" lon="-1.60903">
        <ele>44.3</ele>
        <time>2016-02-17T15:18:58Z</time>
      </trkpt>
      <trkpt lat="47.26217" lon="-1.60916">
        <ele>44.2</ele>
        <time>2016-02-17T15:19:01Z</time>
      </trkpt>
      <trkpt lat="47.26217" lon="-1.60936">
        <ele>43.9</ele>
        <time>2016-02-17T15:19:06Z</time>
      </trkpt>
      <trkpt lat="47.26217" lon="-1.60949">
        <ele>44.2</ele>
        <time>2016-02-17T15:19:09Z</time>
      </trkpt>
      <trkpt lat="47.26214" lon="-1.60965">
        <ele>44.1</ele>
        <time>2016-02-17T15:19:15Z</time>
      </trkpt>
      <trkpt lat="47.26214" lon="-1.60994">
        <ele>44.3</ele>
        <time>2016-02-17T15:19:23Z</time>
      </trkpt>
      <trkpt lat="47.26211" lon="-1.61008">
        <ele>43.8</ele>
        <time>2016-02-17T15:19:28Z</time>
      </trkpt>
      <trkpt lat="47.26206" lon="-1.61022">
        <ele>43.7</ele>
        <time>2016-02-17T15:19:32Z</time>
      </trkpt>
      <trkpt lat="47.26202" lon="-1.61035">
        <ele>43.3</ele>
        <time>2016-02-17T15:19:35Z</time>
      </trkpt>
      <trkpt lat="47.26198" lon="-1.61048">
        <ele>42.4</ele>
        <time>2016-02-17T15:19:37Z</time>
      </trkpt>
      <trkpt lat="47.26196" lon="-1.61063">
        <ele>41.7</ele>
        <time>2016-02-17T15:19:41Z</time>
      </trkpt>
      <trkpt lat="47.26196" lon="-1.61082">
        <ele>42</ele>
        <time>2016-02-17T15:19:44Z</time>
      </trkpt>
      <trkpt lat="47.26196" lon="-1.61099">
        <ele>42</ele>
        <time>2016-02-17T15:19:47Z</time>
      </trkpt>
      <trkpt lat="47.26194" lon="-1.61112">
        <ele>43</ele>
        <time>2016-02-17T15:19:50Z</time>
      </trkpt>
      <trkpt lat="47.26189" lon="-1.61127">
        <ele>43</ele>
        <time>2016-02-17T15:19:54Z</time>
      </trkpt>
      <trkpt lat="47.26186" lon="-1.61139">
        <ele>43.7</ele>
        <time>2016-02-17T15:19:59Z</time>
      </trkpt>
      <trkpt lat="47.26182" lon="-1.61153">
        <ele>44.6</ele>
        <time>2016-02-17T15:20:07Z</time>
      </trkpt>
      <trkpt lat="47.26177" lon="-1.61165">
        <ele>45.6</ele>
        <time>2016-02-17T15:20:11Z</time>
      </trkpt>
      <trkpt lat="47.26173" lon="-1.6118">
        <ele>47.2</ele>
        <time>2016-02-17T15:20:16Z</time>
      </trkpt>
      <trkpt lat="47.26161" lon="-1.61207">
        <ele>47.8</ele>
        <time>2016-02-17T15:20:24Z</time>
      </trkpt>
      <trkpt lat="47.26158" lon="-1.6122">
        <ele>48</ele>
        <time>2016-02-17T15:20:29Z</time>
      </trkpt>
      <trkpt lat="47.26154" lon="-1.61234">
        <ele>48.6</ele>
        <time>2016-02-17T15:20:34Z</time>
      </trkpt>
      <trkpt lat="47.26151" lon="-1.6125">
        <ele>49.4</ele>
        <time>2016-02-17T15:20:38Z</time>
      </trkpt>
      <trkpt lat="47.26148" lon="-1.61264">
        <ele>49.3</ele>
        <time>2016-02-17T15:20:43Z</time>
      </trkpt>
      <trkpt lat="47.26144" lon="-1.61281">
        <ele>49.2</ele>
        <time>2016-02-17T15:20:47Z</time>
      </trkpt>
      <trkpt lat="47.26141" lon="-1.61297">
        <ele>49.7</ele>
        <time>2016-02-17T15:20:51Z</time>
      </trkpt>
      <trkpt lat="47.26136" lon="-1.6131">
        <ele>48.9</ele>
        <time>2016-02-17T15:20:54Z</time>
      </trkpt>
      <trkpt lat="47.26133" lon="-1.61323">
        <ele>49</ele>
        <time>2016-02-17T15:20:59Z</time>
      </trkpt>
      <trkpt lat="47.26132" lon="-1.61338">
        <ele>46.8</ele>
        <time>2016-02-17T15:21:06Z</time>
      </trkpt>
      <trkpt lat="47.26135" lon="-1.61351">
        <ele>43.1</ele>
        <time>2016-02-17T15:21:18Z</time>
      </trkpt>
      <trkpt lat="47.26153" lon="-1.61364">
        <ele>42.6</ele>
        <time>2016-02-17T15:21:23Z</time>
      </trkpt>
      <trkpt lat="47.26165" lon="-1.61374">
        <ele>42.3</ele>
        <time>2016-02-17T15:21:25Z</time>
      </trkpt>
      <trkpt lat="47.26176" lon="-1.6138">
        <ele>41.5</ele>
        <time>2016-02-17T15:21:29Z</time>
      </trkpt>
      <trkpt lat="47.26186" lon="-1.61382">
        <ele>38.9</ele>
        <time>2016-02-17T15:21:32Z</time>
      </trkpt>
      <trkpt lat="47.26196" lon="-1.61378">
        <ele>36.6</ele>
        <time>2016-02-17T15:21:37Z</time>
      </trkpt>
      <trkpt lat="47.26205" lon="-1.61369">
        <ele>34.4</ele>
        <time>2016-02-17T15:21:41Z</time>
      </trkpt>
      <trkpt lat="47.26214" lon="-1.61363">
        <ele>30.9</ele>
        <time>2016-02-17T15:21:45Z</time>
      </trkpt>
      <trkpt lat="47.26223" lon="-1.61355">
        <ele>28.2</ele>
        <time>2016-02-17T15:21:50Z</time>
      </trkpt>
      <trkpt lat="47.26231" lon="-1.6135">
        <ele>27.3</ele>
        <time>2016-02-17T15:21:54Z</time>
      </trkpt>
      <trkpt lat="47.2624" lon="-1.61348">
        <ele>25.9</ele>
        <time>2016-02-17T15:21:58Z</time>
      </trkpt>
      <trkpt lat="47.26252" lon="-1.61343">
        <ele>25.2</ele>
        <time>2016-02-17T15:22:01Z</time>
      </trkpt>
      <trkpt lat="47.26266" lon="-1.6134">
        <ele>24.8</ele>
        <time>2016-02-17T15:22:05Z</time>
      </trkpt>
      <trkpt lat="47.26277" lon="-1.61338">
        <ele>25.2</ele>
        <time>2016-02-17T15:22:08Z</time>
      </trkpt>
      <trkpt lat="47.26286" lon="-1.61333">
        <ele>24.9</ele>
        <time>2016-02-17T15:22:15Z</time>
      </trkpt>
      <trkpt lat="47.26292" lon="-1.61324">
        <ele>24.9</ele>
        <time>2016-02-17T15:22:23Z</time>
      </trkpt>
      <trkpt lat="47.26307" lon="-1.61347">
        <ele>24.8</ele>
        <time>2016-02-17T15:22:36Z</time>
      </trkpt>
      <trkpt lat="47.2631" lon="-1.61361">
        <ele>25</ele>
        <time>2016-02-17T15:22:40Z</time>
      </trkpt>
      <trkpt lat="47.26315" lon="-1.61378">
        <ele>25.1</ele>
        <time>2016-02-17T15:22:44Z</time>
      </trkpt>
      <trkpt lat="47.2632" lon="-1.61391">
        <ele>24.9</ele>
        <time>2016-02-17T15:22:47Z</time>
      </trkpt>
      <trkpt lat="47.26322" lon="-1.61406">
        <ele>25.2</ele>
        <time>2016-02-17T15:22:50Z</time>
      </trkpt>
      <trkpt lat="47.26326" lon="-1.6142">
        <ele>24.5</ele>
        <time>2016-02-17T15:22:54Z</time>
      </trkpt>
      <trkpt lat="47.26332" lon="-1.61433">
        <ele>25.7</ele>
        <time>2016-02-17T15:22:58Z</time>
      </trkpt>
      <trkpt lat="47.26341" lon="-1.61442">
        <ele>25.1</ele>
        <time>2016-02-17T15:23:01Z</time>
      </trkpt>
      <trkpt lat="47.26351" lon="-1.6145">
        <ele>24.3</ele>
        <time>2016-02-17T15:23:03Z</time>
      </trkpt>
      <trkpt lat="47.26359" lon="-1.61443">
        <ele>26.3</ele>
        <time>2016-02-17T15:23:07Z</time>
      </trkpt>
      <trkpt lat="47.26359" lon="-1.61428">
        <ele>25.6</ele>
        <time>2016-02-17T15:23:14Z</time>
      </trkpt>
      <trkpt lat="47.26368" lon="-1.61416">
        <ele>24.6</ele>
        <time>2016-02-17T15:23:19Z</time>
      </trkpt>
      <trkpt lat="47.26378" lon="-1.61415">
        <ele>24.3</ele>
        <time>2016-02-17T15:23:23Z</time>
      </trkpt>
      <trkpt lat="47.26389" lon="-1.61413">
        <ele>24.6</ele>
        <time>2016-02-17T15:23:28Z</time>
      </trkpt>
      <trkpt lat="47.26407" lon="-1.61422">
        <ele>24.4</ele>
        <time>2016-02-17T15:23:37Z</time>
      </trkpt>
      <trkpt lat="47.26418" lon="-1.61423">
        <ele>25.1</ele>
        <time>2016-02-17T15:23:43Z</time>
      </trkpt>
      <trkpt lat="47.26427" lon="-1.61428">
        <ele>25.8</ele>
        <time>2016-02-17T15:23:49Z</time>
      </trkpt>
      <trkpt lat="47.26436" lon="-1.61431">
        <ele>25.7</ele>
        <time>2016-02-17T15:23:55Z</time>
      </trkpt>
      <trkpt lat="47.26445" lon="-1.61434">
        <ele>29</ele>
        <time>2016-02-17T15:24:27Z</time>
      </trkpt>
      <trkpt lat="47.26456" lon="-1.61449">
        <ele>45</ele>
        <time>2016-02-17T15:27:28Z</time>
      </trkpt>
      <trkpt lat="47.26475" lon="-1.6146">
        <ele>45.5</ele>
        <time>2016-02-17T15:27:34Z</time>
      </trkpt>
      <trkpt lat="47.26487" lon="-1.61462">
        <ele>45.3</ele>
        <time>2016-02-17T15:27:37Z</time>
      </trkpt>
      <trkpt lat="47.26498" lon="-1.61468">
        <ele>44.9</ele>
        <time>2016-02-17T15:27:41Z</time>
      </trkpt>
      <trkpt lat="47.26508" lon="-1.61477">
        <ele>44.6</ele>
        <time>2016-02-17T15:27:44Z</time>
      </trkpt>
      <trkpt lat="47.26518" lon="-1.6148">
        <ele>44.3</ele>
        <time>2016-02-17T15:27:48Z</time>
      </trkpt>
      <trkpt lat="47.26527" lon="-1.61484">
        <ele>45.1</ele>
        <time>2016-02-17T15:27:53Z</time>
      </trkpt>
      <trkpt lat="47.26536" lon="-1.6149">
        <ele>45.5</ele>
        <time>2016-02-17T15:27:59Z</time>
      </trkpt>
      <trkpt lat="47.26546" lon="-1.61495">
        <ele>46.8</ele>
        <time>2016-02-17T15:28:04Z</time>
      </trkpt>
      <trkpt lat="47.26554" lon="-1.6151">
        <ele>46.8</ele>
        <time>2016-02-17T15:28:09Z</time>
      </trkpt>
      <trkpt lat="47.26559" lon="-1.61522">
        <ele>46.1</ele>
        <time>2016-02-17T15:28:12Z</time>
      </trkpt>
      <trkpt lat="47.26565" lon="-1.61534">
        <ele>43.7</ele>
        <time>2016-02-17T15:28:17Z</time>
      </trkpt>
      <trkpt lat="47.2657" lon="-1.6155">
        <ele>45.1</ele>
        <time>2016-02-17T15:28:23Z</time>
      </trkpt>
      <trkpt lat="47.26573" lon="-1.61563">
        <ele>43.8</ele>
        <time>2016-02-17T15:28:26Z</time>
      </trkpt>
      <trkpt lat="47.26579" lon="-1.61575">
        <ele>43.3</ele>
        <time>2016-02-17T15:28:31Z</time>
      </trkpt>
      <trkpt lat="47.26595" lon="-1.61602">
        <ele>41.4</ele>
        <time>2016-02-17T15:28:36Z</time>
      </trkpt>
      <trkpt lat="47.26606" lon="-1.61608">
        <ele>41.2</ele>
        <time>2016-02-17T15:28:39Z</time>
      </trkpt>
      <trkpt lat="47.26617" lon="-1.61617">
        <ele>39.5</ele>
        <time>2016-02-17T15:28:52Z</time>
      </trkpt>
      <trkpt lat="47.26626" lon="-1.6162">
        <ele>39.7</ele>
        <time>2016-02-17T15:28:56Z</time>
      </trkpt>
      <trkpt lat="47.26635" lon="-1.61625">
        <ele>39.8</ele>
        <time>2016-02-17T15:29:00Z</time>
      </trkpt>
      <trkpt lat="47.26643" lon="-1.61633">
        <ele>40.1</ele>
        <time>2016-02-17T15:29:04Z</time>
      </trkpt>
      <trkpt lat="47.26651" lon="-1.61641">
        <ele>39.7</ele>
        <time>2016-02-17T15:29:14Z</time>
      </trkpt>
      <trkpt lat="47.2669" lon="-1.61659">
        <ele>40</ele>
        <time>2016-02-17T15:29:33Z</time>
      </trkpt>
      <trkpt lat="47.26719" lon="-1.61674">
        <ele>42</ele>
        <time>2016-02-17T15:29:47Z</time>
      </trkpt>
      <trkpt lat="47.26729" lon="-1.61673">
        <ele>42.9</ele>
        <time>2016-02-17T15:30:09Z</time>
      </trkpt>
      <trkpt lat="47.26738" lon="-1.61679">
        <ele>41.3</ele>
        <time>2016-02-17T15:30:15Z</time>
      </trkpt>
      <trkpt lat="47.26749" lon="-1.61682">
        <ele>42.6</ele>
        <time>2016-02-17T15:30:18Z</time>
      </trkpt>
      <trkpt lat="47.26757" lon="-1.61691">
        <ele>43.3</ele>
        <time>2016-02-17T15:30:25Z</time>
      </trkpt>
      <trkpt lat="47.26764" lon="-1.617">
        <ele>44.3</ele>
        <time>2016-02-17T15:30:31Z</time>
      </trkpt>
      <trkpt lat="47.26773" lon="-1.61706">
        <ele>46.1</ele>
        <time>2016-02-17T15:30:38Z</time>
      </trkpt>
      <trkpt lat="47.2679" lon="-1.61698">
        <ele>49.8</ele>
        <time>2016-02-17T15:30:55Z</time>
      </trkpt>
      <trkpt lat="47.268" lon="-1.61698">
        <ele>49.6</ele>
        <time>2016-02-17T15:30:59Z</time>
      </trkpt>
      <trkpt lat="47.26808" lon="-1.61706">
        <ele>51.6</ele>
        <time>2016-02-17T15:31:07Z</time>
      </trkpt>
      <trkpt lat="47.26813" lon="-1.61717">
        <ele>51.2</ele>
        <time>2016-02-17T15:31:15Z</time>
      </trkpt>
      <trkpt lat="47.26818" lon="-1.61729">
        <ele>50.3</ele>
        <time>2016-02-17T15:31:19Z</time>
      </trkpt>
      <trkpt lat="47.26826" lon="-1.61733">
        <ele>49.7</ele>
        <time>2016-02-17T15:31:25Z</time>
      </trkpt>
      <trkpt lat="47.26838" lon="-1.6174">
        <ele>49.1</ele>
        <time>2016-02-17T15:31:30Z</time>
      </trkpt>
      <trkpt lat="47.26847" lon="-1.61742">
        <ele>48.9</ele>
        <time>2016-02-17T15:31:34Z</time>
      </trkpt>
      <trkpt lat="47.26858" lon="-1.61743">
        <ele>48.7</ele>
        <time>2016-02-17T15:31:39Z</time>
      </trkpt>
      <trkpt lat="47.26862" lon="-1.61772">
        <ele>46.5</ele>
        <time>2016-02-17T15:31:49Z</time>
      </trkpt>
      <trkpt lat="47.26862" lon="-1.61786">
        <ele>44.5</ele>
        <time>2016-02-17T15:31:52Z</time>
      </trkpt>
      <trkpt lat="47.2686" lon="-1.61804">
        <ele>41.4</ele>
        <time>2016-02-17T15:31:55Z</time>
      </trkpt>
      <trkpt lat="47.26856" lon="-1.61818">
        <ele>40.8</ele>
        <time>2016-02-17T15:31:58Z</time>
      </trkpt>
      <trkpt lat="47.26855" lon="-1.61838">
        <ele>39.2</ele>
        <time>2016-02-17T15:32:01Z</time>
      </trkpt>
      <trkpt lat="47.26854" lon="-1.61854">
        <ele>38.5</ele>
        <time>2016-02-17T15:32:03Z</time>
      </trkpt>
      <trkpt lat="47.26854" lon="-1.61869">
        <ele>38.1</ele>
        <time>2016-02-17T15:32:06Z</time>
      </trkpt>
      <trkpt lat="47.26853" lon="-1.61883">
        <ele>39</ele>
        <time>2016-02-17T15:32:09Z</time>
      </trkpt>
      <trkpt lat="47.26852" lon="-1.61897">
        <ele>38.2</ele>
        <time>2016-02-17T15:32:12Z</time>
      </trkpt>
      <trkpt lat="47.26857" lon="-1.6191">
        <ele>37.6</ele>
        <time>2016-02-17T15:32:17Z</time>
      </trkpt>
      <trkpt lat="47.26865" lon="-1.61917">
        <ele>38.3</ele>
        <time>2016-02-17T15:32:21Z</time>
      </trkpt>
      <trkpt lat="47.26875" lon="-1.61926">
        <ele>36.9</ele>
        <time>2016-02-17T15:32:25Z</time>
      </trkpt>
      <trkpt lat="47.26886" lon="-1.61933">
        <ele>33.6</ele>
        <time>2016-02-17T15:32:29Z</time>
      </trkpt>
      <trkpt lat="47.26897" lon="-1.61939">
        <ele>33.1</ele>
        <time>2016-02-17T15:32:33Z</time>
      </trkpt>
      <trkpt lat="47.26905" lon="-1.61944">
        <ele>32.7</ele>
        <time>2016-02-17T15:32:35Z</time>
      </trkpt>
      <trkpt lat="47.26915" lon="-1.61947">
        <ele>31.7</ele>
        <time>2016-02-17T15:32:38Z</time>
      </trkpt>
      <trkpt lat="47.26923" lon="-1.61954">
        <ele>30.6</ele>
        <time>2016-02-17T15:32:42Z</time>
      </trkpt>
      <trkpt lat="47.26924" lon="-1.61984">
        <ele>25.1</ele>
        <time>2016-02-17T15:33:03Z</time>
      </trkpt>
      <trkpt lat="47.26917" lon="-1.61997">
        <ele>26.1</ele>
        <time>2016-02-17T15:33:08Z</time>
      </trkpt>
      <trkpt lat="47.26909" lon="-1.62009">
        <ele>24.6</ele>
        <time>2016-02-17T15:33:13Z</time>
      </trkpt>
      <trkpt lat="47.26901" lon="-1.62018">
        <ele>23.4</ele>
        <time>2016-02-17T15:33:17Z</time>
      </trkpt>
      <trkpt lat="47.26895" lon="-1.62028">
        <ele>21.8</ele>
        <time>2016-02-17T15:33:20Z</time>
      </trkpt>
      <trkpt lat="47.26891" lon="-1.62044">
        <ele>21.7</ele>
        <time>2016-02-17T15:33:23Z</time>
      </trkpt>
      <trkpt lat="47.26884" lon="-1.62062">
        <ele>20.7</ele>
        <time>2016-02-17T15:33:26Z</time>
      </trkpt>
      <trkpt lat="47.26876" lon="-1.62071">
        <ele>20</ele>
        <time>2016-02-17T15:33:28Z</time>
      </trkpt>
      <trkpt lat="47.26865" lon="-1.62079">
        <ele>19.7</ele>
        <time>2016-02-17T15:33:31Z</time>
      </trkpt>
      <trkpt lat="47.26855" lon="-1.62091">
        <ele>19.2</ele>
        <time>2016-02-17T15:33:34Z</time>
      </trkpt>
      <trkpt lat="47.26844" lon="-1.62106">
        <ele>18.3</ele>
        <time>2016-02-17T15:33:37Z</time>
      </trkpt>
      <trkpt lat="47.2684" lon="-1.62123">
        <ele>18.1</ele>
        <time>2016-02-17T15:33:39Z</time>
      </trkpt>
      <trkpt lat="47.26837" lon="-1.62137">
        <ele>17.8</ele>
        <time>2016-02-17T15:33:41Z</time>
      </trkpt>
      <trkpt lat="47.26832" lon="-1.62155">
        <ele>16.9</ele>
        <time>2016-02-17T15:33:44Z</time>
      </trkpt>
      <trkpt lat="47.26823" lon="-1.62186">
        <ele>16.5</ele>
        <time>2016-02-17T15:33:50Z</time>
      </trkpt>
      <trkpt lat="47.26822" lon="-1.622">
        <ele>16.3</ele>
        <time>2016-02-17T15:33:52Z</time>
      </trkpt>
      <trkpt lat="47.2682" lon="-1.62217">
        <ele>16.5</ele>
        <time>2016-02-17T15:33:55Z</time>
      </trkpt>
      <trkpt lat="47.26819" lon="-1.62233">
        <ele>16.7</ele>
        <time>2016-02-17T15:34:00Z</time>
      </trkpt>
      <trkpt lat="47.2682" lon="-1.62249">
        <ele>17.1</ele>
        <time>2016-02-17T15:34:05Z</time>
      </trkpt>
      <trkpt lat="47.26828" lon="-1.62256">
        <ele>18.5</ele>
        <time>2016-02-17T15:34:11Z</time>
      </trkpt>
      <trkpt lat="47.26839" lon="-1.62257">
        <ele>18.2</ele>
        <time>2016-02-17T15:34:18Z</time>
      </trkpt>
      <trkpt lat="47.26849" lon="-1.62255">
        <ele>19.2</ele>
        <time>2016-02-17T15:34:24Z</time>
      </trkpt>
      <trkpt lat="47.26859" lon="-1.62253">
        <ele>19.1</ele>
        <time>2016-02-17T15:34:28Z</time>
      </trkpt>
      <trkpt lat="47.26869" lon="-1.62252">
        <ele>19.9</ele>
        <time>2016-02-17T15:34:33Z</time>
      </trkpt>
      <trkpt lat="47.2688" lon="-1.62249">
        <ele>21.1</ele>
        <time>2016-02-17T15:34:38Z</time>
      </trkpt>
      <trkpt lat="47.2689" lon="-1.62247">
        <ele>21.5</ele>
        <time>2016-02-17T15:34:43Z</time>
      </trkpt>
      <trkpt lat="47.26902" lon="-1.62246">
        <ele>22.1</ele>
        <time>2016-02-17T15:34:49Z</time>
      </trkpt>
      <trkpt lat="47.2692" lon="-1.62243">
        <ele>23.1</ele>
        <time>2016-02-17T15:34:59Z</time>
      </trkpt>
      <trkpt lat="47.2693" lon="-1.62243">
        <ele>23.7</ele>
        <time>2016-02-17T15:35:05Z</time>
      </trkpt>
      <trkpt lat="47.26939" lon="-1.6224">
        <ele>24.5</ele>
        <time>2016-02-17T15:35:09Z</time>
      </trkpt>
      <trkpt lat="47.26949" lon="-1.62238">
        <ele>24.9</ele>
        <time>2016-02-17T15:35:14Z</time>
      </trkpt>
      <trkpt lat="47.26959" lon="-1.62242">
        <ele>26</ele>
        <time>2016-02-17T15:35:20Z</time>
      </trkpt>
      <trkpt lat="47.26969" lon="-1.62243">
        <ele>25.9</ele>
        <time>2016-02-17T15:35:26Z</time>
      </trkpt>
      <trkpt lat="47.26979" lon="-1.62243">
        <ele>27.5</ele>
        <time>2016-02-17T15:35:32Z</time>
      </trkpt>
      <trkpt lat="47.26992" lon="-1.62242">
        <ele>29.7</ele>
        <time>2016-02-17T15:35:38Z</time>
      </trkpt>
      <trkpt lat="47.26998" lon="-1.62252">
        <ele>30.7</ele>
        <time>2016-02-17T15:35:46Z</time>
      </trkpt>
      <trkpt lat="47.27005" lon="-1.62264">
        <ele>31.3</ele>
        <time>2016-02-17T15:35:52Z</time>
      </trkpt>
      <trkpt lat="47.27008" lon="-1.62292">
        <ele>33.7</ele>
        <time>2016-02-17T15:36:04Z</time>
      </trkpt>
      <trkpt lat="47.27014" lon="-1.62305">
        <ele>34.9</ele>
        <time>2016-02-17T15:36:12Z</time>
      </trkpt>
      <trkpt lat="47.27022" lon="-1.62314">
        <ele>36.9</ele>
        <time>2016-02-17T15:36:20Z</time>
      </trkpt>
      <trkpt lat="47.27027" lon="-1.62327">
        <ele>37.1</ele>
        <time>2016-02-17T15:36:28Z</time>
      </trkpt>
      <trkpt lat="47.27032" lon="-1.6234">
        <ele>36.9</ele>
        <time>2016-02-17T15:36:33Z</time>
      </trkpt>
      <trkpt lat="47.27037" lon="-1.62352">
        <ele>37.3</ele>
        <time>2016-02-17T15:36:37Z</time>
      </trkpt>
      <trkpt lat="47.27035" lon="-1.62367">
        <ele>37.8</ele>
        <time>2016-02-17T15:36:41Z</time>
      </trkpt>
      <trkpt lat="47.27031" lon="-1.62378">
        <ele>39</ele>
        <time>2016-02-17T15:36:46Z</time>
      </trkpt>
      <trkpt lat="47.2702" lon="-1.62376">
        <ele>38.2</ele>
        <time>2016-02-17T15:36:51Z</time>
      </trkpt>
      <trkpt lat="47.27015" lon="-1.62386">
        <ele>37.9</ele>
        <time>2016-02-17T15:36:54Z</time>
      </trkpt>
      <trkpt lat="47.26997" lon="-1.62403">
        <ele>37.3</ele>
        <time>2016-02-17T15:37:00Z</time>
      </trkpt>
      <trkpt lat="47.26988" lon="-1.62411">
        <ele>37.2</ele>
        <time>2016-02-17T15:37:03Z</time>
      </trkpt>
      <trkpt lat="47.2698" lon="-1.62418">
        <ele>34.7</ele>
        <time>2016-02-17T15:38:25Z</time>
      </trkpt>
    </trkseg>
  </trk>
</gpx>